[[{"header":{"parameterUnit":"m.s-1","parameterCategory":1,"la1":30.6,"la2":29.2853,"lo1":-89.7004,"lo2":-87.6739,"dy":0.0162,"dx":0.0183,"nx":112,"ny":82,"refTime":"2023-09-11T18:00:00:Z","depth":0,"parameterNumber":2,"parameterNumberName":"U-component_of_WINDS"},"data":[0.0,0.0,0.0,0.0,0.0,0.0,0.0,0.0,0.0,0.0,0.0,0.0,0.0,0.0,0.0,0.0,0.0,0.0,0.0,0.0,0.0,0.0,0.0,0.0,0.0,0.0,0.0,0.0,0.0,0.0,0.0,0.0,0.0,0.0,0.0,0.0,0.0,0.0,0.0,0.0,0.0,0.0,0.0,0.0,0.0,0.0,0.0,0.0,0.0,0.0,0.0,0.0,0.0,0.0,0.0,0.0,0.0,0.0,0.0,0.0,0.0,0.0,0.0,0.0,0.0,0.0,0.0,0.0,0.0,0.0,0.0,0.0,0.0,0.0,0.0,0.0,0.0,0.0,0.0,0.0,0.0,0.0,0.0,0.0,0.0,0.0,0.0,0.0,0.0,0.0,0.0,2.2092,2.5725,2.8034,2.8085,2.6504,2.4069,2.0718,0.0,0.0,0.0,0.0,0.0,0.0,0.0,0.0,0.0,0.0,0.0,0.0,0.0,0.0,0.0,0.0,0.0,0.0,0.0,0.0,0.0,0.0,0.0,0.0,0.0,0.0,0.0,0.0,0.0,0.0,0.0,0.0,0.0,0.0,0.0,0.0,0.0,0.0,0.0,0.0,0.0,0.0,0.0,0.0,0.0,0.0,0.0,0.0,0.0,0.0,0.0,0.0,0.0,0.0,0.0,0.0,0.0,0.0,0.0,0.0,0.0,0.0,0.0,0.0,0.0,0.0,0.0,0.0,0.0,0.0,0.0,0.0,0.0,0.0,0.0,0.0,0.0,0.0,0.0,0.0,0.0,0.0,0.0,0.0,0.0,0.0,0.0,0.0,0.0,0.0,0.0,0.0,0.0,0.0,0.0,0.0,0.0,0.0,0.0,0.0,0.0,0.0,0.0,0.0,2.1507,2.4672,2.6255,2.7128,2.7186,2.5605,2.3425,2.0679,0.0,0.0,0.0,0.0,0.0,0.0,0.0,0.0,0.0,0.0,0.0,0.0,0.0,0.0,0.0,0.0,0.0,0.0,0.0,0.0,0.0,0.0,0.0,0.0,0.0,0.0,0.0,0.0,0.0,0.0,0.0,0.0,0.0,0.0,0.0,0.0,0.0,0.0,0.0,0.0,0.0,0.0,0.0,0.0,0.0,0.0,0.0,0.0,0.0,0.0,0.0,0.0,0.0,0.0,0.0,0.0,0.0,0.0,0.0,0.0,0.0,0.0,0.0,0.0,0.0,0.0,0.0,0.0,0.0,0.0,0.0,0.0,0.0,0.0,0.0,0.0,0.0,0.0,0.0,0.0,0.0,0.0,0.0,0.0,0.0,0.0,0.0,0.0,0.0,0.0,0.0,0.0,0.0,0.0,0.0,0.0,0.0,0.0,0.0,0.0,0.0,0.0,0.0,2.1363,2.3043,2.5983,2.6683,2.6971,2.6992,2.457,2.2318,2.062,1.8798,0.0,0.0,0.0,0.0,0.0,0.0,0.0,0.0,0.0,0.0,0.0,0.0,0.0,0.0,0.0,0.0,0.0,0.0,0.0,0.0,0.0,0.0,0.0,0.0,0.0,0.0,0.0,0.0,0.0,0.0,0.0,0.0,0.0,0.0,0.0,0.0,0.0,0.0,0.0,0.0,0.0,0.0,0.0,0.0,0.0,0.0,0.0,0.0,0.0,0.0,0.0,0.0,0.0,0.0,0.0,0.0,0.0,0.0,0.0,0.0,0.0,0.0,0.0,0.0,0.0,0.0,0.0,0.0,0.0,0.0,0.0,0.0,0.0,0.0,0.0,0.0,0.0,0.0,0.0,0.0,0.0,0.0,0.0,0.0,0.0,0.0,0.0,0.0,0.0,0.0,0.0,0.0,0.0,0.0,0.0,0.0,0.0,0.0,0.0,0.0,0.0,0.0,2.3043,2.4006,2.6362,2.6663,2.6699,2.6699,2.4043,2.1852,2.0586,1.8358,0.0,0.0,0.0,0.0,0.0,0.0,0.0,0.0,0.0,0.0,0.0,0.0,0.0,0.0,0.0,0.0,0.0,0.0,0.0,0.0,0.0,0.0,0.0,0.0,0.0,0.0,0.0,0.0,0.0,0.0,0.0,0.0,0.0,0.0,0.0,0.0,0.0,0.0,0.0,0.0,0.0,0.0,0.0,0.0,0.0,0.0,0.0,0.0,0.0,0.0,0.0,0.0,0.0,0.0,0.0,0.0,0.0,0.0,0.0,0.0,0.0,0.0,0.0,0.0,0.0,0.0,0.0,0.0,0.0,0.0,0.0,0.0,0.0,0.0,0.0,0.0,0.0,0.0,0.0,0.0,0.0,0.0,0.0,0.0,0.0,0.0,0.0,0.0,0.0,0.0,0.0,0.0,0.0,0.0,0.0,0.0,0.0,0.0,0.0,0.0,0.0,0.0,2.3086,2.3791,2.5599,2.5781,2.5781,2.5781,2.4609,2.2888,2.0645,1.9264,0.0,0.0,0.0,0.0,0.0,0.0,0.0,0.0,0.0,0.0,0.0,0.0,0.0,0.0,0.0,0.0,0.0,0.0,0.0,0.0,0.0,0.0,0.0,0.0,0.0,0.0,0.0,0.0,0.0,0.0,0.0,0.0,0.0,0.0,0.0,0.0,0.0,0.0,0.0,0.0,0.0,0.0,0.0,0.0,0.0,0.0,0.0,0.0,0.0,0.0,0.0,0.0,0.0,0.0,0.0,0.0,0.0,0.0,0.0,0.0,0.0,0.0,0.0,0.0,0.0,0.0,0.0,0.0,0.0,0.0,0.0,0.0,0.0,0.0,0.0,0.0,0.0,0.0,0.0,0.0,0.0,0.0,0.0,0.0,0.0,0.0,0.0,0.0,0.0,0.0,0.0,0.0,0.0,0.0,0.0,0.0,0.0,0.0,0.0,0.0,0.0,0.0,2.3144,2.3808,0.0,2.5703,2.5488,2.4941,2.3047,2.1247,1.9785,0.0,0.0,0.0,0.0,0.0,0.0,0.0,0.0,0.0,0.0,0.0,0.0,0.0,0.0,0.0,0.0,0.0,0.0,0.0,0.0,0.0,0.0,0.0,0.0,0.0,0.0,0.0,0.0,0.0,0.0,0.0,0.0,0.0,0.0,0.0,0.0,0.0,0.0,0.0,0.0,0.0,0.0,0.0,0.0,0.0,0.0,0.0,0.0,0.0,0.0,0.0,0.0,0.0,0.0,0.0,0.0,0.0,0.0,0.0,0.0,0.0,0.0,0.0,0.0,0.0,0.0,0.0,0.0,0.0,0.0,0.0,0.0,0.0,0.0,0.0,0.0,0.0,0.0,0.0,0.0,0.0,0.0,0.0,0.0,0.0,0.0,0.0,0.0,0.0,0.0,0.0,0.0,0.0,0.0,0.0,0.0,0.0,0.0,0.0,0.0,0.0,0.0,2.2915,2.3142,2.3828,0.0,2.5449,2.4922,2.4062,2.1914,2.0076,1.8867,0.0,0.0,0.0,0.0,0.0,0.0,0.0,0.0,0.0,0.0,0.0,0.0,0.0,0.0,0.0,0.0,0.0,0.0,0.0,0.0,0.0,0.0,0.0,0.0,0.0,0.0,0.0,0.0,0.0,0.0,0.0,0.0,0.0,0.0,0.0,0.0,0.0,0.0,0.0,0.0,0.0,0.0,0.0,0.0,0.0,0.0,0.0,0.0,0.0,0.0,0.0,0.0,0.0,0.0,0.0,0.0,0.0,0.0,0.0,0.0,0.0,0.0,0.0,0.0,0.0,0.0,0.0,0.0,0.0,0.0,0.0,0.0,0.0,0.0,0.0,0.0,0.0,0.0,0.0,0.0,0.0,0.0,0.0,0.0,0.0,0.0,0.0,0.0,0.0,0.0,0.0,0.0,0.0,0.0,0.0,0.0,0.0,0.0,0.0,0.0,0.0,0.0,2.2986,2.3105,2.3769,2.5508,2.4922,2.4043,2.3164,2.1543,1.9805,0.0,0.0,0.0,0.0,0.0,0.0,0.0,0.0,0.0,0.0,0.0,0.0,0.0,0.0,0.0,0.0,0.0,0.0,0.0,0.0,0.0,0.0,0.0,0.0,0.0,0.0,0.0,0.0,0.0,0.0,0.0,0.0,0.0,0.0,0.0,0.0,0.0,0.0,0.0,0.0,0.0,0.0,0.0,0.0,0.0,0.0,0.0,0.0,0.0,0.0,0.0,0.0,0.0,0.0,0.0,0.0,0.0,0.0,0.0,0.0,0.0,0.0,0.0,0.0,0.0,0.0,0.0,0.0,0.0,0.0,0.0,0.0,0.0,0.0,0.0,0.0,0.0,0.0,0.0,0.0,0.0,0.0,0.0,0.0,0.0,0.0,0.0,0.0,0.0,0.0,0.0,0.0,0.0,0.0,0.0,0.0,0.0,0.0,0.0,0.0,0.0,0.0,0.0,2.2967,2.3164,2.3828,2.5527,2.4922,2.3828,2.2383,2.0664,1.8926,1.7168,0.0,0.0,0.0,0.0,0.0,0.0,0.0,0.0,0.0,0.0,0.0,0.0,0.0,0.0,0.0,0.0,0.0,0.0,0.0,0.0,0.0,0.0,0.0,0.0,0.0,0.0,0.0,0.0,0.0,0.0,0.0,0.0,0.0,0.0,0.0,0.0,0.0,0.0,0.0,0.0,0.0,0.0,0.0,0.0,0.0,0.0,0.0,0.0,0.0,0.0,0.0,0.0,0.0,0.0,0.0,0.0,0.0,0.0,0.0,0.0,0.0,0.0,0.0,0.0,0.0,0.0,0.0,0.0,0.0,0.0,0.0,0.0,0.0,0.0,0.0,0.0,0.0,0.0,0.0,0.0,0.0,0.0,0.0,0.0,0.0,0.0,0.0,0.0,0.0,0.0,0.0,0.0,0.0,0.0,0.0,0.0,0.0,0.0,0.0,0.0,0.0,0.0,2.2538,2.2969,2.3555,2.459,2.3926,2.2715,2.1016,1.9258,1.7812,1.6777,0.0,0.0,0.0,0.0,0.0,0.0,0.0,0.0,0.0,0.0,0.0,0.0,0.0,0.0,0.0,0.0,0.0,0.0,0.0,0.0,0.0,0.0,0.0,0.0,0.0,0.0,0.0,0.0,0.0,0.0,0.0,0.0,0.0,0.0,0.0,0.0,0.0,0.0,0.0,0.0,0.0,0.0,0.0,0.0,0.0,0.0,0.0,0.0,0.0,0.0,0.0,0.0,0.0,0.0,0.0,0.0,0.0,0.0,0.0,0.0,0.0,0.0,0.0,0.0,0.0,0.0,0.0,0.0,0.0,0.0,0.0,0.0,0.0,0.0,0.0,0.0,0.0,0.0,0.0,0.0,0.0,0.0,0.0,0.0,0.0,0.0,0.0,0.0,0.0,0.0,0.0,0.0,0.0,0.0,0.0,0.0,0.0,0.0,0.0,0.0,0.0,0.0,2.1992,2.2598,2.3066,2.3281,2.2383,2.1113,1.9434,1.7695,1.6699,1.6699,0.0,0.0,0.0,0.0,0.0,0.0,0.0,0.0,0.0,0.0,0.0,0.0,0.0,0.0,0.0,0.0,0.0,0.0,0.0,0.0,0.0,0.0,0.0,0.0,0.0,0.0,0.0,0.0,0.0,0.0,0.0,0.0,0.0,0.0,0.0,0.0,0.0,0.0,0.0,0.0,0.0,0.0,0.0,0.0,0.0,0.0,0.0,0.0,0.0,0.0,0.0,0.0,0.0,0.0,0.0,0.0,0.0,0.0,0.0,0.0,2.5467,0.0,0.0,0.0,0.0,0.0,0.0,0.0,0.0,0.0,0.0,0.0,0.0,0.0,0.0,0.0,0.0,0.0,0.0,0.0,0.0,0.0,0.0,0.0,0.0,0.0,0.0,0.0,0.0,0.0,0.0,0.0,0.0,0.0,0.0,0.0,0.0,0.0,0.0,0.0,0.0,0.0,2.2754,2.2461,2.2676,2.4004,2.2187,2.0449,1.9394,1.7695,1.6699,1.6699,1.7344,0.0,0.0,0.0,0.0,0.0,0.0,0.0,0.0,0.0,0.0,0.0,0.0,0.0,0.0,0.0,0.0,0.0,0.0,0.0,0.0,0.0,0.0,0.0,0.0,0.0,0.0,0.0,0.0,0.0,0.0,0.0,0.0,0.0,0.0,0.0,0.0,0.0,0.0,0.0,0.0,0.0,0.0,0.0,0.0,0.0,0.0,0.0,0.0,0.0,0.0,0.0,0.0,0.0,0.0,0.0,0.0,0.0,0.0,0.0,0.0,2.5493,0.0,0.0,0.0,0.0,0.0,0.0,0.0,0.0,0.0,0.0,0.0,0.0,0.0,0.0,0.0,0.0,0.0,0.0,0.0,0.0,0.0,0.0,0.0,0.0,0.0,0.0,0.0,0.0,0.0,0.0,0.0,0.0,0.0,0.0,0.0,0.0,0.0,0.0,0.0,0.0,2.1894,2.1914,2.207,2.2539,2.1016,1.9629,1.875,1.707,1.6426,1.7266,1.7754,0.0,0.0,0.0,0.0,0.0,0.0,0.0,0.0,0.0,0.0,0.0,0.0,0.0,0.0,0.0,0.0,0.0,0.0,0.0,0.0,0.0,0.0,0.0,0.0,0.0,0.0,0.0,0.0,0.0,0.0,0.0,0.0,0.0,0.0,0.0,0.0,0.0,0.0,0.0,0.0,0.0,0.0,0.0,0.0,0.0,0.0,0.0,0.0,0.0,0.0,0.0,0.0,0.0,2.7514,2.7796,2.8266,2.8266,2.8179,2.7907,2.6514,2.5813,2.562,2.5582,0.0,0.0,0.0,0.0,0.0,0.0,0.0,0.0,0.0,0.0,0.0,0.0,0.0,0.0,0.0,0.0,0.0,0.0,0.0,0.0,0.0,0.0,0.0,0.0,2.5428,2.5407,0.0,0.0,0.0,0.0,0.0,0.0,0.0,0.0,0.0,0.0,0.0,0.0,2.1348,2.1641,2.168,2.1094,1.998,1.9004,1.8281,1.6777,1.6523,1.8125,1.8223,1.8945,0.0,0.0,0.0,0.0,0.0,0.0,0.0,0.0,0.0,0.0,0.0,0.0,0.0,0.0,0.0,0.0,0.0,0.0,0.0,0.0,0.0,0.0,0.0,0.0,0.0,0.0,0.0,0.0,0.0,0.0,0.0,0.0,2.5214,2.5388,0.0,0.0,0.0,0.0,0.0,0.0,0.0,0.0,0.0,0.0,0.0,0.0,0.0,2.8145,2.8956,2.9673,3.005,3.0107,3.0047,2.9648,2.8978,2.8978,2.8582,2.7909,2.7678,0.0,2.6458,2.5734,0.0,0.0,0.0,0.0,0.0,0.0,0.0,0.0,0.0,0.0,0.0,0.0,0.0,0.0,0.0,0.0,0.0,0.0,0.0,0.0,0.0,0.0,2.5322,2.5322,2.5322,2.5313,0.0,2.5418,2.5504,2.552,2.5505,0.0,0.0,0.0,0.0,0.0,0.0,0.0,2.3828,2.2734,2.2129,2.2715,2.0684,1.9258,1.9141,1.8223,1.8086,1.9062,1.9121,1.957,2.0566,2.0545,0.0,0.0,0.0,0.0,0.0,0.0,0.0,0.0,0.0,0.0,0.0,0.0,0.0,0.0,0.0,0.0,0.0,0.0,0.0,0.0,0.0,0.0,0.0,0.0,0.0,0.0,0.0,0.0,0.0,2.5658,2.589,2.5486,2.5848,2.5923,0.0,0.0,0.0,0.0,0.0,0.0,0.0,0.0,0.0,2.83,2.9162,2.983,3.0287,3.0638,3.1015,3.1396,3.1323,3.1053,3.0609,3.0583,3.0102,2.9275,2.8794,2.8362,2.795,2.666,2.589,2.5488,0.0,0.0,0.0,0.0,2.5846,2.6255,2.6193,2.6167,0.0,2.6169,0.0,0.0,0.0,0.0,0.0,0.0,0.0,0.0,0.0,0.0,2.5341,2.5303,2.5303,2.5303,2.5303,2.5341,2.5409,0.0,2.5492,2.5568,2.5587,0.0,0.0,0.0,0.0,2.3809,2.373,2.2656,2.2031,2.2383,2.0547,1.9297,1.9297,1.8496,1.8379,1.9238,1.9297,1.9687,2.0566,2.0531,2.0508,0.0,0.0,0.0,0.0,0.0,0.0,0.0,0.0,0.0,0.0,0.0,0.0,0.0,0.0,0.0,0.0,0.0,0.0,0.0,0.0,0.0,0.0,0.0,0.0,0.0,0.0,0.0,0.0,2.6378,2.668,2.5558,2.6417,2.6621,0.0,0.0,0.0,0.0,0.0,0.0,2.7808,2.9055,2.9894,3.0191,3.1013,3.1598,3.1875,3.209,3.2461,3.3008,3.2953,3.2748,3.2443,3.2378,3.1775,3.0698,3.0044,2.9506,2.8997,2.7584,2.6641,2.6063,2.6118,2.6152,2.6165,2.6146,2.6547,2.7089,2.7033,2.686,2.6668,2.6679,0.0,2.5409,2.5466,0.0,0.0,0.0,0.0,2.5466,2.539,2.537,2.537,2.5303,2.5303,2.5303,2.5303,2.5303,2.5341,0.0,2.5466,2.5544,2.5569,0.0,0.0,0.0,0.0,2.4512,2.3926,2.2891,2.2227,2.2207,2.0664,1.9629,1.9629,1.9043,1.8945,1.959,1.9629,1.992,2.0547,2.0512,2.046,2.0465,0.0,0.0,0.0,0.0,0.0,0.0,0.0,0.0,0.0,0.0,0.0,0.0,0.0,0.0,0.0,0.0,0.0,0.0,0.0,0.0,0.0,0.0,0.0,0.0,0.0,0.0,0.0,0.0,0.0,2.5701,2.7052,0.0,0.0,0.0,0.0,2.7901,2.8773,2.9655,3.054,3.0675,3.1132,3.2049,3.2851,3.3671,3.4492,3.5332,3.5723,3.5703,3.5702,3.5154,3.4178,3.4166,3.3237,3.1641,3.1583,3.0621,2.9025,2.8179,2.7843,2.7873,2.7864,2.7902,2.795,2.789,2.7898,2.7926,2.7871,2.7294,2.6621,2.6601,2.6063,2.5409,2.5409,2.5457,0.0,0.0,2.5418,2.539,2.5322,2.5303,2.5303,2.5303,2.5303,2.5303,2.5303,2.5341,2.539,0.0,2.537,2.5425,2.5496,0.0,2.5607,2.5621,2.5625,2.5625,2.5586,2.4141,2.3105,2.3047,2.1543,2.0527,2.0527,2.0488,2.0488,2.0527,2.0527,2.0521,2.0511,2.0443,2.0404,2.0408,2.0412,0.0,0.0,0.0,0.0,0.0,0.0,0.0,0.0,0.0,0.0,0.0,0.0,0.0,0.0,0.0,0.0,0.0,0.0,0.0,0.0,0.0,0.0,0.0,0.0,0.0,0.0,0.0,0.0,2.9708,3.075,0.0,2.9797,2.9502,2.9496,2.9807,3.0685,3.135,3.1679,3.2716,3.3459,3.3809,3.4629,3.5215,3.5527,3.584,3.5996,3.5957,3.5918,3.5402,3.4472,3.3873,3.291,3.1725,3.1179,3.0544,2.991,2.964,2.889,2.7939,2.7939,2.7958,2.7967,2.7948,2.8264,2.8687,2.8679,2.8121,2.7255,2.614,2.5572,2.5341,2.5341,2.5736,2.6101,2.5505,2.5736,2.6043,2.5437,2.5303,2.5303,2.5303,2.5303,2.5303,2.5303,2.5322,2.5322,2.5303,2.5428,2.553,2.5507,2.5598,2.5673,2.5703,2.5703,2.5703,2.5703,2.4687,2.375,2.3164,2.2109,2.1211,2.0644,2.0605,2.0605,2.0605,2.0555,2.0526,2.0493,2.0397,2.0339,2.035,2.035,2.0342,0.0,0.0,0.0,0.0,0.0,0.0,0.0,0.0,0.0,0.0,0.0,0.0,0.0,0.0,0.0,0.0,0.0,0.0,0.0,0.0,0.0,0.0,0.0,0.0,0.0,0.0,3.1775,3.2302,3.3433,3.3615,3.2169,3.1813,3.1676,3.1676,3.2539,3.3164,3.3476,3.4531,3.5137,3.5137,3.5703,3.5996,3.5996,3.5703,3.5703,3.5996,3.5351,3.4902,3.457,3.3647,3.2716,3.178,3.1203,3.0725,3.0398,3.0398,2.9756,2.8736,2.8736,2.8736,2.8736,2.8736,2.9083,2.9467,2.889,2.814,2.7217,2.5774,2.5303,2.5303,2.5303,2.5687,2.6043,2.5457,2.5717,2.6024,2.5437,2.5514,2.5736,2.5736,2.5736,2.5736,2.5736,2.5514,2.5303,2.5303,2.5428,2.553,2.5507,2.5588,2.5664,2.5703,2.5703,2.5703,2.5703,2.4941,2.418,2.3594,2.2559,2.168,2.1094,2.0762,2.0583,2.0572,2.0526,2.0485,2.0427,2.035,2.0427,2.0696,2.0734,2.0928,2.1311,0.0,0.0,0.0,0.0,0.0,0.0,0.0,0.0,0.0,0.0,0.0,0.0,0.0,0.0,0.0,0.0,0.0,0.0,0.0,0.0,0.0,0.0,0.0,2.9256,3.1555,3.3229,3.3304,3.4905,3.5037,3.254,3.3041,3.3516,3.3476,3.4258,3.5117,3.5957,3.5996,3.5996,3.5996,3.5976,3.5976,3.5996,3.5137,3.5137,3.5976,3.4258,3.3848,3.457,3.3672,3.2745,3.184,3.1799,3.1263,3.0448,3.0398,3.0398,3.0398,3.0398,3.0398,3.0398,3.0398,3.0398,3.0148,2.8506,2.7371,2.6524,2.563,2.5341,2.5341,2.5303,2.5341,2.538,2.5341,2.538,2.5399,2.5341,2.5986,2.664,2.6621,2.6601,2.6601,2.6601,2.5947,2.5322,2.5303,2.536,2.5444,2.5502,2.5566,2.5625,2.5684,2.5703,0.0,2.5703,2.4961,2.4434,2.4394,2.2949,2.1953,2.1894,2.1113,2.0594,2.0515,2.0504,2.0446,2.0312,2.0312,2.0677,2.1485,2.1566,2.217,2.3322,0.0,0.0,0.0,0.0,0.0,0.0,0.0,0.0,0.0,0.0,0.0,0.0,0.0,0.0,0.0,0.0,0.0,0.0,0.0,0.0,0.0,0.0,3.1448,3.2697,3.4629,3.6406,3.7661,3.8258,3.8078,3.6791,3.6305,3.5859,3.5332,3.5508,3.5742,3.5996,3.5996,3.5996,3.5996,3.5391,3.5351,3.5996,3.5137,3.5137,3.5996,3.4863,3.4453,3.4629,3.3164,3.2634,3.2809,3.1496,3.1102,3.1357,3.0679,3.0398,3.0398,3.0398,3.0398,3.0398,3.0398,3.0398,3.0237,2.914,2.8602,2.8159,2.6717,2.6236,2.612,2.5495,2.6178,2.7044,2.6428,2.7121,2.7775,2.6563,2.689,2.7371,2.6755,2.6601,2.6601,2.6601,2.6409,2.6063,2.5418,2.5832,2.6102,2.5597,2.5566,2.5625,2.5684,2.5703,0.0,2.5703,2.5488,2.5098,2.4473,2.3984,2.3223,2.1992,2.1639,2.1191,2.0531,2.0408,2.035,2.0312,2.0312,2.0677,2.1485,2.1368,2.2083,0.0,0.0,0.0,0.0,0.0,0.0,0.0,0.0,0.0,0.0,0.0,0.0,0.0,0.0,0.0,0.0,0.0,0.0,0.0,0.0,0.0,0.0,3.316,3.5078,3.7151,3.7435,3.8078,3.9838,4.0056,3.9607,3.8462,3.7901,3.7126,3.5952,3.5934,3.5957,3.5957,3.5976,3.5996,3.5996,3.5508,3.5312,3.5449,3.4941,3.4941,3.5449,3.457,3.4355,3.4648,3.3301,3.293,0.0,3.1801,3.1415,3.1734,3.0814,3.0417,0.0,0.0,0.0,0.0,0.0,3.0179,2.9775,2.9275,2.8871,2.8429,2.7467,2.714,2.7044,2.6544,2.7101,2.7794,2.7294,2.7852,2.8371,2.739,2.7775,2.8275,2.7775,2.764,2.764,2.764,2.7101,2.6447,2.5947,2.5967,0.0,2.5524,2.5502,2.5576,2.5644,2.5684,2.5703,2.5703,2.5703,2.5508,2.5,2.4583,2.3969,2.2991,2.2549,0.0,0.0,0.0,2.0823,2.0812,2.1158,0.0,0.0,0.0,2.3031,2.367,0.0,0.0,0.0,2.4512,2.4559,0.0,0.0,0.0,0.0,0.0,0.0,0.0,0.0,0.0,0.0,0.0,0.0,0.0,0.0,0.0,0.0,3.7068,3.9104,4.147,3.9854,3.9027,4.0639,4.0735,4.0081,3.8565,3.8412,3.7712,3.5986,3.5955,3.5993,3.5898,0.0,0.0,0.0,0.0,3.5488,3.4707,3.4707,3.4746,3.4844,3.3965,3.3945,3.4668,3.3809,3.3418,3.3414,3.2516,3.2069,3.1896,3.101,3.0544,3.0398,3.0398,3.0398,3.0398,3.0398,2.991,2.9236,2.9236,0.0,0.0,2.8063,2.8044,2.8025,2.7928,2.7948,2.8044,2.8044,2.8102,2.8159,2.8063,2.864,2.9217,2.9121,2.9102,2.9102,2.9102,2.7928,2.6851,2.6755,2.612,2.5572,2.5543,2.5503,2.5511,2.5582,2.5643,2.5683,2.5683,2.5683,2.5683,2.5683,0.0,0.0,2.4293,2.3591,2.3076,2.291,2.2179,2.1707,2.1658,2.2389,2.2851,2.2928,2.4075,2.4318,2.3649,2.4023,2.419,2.419,2.4375,2.4461,0.0,0.0,0.0,0.0,0.0,0.0,0.0,0.0,0.0,0.0,0.0,0.0,0.0,0.0,0.0,3.6968,3.8896,4.0431,4.1643,4.1393,4.12,4.1546,4.0969,4.0181,3.9281,3.9196,3.8498,3.687,3.6764,3.6522,3.5937,3.5918,3.5625,3.4961,3.4941,3.4863,3.4707,3.4707,3.5059,3.5742,0.0,0.0,3.4668,3.3809,3.3777,3.4378,3.34,3.2951,3.2861,3.1871,3.1044,3.0398,3.0398,3.0398,3.0398,3.0398,3.0294,3.016,3.016,3.0063,2.9794,2.9102,2.8871,2.8736,2.8102,2.8352,0.0,2.8871,2.9371,2.9756,2.9044,2.9506,2.9967,2.9275,2.9102,2.9102,2.9102,2.8852,2.8409,2.7775,2.7505,2.7178,2.6486,2.5832,2.5441,2.5507,2.5524,2.5543,2.5543,2.5543,2.5543,2.5543,2.5386,2.4981,2.4274,2.4051,2.3664,2.2939,2.2688,2.2562,2.2543,2.2716,2.3129,2.3841,2.379,2.4002,2.4544,2.43,2.419,2.419,2.4247,2.4266,0.0,0.0,0.0,0.0,0.0,0.0,0.0,0.0,0.0,0.0,0.0,3.0389,0.0,0.0,3.6957,3.9275,4.085,4.195,4.2393,4.2085,4.1643,4.12,4.0758,4.0027,3.8819,3.87,3.8022,3.6367,3.6271,3.6141,3.5767,3.543,3.5078,3.4668,3.4687,3.4492,3.4043,3.4473,3.4922,3.5332,3.4902,3.4922,3.5332,3.4902,3.4936,3.5291,3.4332,3.3887,3.3732,3.2278,3.1198,3.0398,3.0398,3.0398,3.0398,3.0398,3.0398,3.0398,3.0398,3.0398,3.0321,2.989,2.9756,2.9679,2.9275,2.9429,2.9756,2.9756,3.0063,3.0302,2.9871,3.0083,3.0294,2.9852,2.9756,2.9756,2.9756,2.941,2.8852,2.8063,2.789,2.7486,2.6178,2.5986,2.5871,2.5507,2.5483,2.5503,2.5503,2.5503,2.5503,2.5503,2.5464,2.5263,2.4841,2.4764,2.4389,2.3553,2.3466,2.3456,2.3456,2.3456,2.3832,2.4678,2.4341,2.4356,2.4804,2.4393,2.419,2.419,2.419,2.419,0.0,0.0,0.0,0.0,0.0,0.0,0.0,0.0,2.8466,3.0081,3.1618,3.3352,3.5547,3.7656,3.9534,4.1052,4.2315,4.2989,4.2643,4.1854,4.0931,3.9892,4.0046,3.9662,3.8142,3.8007,3.7373,3.5853,3.5776,3.5757,3.5622,3.4925,3.4482,3.4355,3.4394,3.4023,3.3184,3.4023,3.4531,3.4707,3.4707,3.5156,3.5996,3.6005,3.5983,3.593,3.4955,3.4403,3.4057,3.2378,3.1198,3.0398,3.0398,3.0398,3.0398,3.0398,3.0398,3.0398,3.0398,3.0398,3.0398,3.0398,3.0398,3.0398,3.0398,3.0398,3.0398,3.0398,3.0398,3.0398,3.0398,3.0398,3.0398,3.0398,3.0398,3.0398,3.0398,2.9852,2.9159,2.8506,2.8255,2.764,2.6082,2.639,2.6524,2.5543,2.5428,2.5466,2.5466,2.5466,2.5466,2.5466,2.5409,2.539,2.539,2.5322,2.5024,2.4379,2.4341,2.4341,2.4341,2.4341,2.4611,2.5234,2.4949,2.4775,2.4746,2.4375,2.419,2.419,2.419,2.419,2.4428,2.4972,0.0,2.7934,2.8062,2.8778,0.0,0.0,3.3476,3.5128,3.6389,3.7251,3.7571,3.9471,4.1071,4.1264,4.2313,4.2566,4.1008,4.0085,3.8969,3.7315,3.8488,3.9065,3.8084,3.8007,3.7603,3.6642,3.6584,3.6295,3.5641,3.4795,3.4062,3.3457,3.3457,3.3105,3.2344,3.3144,3.3926,3.4707,3.4707,3.5156,3.5996,3.6004,3.5971,3.5853,3.4795,3.3853,3.3006,3.2083,3.1198,3.0398,3.0398,3.0398,3.0398,3.0398,3.0398,3.0398,3.0398,3.0398,3.0398,3.0398,3.0398,3.0398,3.0398,3.0398,3.0398,3.0398,3.0398,3.0398,3.0398,3.0398,3.0398,3.0398,3.0398,3.0398,3.0398,3.0321,3.0237,3.014,2.9506,2.8679,2.7775,2.7678,2.7198,2.5553,2.5322,2.5322,2.5322,2.5322,2.5322,2.5322,2.5322,2.5303,2.5303,2.5303,2.5264,2.5168,2.5178,2.5178,2.5178,2.5178,2.5118,2.5034,2.4883,2.4716,2.4545,2.4321,2.419,2.419,2.419,2.419,2.6218,0.0,0.0,0.0,3.0852,3.2522,3.4532,3.5147,3.5587,3.6743,3.8092,3.9116,3.9268,4.0647,4.1661,0.0,4.1893,4.1758,4.0027,3.8642,3.7142,3.5449,3.5026,3.5122,3.5718,3.5334,3.4872,3.4526,3.4968,3.4891,3.4064,3.3724,3.3191,3.2446,3.25,3.2402,3.209,3.248,3.3125,3.3945,3.3945,3.4394,3.5253,3.5766,3.5911,3.5757,3.5276,3.4526,3.3583,3.2756,3.191,3.1121,3.0602,3.0398,3.0398,3.0398,3.0398,3.0398,3.0398,3.0398,3.0398,3.0398,3.0398,3.0398,3.0398,3.0398,3.0398,3.0398,3.0398,3.0398,3.0398,3.0398,3.0398,3.0398,3.0398,3.0398,3.0398,3.0398,3.0256,2.9737,2.9756,2.9448,2.8121,2.8294,2.8179,2.6986,2.639,2.6063,2.6063,2.561,2.5303,2.5303,2.5303,2.5303,2.5303,2.5303,2.5303,2.5303,2.5303,2.5303,2.5303,2.5192,2.5088,2.501,2.4752,2.4575,2.4495,2.4303,2.419,2.419,2.419,2.419,2.7515,0.0,0.0,3.1311,3.3623,3.5826,3.6266,3.7019,3.7734,3.8083,3.8909,3.9455,3.898,3.9733,4.022,3.9641,4.0017,3.9892,3.845,3.6757,3.5026,3.3353,3.1468,3.0852,3.2314,3.2314,3.2314,3.2545,3.3141,3.3333,3.291,3.2744,3.2385,3.1827,3.1696,3.1643,3.1699,3.1797,3.2363,3.3398,3.3398,3.3984,3.5078,3.5643,3.583,3.5699,3.5622,3.5045,3.4141,3.3526,3.2641,3.1641,3.1006,3.0756,3.0737,3.0494,3.0398,3.0398,3.0398,3.0398,3.0398,3.0398,3.0398,3.0398,3.0398,3.0398,3.0398,3.0398,3.0571,3.0698,3.0456,3.0571,3.0698,3.0456,3.0398,3.0398,3.0398,3.0398,3.0217,2.9583,2.9967,2.9948,2.8486,2.8909,2.9179,2.8352,2.7698,2.7121,2.6659,2.5851,2.5303,2.5303,2.5303,2.5303,2.5303,2.5303,2.5303,2.5303,2.5303,2.5274,2.5214,2.5088,2.4962,2.4872,2.462,2.4478,2.4428,2.4266,2.419,2.419,2.419,2.419,0.0,0.0,3.0962,3.4055,3.6156,3.7826,3.9386,4.0377,4.0744,3.9974,3.9239,3.8051,3.5877,3.5783,3.5888,3.5284,3.6128,3.6565,3.5738,3.4122,3.2391,3.0706,2.8294,2.7101,0.0,2.9544,3.0833,3.1679,3.1756,3.2102,3.2852,3.216,3.1782,3.1885,3.1076,3.0731,3.0937,3.0937,3.1777,3.3398,3.3398,3.4297,3.5957,3.5792,3.5718,3.5699,3.5565,3.5007,3.4199,3.416,3.3179,3.1698,3.1679,3.166,3.1564,3.0717,3.0398,3.0398,3.0398,3.0398,3.0398,3.0398,3.0398,3.0398,3.0398,3.0398,3.0398,3.0398,3.1006,3.1468,3.0609,3.1025,3.1448,3.059,3.0398,3.0398,3.0398,3.0398,3.0379,3.0359,3.0379,3.0121,2.9217,2.9775,3.0083,2.9179,2.9044,2.8429,2.6813,2.5851,2.5303,2.5303,2.5303,2.5303,2.5303,2.5303,2.5303,2.5303,2.5303,2.5214,2.5022,2.4991,2.4845,2.451,2.4512,2.441,2.4209,2.419,2.419,2.419,2.419,2.419,3.1201,0.0,3.555,3.7716,3.9478,4.0818,4.1368,4.1295,4.0432,3.801,3.6413,3.4962,3.3352,3.2816,3.3204,3.4854,3.5565,3.5815,3.5545,3.4507,3.2699,2.9871,2.8313,0.0,0.0,0.0,0.0,2.9871,3.0506,3.0968,3.1237,3.1525,3.1487,3.0994,3.1293,3.1515,3.1631,3.2243,3.2832,3.3418,3.3984,3.4853,3.593,3.5772,3.5679,3.5641,3.5545,3.5334,3.5026,3.443,3.3872,3.3295,3.2718,3.2179,3.1737,3.1968,3.1718,3.1179,3.059,3.0794,3.1179,3.059,3.0794,3.116,3.0571,3.0398,3.0398,3.0398,3.0609,3.0775,3.0475,3.0621,3.0756,3.0456,3.0398,3.0398,3.0398,3.0398,3.0398,3.0398,3.0398,3.0302,3.0006,3.0217,3.0302,3.0006,2.9025,2.789,2.6755,2.5851,2.5303,2.5303,2.5303,2.5303,2.5303,2.5173,2.5099,2.5099,2.5024,2.4936,2.4883,2.4737,2.462,2.4512,2.4375,2.4284,2.419,2.419,2.419,2.419,2.419,2.419,3.3899,3.6266,3.8377,4.0286,4.1534,4.2158,4.157,4.0377,3.8469,3.522,3.3033,3.1325,3.0016,2.9528,3.0045,3.223,3.2875,3.3358,3.4032,3.3333,3.2052,3.0237,2.9294,2.8236,0.0,0.0,0.0,2.8602,2.9737,3.0544,3.0883,3.173,3.198,3.1511,3.2077,3.2435,3.2489,3.3105,3.3555,3.3867,3.4713,3.5399,3.5886,3.5745,3.5646,3.5603,3.5545,3.5493,3.5468,3.4911,3.4468,3.4141,3.3583,3.3045,3.2622,3.2814,3.2776,3.2429,3.1275,3.1237,3.1564,3.0679,3.0987,3.1545,3.0648,3.0621,3.0871,3.0871,3.1083,3.1237,3.0948,3.1083,3.1141,3.0533,3.0398,3.0398,3.0398,3.0398,3.0398,3.0398,3.0398,3.0398,3.0398,3.0398,3.0398,3.0398,2.8967,2.7698,2.714,2.6043,2.5303,2.5303,2.5243,2.5184,2.5184,2.503,2.4943,2.4943,2.4855,2.4775,2.47,2.4578,2.4461,2.4393,2.4284,2.419,2.419,2.419,2.419,2.419,2.419,2.419,3.5826,3.7698,3.9496,4.1791,4.2323,4.1864,4.0157,3.7936,3.5257,3.1868,2.9414,2.7474,0.0,0.0,2.6549,2.7742,2.8466,2.957,3.1482,3.095,3.0713,0.0,0.0,0.0,0.0,0.0,0.0,2.8112,0.0,3.0825,3.1831,3.2671,3.3184,3.3292,3.333,3.3394,3.3476,3.3516,3.3945,3.4763,3.5534,3.5892,3.5872,3.5699,3.5603,3.5603,3.5545,3.5493,3.5493,3.5493,3.4993,3.4243,3.4243,3.4224,3.407,3.3301,3.3526,3.3968,3.2359,3.1821,3.1679,3.0814,3.1121,3.1679,3.0794,3.1121,3.1756,3.1756,3.2314,3.2718,3.1898,3.2282,3.2455,3.0828,3.0482,3.0501,3.0444,3.0456,3.0436,3.0398,3.0398,3.0398,3.0398,3.0398,3.0398,3.0367,2.8956,2.789,2.789,2.639,2.5303,2.5293,2.5111,2.4998,2.4998,2.485,2.479,2.479,2.4775,2.4685,2.4495,2.4478,2.4393,2.419,2.419,2.419,2.419,2.419,2.419,2.419,2.419,2.419,3.8469,4.0579,4.2415,4.3039,4.2745,4.1552,3.8744,3.667,3.3925,2.8997,2.7081,2.5854,0.0,0.0,0.0,2.8122,2.9372,0.0,3.2352,3.348,0.0,3.1891,0.0,3.1448,2.9382,3.0356,0.0,0.0,3.0282,3.1164,3.275,3.3045,3.3208,3.3304,3.3932,3.4295,3.4375,3.5019,3.5415,3.5611,3.581,3.5815,3.568,3.5622,3.5584,3.5526,3.5526,3.5493,3.5493,3.5493,3.5249,3.4863,3.4863,3.4461,3.3945,3.4385,3.44,3.4109,3.3474,3.3398,3.341,3.2545,3.2852,3.3391,3.2526,3.2429,3.2583,3.2583,3.2737,3.2673,3.1656,3.1996,3.2294,3.1054,3.1381,3.1809,3.1202,3.1232,3.1179,3.0533,3.0398,3.0398,3.0398,3.0398,3.0323,3.0136,2.8721,2.7738,2.7879,2.639,2.5234,2.5088,2.5034,2.4962,2.4869,2.4666,2.4594,2.4594,2.4445,2.4339,2.4266,2.4266,2.4266,2.419,2.419,2.419,2.419,2.419,2.419,2.419,2.419,2.419,4.0506,4.2194,4.3474,4.3254,4.2018,4.0148,3.7376,3.4618,3.1351,2.6804,2.5035,0.0,0.0,0.0,0.0,0.0,0.0,0.0,3.1537,3.2935,3.3657,0.0,3.3853,0.0,3.1705,3.2413,3.2822,0.0,3.231,3.2716,3.3762,3.4176,3.4426,3.4471,3.4964,3.5232,3.5273,3.5732,3.5937,3.5892,3.5815,3.5718,3.5603,3.5584,3.5545,3.5493,0.0,3.5493,3.5493,3.5493,3.5354,3.5105,3.5105,3.48,3.442,3.4792,3.478,3.4561,3.4293,3.4293,3.4219,3.3087,3.323,3.3704,3.2953,3.2909,3.3118,3.3118,3.3118,3.2988,3.2381,3.2555,3.2653,3.1657,3.1988,3.2286,3.147,3.1422,3.1243,3.0285,3.0099,3.0099,3.0099,3.0099,2.9918,2.9414,2.824,2.7333,2.7097,2.5893,2.5037,2.493,2.4831,2.4752,2.467,2.4478,2.4375,2.4375,2.4247,2.419,2.419,2.419,2.419,2.419,2.419,2.419,2.419,2.419,2.419,2.419,2.419,2.419,4.2207,4.3096,4.3527,4.2988,4.0859,3.8287,3.5863,3.2184,2.8307,2.4945,0.0,2.2661,2.2639,2.2901,2.3658,2.5226,0.0,2.7465,3.0144,3.1207,3.2678,3.5233,3.5631,3.5393,3.4595,3.4613,3.4669,3.4612,3.4678,3.4727,3.4768,3.5508,3.5935,3.5996,3.5992,3.5986,3.5986,3.5911,3.5868,3.5853,3.568,3.5603,3.5584,3.5545,3.5493,3.5493,3.5493,0.0,3.5446,3.5446,3.5254,3.4981,3.4981,3.4981,3.4944,3.4734,3.4813,3.4999,3.4734,3.4632,3.4429,3.3197,3.3145,3.3468,3.295,3.3164,3.356,3.356,3.356,3.3541,3.3388,3.3445,3.3274,3.2388,3.2449,3.2511,3.1697,3.1385,3.0969,3.005,2.9771,2.9696,2.9696,2.9696,2.9451,2.8734,2.7794,2.6892,2.618,2.5326,2.479,2.476,2.4591,2.4495,2.4461,2.4303,2.419,2.419,2.419,2.419,2.419,2.419,2.419,2.419,2.419,2.419,2.419,2.419,2.419,2.419,2.419,2.419,4.3931,4.4307,4.4231,4.3412,4.0791,3.7422,3.3595,3.0057,0.0,0.0,2.2742,2.3411,2.2863,2.3918,0.0,2.6283,0.0,0.0,0.0,0.0,3.3347,0.0,0.0,0.0,0.0,0.0,0.0,0.0,0.0,3.5741,3.5764,3.5903,3.5987,3.5996,3.5954,3.5913,3.5913,3.5794,3.5708,3.5661,3.5622,3.5584,3.5526,3.5526,3.5493,3.5493,3.5493,0.0,3.5174,3.5174,3.4851,3.436,3.436,3.436,3.4338,3.4292,3.4489,3.4714,3.4401,3.4288,3.43,3.4315,3.4374,3.4449,3.4338,3.4374,3.4486,3.4486,3.4486,3.4256,3.3309,3.356,3.379,3.2767,3.3213,3.3683,3.2873,3.1786,3.0901,3.0733,3.0149,2.9696,2.9696,2.9696,2.9605,2.9288,2.7942,2.6842,2.6537,2.551,2.4731,2.4559,2.4528,2.4426,2.4284,2.4209,2.419,2.419,2.419,2.419,2.419,2.419,2.419,2.419,2.419,2.419,2.419,2.419,2.419,2.419,2.419,2.419,4.424,4.458,4.4235,4.2635,3.97,3.6272,3.2711,0.0,0.0,0.0,2.3428,2.3918,2.3629,0.0,0.0,0.0,0.0,0.0,0.0,0.0,0.0,0.0,0.0,0.0,0.0,0.0,0.0,0.0,0.0,3.5891,3.5996,3.5541,3.5061,3.4613,3.4531,3.4715,3.5166,3.5052,3.5109,3.5376,3.5494,3.5451,3.5289,3.5432,3.5432,3.5289,3.5289,0.0,3.4889,3.4889,3.4615,3.42,3.42,3.42,3.4176,3.4043,3.4171,3.4401,3.4093,3.3986,3.4037,3.4184,3.4232,3.4279,3.4398,3.4353,3.4232,3.4232,3.4232,3.4115,3.3556,3.3716,3.3869,3.3338,3.3395,3.3469,3.3078,3.1808,3.0691,3.0567,2.9874,2.9355,2.9355,2.9355,2.9165,2.8651,2.789,2.7036,2.6101,2.5467,2.4908,2.4413,2.4339,2.4303,2.4209,2.419,2.419,2.419,2.419,2.4392,2.4795,2.4814,2.4814,2.4814,2.4814,2.4612,2.419,2.419,2.419,2.419,2.419,2.419,4.4061,4.454,4.3999,4.1703,3.844,3.4945,3.1879,2.8544,0.0,0.0,2.4097,2.4234,2.4297,0.0,0.0,0.0,0.0,0.0,0.0,0.0,0.0,0.0,0.0,0.0,0.0,0.0,0.0,0.0,0.0,0.0,3.5677,3.4982,3.4182,3.3311,3.3208,3.3499,3.4191,3.4197,3.4427,3.4904,3.5251,3.5273,3.5016,3.5289,3.5273,3.5016,3.5016,0.0,0.0,3.4593,3.4401,3.4123,3.4123,3.4123,3.4093,3.3876,3.3935,3.4074,3.3876,3.3807,3.3807,3.3807,3.3807,3.3842,3.4043,3.3961,3.3807,3.3807,3.3807,3.3807,3.3807,3.3807,3.3807,3.3807,3.3474,3.3165,3.317,3.2038,3.0913,3.0533,2.9824,2.9195,2.9012,2.8994,2.8796,2.8154,2.7915,2.7273,2.5823,2.5513,2.509,2.4281,2.419,2.419,2.419,2.419,2.4263,2.4447,2.4447,2.4814,2.5603,2.5678,2.5586,2.5403,2.5403,2.5017,2.419,2.419,2.419,2.419,2.4373,2.4447,4.3862,4.4323,4.3726,4.1207,3.744,3.3519,3.0201,0.0,0.0,2.3283,2.3741,2.4291,2.4291,2.4905,2.5428,0.0,0.0,2.6037,0.0,0.0,0.0,0.0,0.0,0.0,0.0,0.0,0.0,0.0,0.0,0.0,3.4689,3.4555,3.4112,3.3246,3.3138,3.3152,3.3231,3.3627,3.3862,3.3925,3.4759,3.4999,3.4753,3.5016,3.4981,3.4753,3.4753,0.0,0.0,3.4265,3.4093,3.3842,3.3842,3.3842,3.3842,3.3807,3.3815,3.3842,3.3807,3.3807,3.3807,3.3807,3.3807,3.3788,3.3815,3.3815,3.3807,3.3807,3.3807,3.3807,3.3807,3.3807,3.3807,3.3807,3.376,3.3732,3.3732,3.3051,3.218,3.1421,3.0632,2.9861,2.9122,2.8994,2.8957,2.8883,2.8264,2.7475,2.6612,2.5841,2.509,2.4281,2.419,2.419,2.419,2.419,2.4502,2.5256,2.5293,2.564,2.6465,2.6502,2.6153,2.5421,2.5403,2.5017,2.419,2.419,2.419,2.4208,2.4962,2.5293,4.0948,4.2174,4.2249,3.9147,3.5584,3.2056,2.9186,0.0,2.4276,2.4522,2.4807,2.5038,2.5083,2.5305,2.5507,0.0,0.0,0.0,0.0,0.0,0.0,0.0,0.0,0.0,0.0,0.0,0.0,0.0,0.0,0.0,3.3158,3.3308,3.2711,3.12,3.1096,3.1302,3.1832,3.202,3.2277,3.2599,3.3582,3.3941,3.3711,3.4508,3.4695,3.4401,3.4401,0.0,0.0,3.3961,3.3902,3.3807,3.3807,3.3807,3.3807,3.3807,3.3807,3.3807,3.3807,3.3807,3.3807,3.3807,3.3807,3.3807,3.3807,3.3807,3.3807,3.3807,3.3807,3.3807,3.3807,3.3807,3.3807,3.3807,3.3807,3.3807,3.3807,3.3183,3.2375,3.1549,3.0742,2.9953,2.9122,2.8994,2.8994,2.8994,2.8741,2.8227,2.742,2.7034,2.6539,2.5731,2.4777,2.419,2.419,2.463,2.5072,2.5384,2.5841,2.6484,2.7291,2.7328,2.7163,2.6833,2.6833,2.6447,2.564,2.564,2.564,2.5658,2.597,2.6117,3.7156,3.8695,3.9119,3.6229,3.3281,3.0533,0.0,0.0,2.4764,2.5434,2.5533,2.5506,2.556,2.553,2.5499,2.5499,0.0,2.5719,0.0,0.0,0.0,0.0,0.0,0.0,0.0,0.0,0.0,0.0,0.0,0.0,0.0,3.1957,3.1371,2.9814,2.9717,2.9996,3.0618,3.0791,3.107,3.1464,3.2685,3.3147,3.2906,3.4046,3.4379,3.4074,3.4074,0.0,0.0,3.3807,3.3807,3.3807,3.3807,3.3807,3.3807,3.3807,3.3807,3.3807,3.3807,3.3807,3.3807,3.3807,3.3807,3.3807,3.3807,3.3807,3.3807,3.3807,3.3807,3.3807,3.3807,3.3807,3.3807,3.3807,3.3807,3.3807,3.3807,3.3183,3.2375,3.1549,3.0742,2.9953,2.9122,2.8994,2.8994,2.8994,2.8994,2.8723,2.7897,2.7787,2.7493,2.6686,2.5585,2.4905,2.4905,2.5419,2.5841,2.6101,2.6631,2.7328,2.8117,2.8154,2.8044,2.7787,2.7787,2.7402,2.6612,2.6612,2.6612,2.6612,2.6851,2.709,3.2703,3.3805,3.4078,3.2385,3.0621,2.8897,0.0,0.0,2.5485,2.55,2.5493,2.5504,2.5495,2.5505,2.5505,2.5505,2.5505,0.0,0.0,0.0,0.0,0.0,0.0,0.0,0.0,0.0,0.0,0.0,0.0,0.0,0.0,3.0609,3.0337,2.9715,2.9696,2.9696,2.9696,3.0317,3.0602,3.0621,3.2244,3.2863,3.2632,3.3722,3.4068,0.0,0.0,0.0,0.0,3.3807,3.3807,3.3807,3.3807,3.3807,3.3807,3.3807,3.3807,3.3807,3.3807,3.3807,3.3807,3.3807,3.3807,3.3807,3.3807,3.3807,3.3807,3.3807,3.3807,3.3807,3.3807,3.3807,3.3807,3.3807,3.3807,3.3807,3.3807,3.3183,3.2375,3.1549,3.0742,2.9953,2.9122,2.8994,2.8994,2.8994,2.8994,2.8723,2.7897,2.7787,2.7493,2.6686,2.6594,2.6594,2.6594,2.6594,2.6924,2.7714,2.7769,2.8154,2.8938,2.8975,2.8613,2.7824,2.7787,2.7402,2.6612,2.6612,2.6612,2.6631,2.742,2.8209,2.8789,2.9961,3.064,2.8901,2.716,2.5584,2.4454,0.0,2.3966,2.4551,2.5092,2.5423,2.5418,2.528,2.5157,2.5157,2.5082,0.0,0.0,0.0,0.0,0.0,0.0,0.0,0.0,0.0,0.0,0.0,0.0,0.0,0.0,2.906,2.8907,2.9206,2.9228,2.9228,2.9228,2.9418,2.9521,2.954,3.1125,3.1851,3.1825,3.2994,3.3625,0.0,0.0,0.0,0.0,3.3494,3.339,3.339,3.339,3.339,3.3419,3.3707,3.3807,3.3807,3.3807,3.3807,3.3807,3.3807,3.3807,3.3807,3.3807,3.3807,3.3807,3.3807,3.3807,3.3807,3.3807,3.3807,3.3807,3.3807,3.3807,3.3807,3.3807,3.3605,3.3183,3.2394,3.1568,3.076,2.9971,2.9365,2.8994,2.8994,2.8994,2.8902,2.8668,2.8631,2.8521,2.8282,2.8223,2.7805,2.6704,2.7108,2.753,2.7769,2.8319,2.8741,2.8975,2.8994,2.8865,2.8631,2.8631,2.8503,2.8223,2.8223,2.8223,2.8242,2.8503,2.8778,0.0,2.5995,2.678,2.5701,2.462,0.0,0.0,0.0,2.3602,2.412,2.4763,2.5261,2.5261,2.508,2.4911,2.4911,2.4855,0.0,0.0,0.0,0.0,0.0,0.0,0.0,0.0,0.0,0.0,0.0,0.0,0.0,0.0,2.8174,2.812,2.8576,2.8601,2.8601,2.8601,2.8601,2.8601,2.8601,2.9914,3.0513,3.0567,3.2115,3.2925,0.0,0.0,0.0,0.0,3.3105,3.2952,3.2952,3.3154,3.3214,3.3243,3.3494,3.3578,3.3578,3.3578,3.3578,3.3606,3.3734,3.3807,3.3807,3.3807,3.3807,3.3807,3.3807,3.3807,3.3807,3.3807,3.3807,3.3807,3.3807,3.3807,3.3807,3.3807,3.3568,3.3201,3.2706,3.1953,3.1237,3.0742,3.0246,2.9806,2.9512,2.9457,2.9347,2.903,2.925,2.9347,2.9012,2.925,2.8925,2.7622,2.797,2.8246,2.8246,2.8723,2.8994,2.8994,2.8994,2.8994,2.8994,2.8994,2.8994,2.8994,2.8994,2.8994,2.8994,2.8994,2.8994,0.0,2.2181,0.0,0.0,0.0,0.0,0.0,0.0,0.0,2.3995,2.4517,2.4986,2.4986,2.4864,2.4775,2.4775,0.0,0.0,0.0,0.0,0.0,0.0,0.0,0.0,0.0,0.0,0.0,0.0,0.0,0.0,0.0,2.7829,2.7794,2.7794,2.7794,2.784,2.7897,2.795,2.795,2.7897,2.8758,2.9142,2.9189,3.1099,3.2011,0.0,0.0,0.0,0.0,3.2648,3.2451,3.2484,3.2952,3.3105,3.3105,3.3154,3.3154,3.3136,3.3184,3.3184,3.3214,3.3578,3.3734,3.3762,3.3762,3.378,3.3807,3.3807,3.3807,3.3807,3.3807,3.3807,3.3807,3.3807,3.3807,3.3807,3.3807,3.322,3.2706,3.2706,3.2045,3.1476,3.1476,3.1439,3.1146,3.0393,3.0283,3.0026,2.925,2.9824,3.0008,2.9255,2.9787,2.9898,2.914,2.9012,2.8994,2.8994,2.8994,2.8994,2.8994,2.8994,2.8994,2.8994,2.8994,2.8994,2.8994,2.8994,2.8994,2.8994,2.8994,2.8994,2.035,0.0,2.0918,2.0932,2.0924,2.0924,0.0,0.0,0.0,0.0,0.0,0.0,0.0,0.0,0.0,0.0,0.0,0.0,0.0,0.0,0.0,0.0,0.0,0.0,0.0,0.0,0.0,0.0,0.0,0.0,0.0,2.7279,2.7004,2.7004,2.7004,2.7272,2.7897,2.8452,2.8464,2.7915,2.9278,2.9644,2.9142,3.0434,3.1203,0.0,0.0,0.0,3.2616,3.2161,3.1951,3.2004,3.2092,3.2127,3.2161,3.2533,3.2648,3.2713,3.3093,3.2983,3.2681,3.2777,3.3045,3.3332,3.3332,3.355,3.3807,3.3807,3.3807,3.3807,3.3807,3.3807,3.3807,3.3807,3.3807,3.3807,3.3807,3.3642,3.3532,3.3532,3.2871,3.232,3.232,3.1806,3.1329,3.1146,3.1109,3.1035,3.0852,3.0999,3.1035,3.0852,3.0448,3.0118,2.9934,2.9342,2.8994,2.8994,2.8994,2.8994,2.8994,2.8994,2.8994,2.8994,2.8994,2.8994,2.8994,2.8994,2.8994,2.8994,2.8994,2.8994,1.9931,1.9982,2.0088,2.0143,2.0116,2.0088,2.0152,0.0,0.0,0.0,0.0,0.0,0.0,0.0,0.0,0.0,0.0,0.0,0.0,0.0,0.0,0.0,0.0,0.0,0.0,0.0,0.0,0.0,0.0,0.0,0.0,2.6911,2.6691,2.6691,2.6691,2.6906,2.7365,2.7764,2.7889,2.7855,2.8355,2.8546,2.8528,2.9692,3.0314,0.0,0.0,0.0,3.2127,3.1714,3.1528,3.1528,3.1733,3.1789,3.1825,3.2109,3.2161,3.2196,3.2466,3.2533,3.2484,3.2484,3.2681,3.2921,3.3136,3.3332,3.355,3.3734,3.3807,3.3807,3.3807,3.3807,3.3807,3.3807,3.3807,3.3807,3.3807,3.3807,3.3807,3.3807,3.3458,3.3146,3.3146,3.2797,3.2375,3.2008,3.1953,3.1825,3.1439,3.1715,3.1806,3.1439,3.1347,3.1146,3.0779,3.0356,2.9787,2.9049,2.8994,2.8994,2.8994,2.8994,2.8994,2.8994,2.8994,2.8994,2.8994,2.8994,2.8994,2.8994,2.8994,2.8994,1.9774,1.9844,1.9924,1.9962,1.9985,2.0013,2.0143,0.0,0.0,0.0,0.0,0.0,0.0,0.0,0.0,0.0,0.0,0.0,0.0,0.0,0.0,0.0,0.0,0.0,0.0,0.0,0.0,0.0,0.0,0.0,0.0,2.6387,2.6371,2.6455,2.6455,2.6506,2.6691,2.681,2.7131,2.7638,2.7114,2.7148,2.7672,2.8819,2.9332,2.9402,0.0,0.0,3.1541,3.13,3.119,3.123,3.1565,3.1733,3.1733,3.1733,3.1733,3.1733,3.1733,3.2004,3.2384,3.2316,3.235,3.2484,3.2872,3.3045,3.3166,3.3522,3.3634,3.3734,3.3762,3.3734,3.3734,3.3807,3.3807,3.3807,3.3807,3.3807,3.3807,3.3807,3.3807,3.3807,3.3807,3.3807,3.3568,3.2908,3.2797,3.254,3.1843,3.2357,3.2522,3.1843,3.2265,3.232,3.1641,3.1458,3.076,2.9292,2.931,2.9329,2.92,2.9067,2.8994,2.8994,2.8994,2.8994,2.8994,2.8994,2.8994,2.8994,2.9122,2.9153,1.9636,1.9996,2.0304,1.9924,2.033,2.0816,2.084,0.0,0.0,0.0,0.0,0.0,0.0,0.0,0.0,0.0,0.0,0.0,0.0,0.0,0.0,0.0,0.0,0.0,0.0,0.0,0.0,0.0,0.0,0.0,0.0,2.492,2.4775,2.5244,2.5261,2.5697,2.6691,2.7334,2.7385,2.6877,2.7402,2.7368,2.6894,2.7708,2.8082,2.8167,0.0,3.0374,3.0408,3.0976,3.119,3.119,3.1252,3.1291,3.1291,3.1291,3.1291,3.1291,3.1291,3.1582,3.1861,3.1524,3.164,3.1915,3.1986,3.2298,3.2616,3.2681,3.2983,3.3361,3.3707,3.355,3.3361,3.3707,3.3807,3.3807,3.3807,3.3807,3.3807,3.3807,3.3807,3.3807,3.3807,3.3807,3.3752,3.3623,3.3623,3.3568,3.344,3.3532,3.3568,3.344,3.2926,3.2559,3.243,3.1788,3.0999,3.0081,3.065,3.0723,3.0044,2.9365,2.8994,2.8994,2.8994,2.8994,2.8994,2.8994,2.8994,2.9012,2.9714,2.9819,1.9277,1.9799,2.0276,2.0018,2.0562,2.1074,2.0749,0.0,0.0,0.0,0.0,0.0,0.0,0.0,0.0,0.0,0.0,0.0,0.0,0.0,0.0,0.0,0.0,0.0,0.0,0.0,0.0,0.0,0.0,0.0,0.0,0.0,2.3781,2.4007,2.4641,2.5261,2.5782,2.6724,2.7249,2.73,2.7232,2.7249,2.7317,2.7672,2.7789,2.784,0.0,2.9736,3.0142,3.048,3.0835,3.119,3.119,3.119,3.119,3.119,3.119,3.119,3.119,3.1312,3.1449,3.1252,3.1329,3.1507,3.1716,3.1951,3.2161,3.2417,3.2648,3.2872,3.3057,3.2965,3.2872,3.3057,3.3087,3.3087,3.3087,3.3302,3.3494,3.3494,3.3652,3.3807,3.3807,3.3807,3.3807,3.3807,3.3807,3.3807,3.3807,3.3807,3.3807,3.3807,3.3476,3.3073,3.2651,3.2669,3.2155,3.0925,3.0797,3.0779,3.0852,3.0081,2.9659,2.9659,2.9237,2.8994,2.8994,2.8994,2.9237,2.9659,3.0026,3.0214,1.8914,1.9489,2.0063,1.995,0.0,2.1202,2.0862,0.0,0.0,0.0,0.0,0.0,0.0,0.0,0.0,0.0,0.0,0.0,0.0,0.0,0.0,0.0,0.0,0.0,0.0,0.0,0.0,0.0,0.0,0.0,0.0,0.0,2.2671,2.2777,2.3708,2.4441,2.4993,2.5866,2.6708,2.7554,2.6962,2.6996,2.7554,2.7554,2.7554,2.7604,2.8569,2.9313,2.9871,3.0226,3.0683,3.119,3.119,3.119,3.119,3.119,3.119,3.119,3.119,3.119,3.119,3.119,3.119,3.1269,3.1565,3.166,3.1733,3.2074,3.2196,3.2248,3.2451,3.2417,3.2366,3.2484,3.2484,3.2484,3.2484,3.289,3.3214,3.3214,3.3522,3.3807,3.3807,3.3807,3.3807,3.3807,3.3807,3.3807,3.3807,3.3807,3.3762,3.368,3.3652,3.3396,3.2793,3.3038,3.2871,3.2008,3.0687,3.0308,3.1221,3.0307,2.9868,3.007,2.9448,2.9088,2.8994,2.92,2.9557,3.007,3.0252,3.0486,1.8623,1.9209,1.9737,1.9425,2.0342,0.0,2.1803,2.1945,0.0,2.2982,0.0,0.0,0.0,0.0,0.0,0.0,0.0,0.0,0.0,0.0,0.0,0.0,0.0,0.0,0.0,0.0,0.0,0.0,0.0,0.0,0.0,0.0,0.0,2.1619,2.1702,2.2777,2.4993,2.5094,2.5681,2.6776,2.6725,2.6725,2.6776,2.6776,2.6776,2.686,2.8332,2.9008,2.9214,3.0548,3.114,3.119,3.119,3.119,3.119,3.119,3.119,3.119,3.119,3.119,3.119,3.119,3.119,3.119,3.123,3.1252,3.1269,3.1291,3.1291,3.1504,3.2282,3.2179,3.1951,3.2417,3.2484,3.2484,3.2484,3.289,3.3214,3.3214,3.3522,3.3807,3.3807,3.3807,3.3807,3.3807,3.3807,3.3807,3.3807,3.3807,3.3652,3.3273,3.3243,3.3225,3.3153,3.2192,3.2155,3.3532,3.0779,2.96,3.0784,2.934,2.8897,2.9629,2.9583,2.9384,2.8994,2.9751,2.9947,2.9665,3.0423,3.0688,1.8351,1.8892,1.9569,1.99,2.0714,0.0,0.0,2.1985,2.2315,2.2795,0.0,0.0,0.0,0.0,0.0,0.0,0.0,0.0,0.0,0.0,0.0,0.0,0.0,0.0,0.0,0.0,0.0,0.0,0.0,0.0,0.0,0.0,0.0,2.0375,2.1111,2.1933,2.2828,2.3926,2.4707,2.5163,2.6201,2.6691,2.6691,2.6691,2.6691,2.6759,2.7807,2.8535,2.9059,3.0091,3.0784,3.119,3.119,3.119,3.119,3.119,3.119,3.119,3.119,3.119,3.119,3.119,3.119,3.119,3.119,3.119,3.119,3.119,3.119,3.1269,3.16,3.1545,3.1487,3.1657,3.1694,3.1694,3.1694,3.2039,3.2433,3.2713,3.3136,3.3437,3.3437,3.3634,3.3707,3.3447,3.3634,3.3707,3.3465,3.3437,3.3273,3.2809,3.2317,3.2335,3.313,3.1588,3.1168,3.2591,3.1057,3.0767,3.2227,3.0521,3.0027,3.108,3.0098,2.9781,3.0132,3.0422,3.0594,3.0665,3.0968,3.122,1.7743,1.8376,1.9148,0.0,0.0,0.0,2.14,2.187,2.2349,2.2537,0.0,0.0,0.0,0.0,0.0,0.0,0.0,0.0,0.0,0.0,0.0,0.0,0.0,0.0,0.0,0.0,0.0,0.0,0.0,0.0,0.0,0.0,0.0,1.969,2.0508,2.1111,2.1506,2.2738,2.3638,2.42,2.5172,2.5915,2.647,2.6624,2.6826,2.7097,2.7858,2.8619,2.9397,3.0142,3.0734,3.119,3.119,3.119,3.119,3.119,3.119,3.119,3.119,3.119,3.119,3.119,3.119,3.119,3.119,3.136,3.1546,3.1546,3.1715,3.1833,3.1596,3.136,3.119,3.119,3.119,3.1258,3.1495,3.1661,3.1966,3.2529,3.2826,3.2983,3.2983,3.3196,3.3284,3.3014,3.3196,3.3284,3.3014,3.2983,3.2809,3.235,3.179,3.185,3.2898,3.144,3.1013,3.2306,3.1351,3.1235,3.2317,3.0627,3.0322,3.1751,3.0355,2.9991,3.08,3.0901,3.1008,3.1072,3.1072,3.1272,1.6789,1.7587,0.0,0.0,0.0,0.0,2.0926,2.1691,2.2282,0.0,0.0,0.0,0.0,0.0,0.0,0.0,0.0,0.0,0.0,0.0,0.0,0.0,0.0,0.0,0.0,0.0,0.0,0.0,0.0,0.0,0.0,0.0,0.0,1.969,1.969,2.0279,2.1455,2.147,2.2378,2.4147,2.3529,2.4197,2.6013,2.647,2.7097,2.7823,2.8653,2.9397,3.0159,3.0886,3.119,3.119,3.119,3.119,3.119,3.119,3.119,3.119,3.119,3.119,3.119,3.119,3.119,3.119,3.119,3.1698,3.2313,3.2313,3.2814,3.322,3.2459,3.1732,3.1207,3.119,3.119,3.1393,3.2121,3.2021,3.2014,3.2847,3.2722,3.2484,3.2484,3.2484,3.2484,3.2484,3.2484,3.2484,3.2484,3.2484,3.2316,3.1844,3.1771,3.1986,3.2451,3.1777,3.1845,3.31,3.156,3.0612,3.0612,2.9194,2.9321,3.1267,3.0189,2.9997,3.0818,3.1151,3.1038,3.0612,3.0612,3.0808,1.6789,0.0,0.0,0.0,0.0,0.0,0.0,2.1415,0.0,0.0,0.0,0.0,0.0,0.0,0.0,0.0,0.0,0.0,0.0,0.0,0.0,0.0,0.0,0.0,0.0,0.0,0.0,0.0,0.0,0.0,0.0,0.0,0.0,1.969,1.969,1.9888,2.0228,2.0712,2.1227,2.1743,2.2845,2.4062,2.5433,2.5469,2.5896,2.6626,2.8292,2.911,2.9414,3.0666,3.119,3.119,3.119,3.119,3.119,3.119,3.119,3.119,3.119,3.119,3.119,3.119,3.119,3.119,3.119,3.1343,3.1512,3.1512,3.2053,3.2442,3.1715,3.1732,3.1833,3.1309,3.119,3.1258,3.1461,3.1443,3.1538,3.2063,3.2089,3.1986,3.1986,3.2282,3.2384,3.2074,3.2282,3.2384,3.2057,3.175,3.1524,3.1389,3.1389,3.1545,3.1951,3.1543,3.1509,3.2178,3.1453,3.1127,3.1443,3.024,3.0261,3.162,3.0803,3.075,3.1478,3.1603,3.1424,3.1011,3.1011,3.107,1.6709,0.0,0.0,0.0,0.0,0.0,0.0,0.0,0.0,0.0,0.0,0.0,0.0,0.0,0.0,0.0,0.0,0.0,0.0,0.0,0.0,0.0,0.0,0.0,0.0,0.0,0.0,0.0,0.0,0.0,0.0,0.0,1.969,1.969,1.969,1.969,1.969,2.0094,2.0438,2.0722,2.1531,2.2669,2.4103,2.4987,2.5801,2.6561,2.8572,2.9431,2.9516,3.07,3.119,3.119,3.119,3.119,3.119,3.119,3.119,3.119,3.119,3.119,3.119,3.119,3.119,3.119,3.119,3.1393,3.163,3.163,3.2154,3.256,3.1816,3.1952,3.2171,3.1732,3.141,3.136,3.1952,3.1833,3.1732,3.1935,3.2012,3.1909,3.1617,3.1787,3.1878,3.1603,3.1806,3.1878,3.1603,3.1351,3.119,3.119,3.119,3.1351,3.1752,3.1449,3.1389,3.1789,3.1411,3.1329,3.1528,3.0615,3.064,3.1771,3.0919,3.0902,3.1789,3.1623,3.1449,3.119,3.119,3.119,1.6502,0.0,0.0,0.0,0.0,0.0,0.0,0.0,0.0,0.0,0.0,0.0,0.0,0.0,0.0,0.0,0.0,0.0,0.0,0.0,0.0,0.0,0.0,0.0,0.0,0.0,0.0,0.0,0.0,0.0,0.0,0.0,1.969,1.969,1.969,1.969,1.969,1.969,2.0004,2.0617,2.0049,2.0615,2.2231,2.4583,2.6204,2.7184,2.9017,2.9935,3.0159,3.0818,3.114,3.119,3.119,3.119,3.119,3.119,3.119,3.119,3.119,3.119,3.119,3.119,3.119,3.119,3.119,3.1698,3.2313,3.2205,3.278,3.322,3.2391,3.2263,3.2313,3.2313,3.1782,3.1647,3.2933,3.273,3.2256,3.2188,3.2188,3.1968,3.1309,3.119,3.119,3.119,3.119,3.119,3.119,3.119,3.119,3.119,3.119,3.1351,3.1716,3.1411,3.1351,3.1716,3.1411,3.119,3.119,3.0565,3.0708,3.1716,3.0725,3.0708,3.1752,3.1389,3.119,3.119,3.119,3.119,0.0,1.73,0.0,0.0,0.0,0.0,0.0,0.0,0.0,0.0,0.0,0.0,0.0,0.0,0.0,0.0,0.0,0.0,0.0,0.0,0.0,0.0,0.0,0.0,0.0,0.0,0.0,0.0,0.0,0.0,0.0,0.0,1.969,1.969,1.969,1.969,1.969,1.969,1.9765,0.0,2.0303,2.067,2.1084,2.2512,2.4601,2.7118,2.7561,2.8641,3.0125,3.0277,3.0683,3.119,3.119,3.119,3.119,3.119,3.119,3.119,3.119,3.119,3.119,3.119,3.119,3.119,3.119,3.1698,3.2195,3.1596,3.2374,3.3102,3.1765,3.185,3.2313,3.2313,3.2195,3.1985,3.1732,3.1985,3.2121,3.1546,3.1427,3.1376,3.1224,3.119,3.119,3.119,3.119,3.119,3.119,3.119,3.119,3.119,3.119,3.123,3.1312,3.1252,3.123,3.1312,3.1269,3.119,3.119,3.1055,3.106,3.1312,3.1099,3.106,3.1312,3.1252,3.119,3.119,3.119,3.119,0.0,0.0,0.0,0.0,0.0,0.0,0.0,0.0,0.0,0.0,0.0,0.0,0.0,0.0,0.0,0.0,0.0,0.0,0.0,0.0,0.0,0.0,0.0,0.0,0.0,0.0,0.0,0.0,0.0,0.0,0.0,1.9169,1.9442,1.969,1.969,1.969,1.969,1.969,1.969,1.969,2.0049,2.0393,2.0737,2.1894,2.3761,2.6115,2.6478,2.7531,2.9042,2.9414,3.0006,3.0632,3.0277,3.0565,3.1157,3.0801,3.0903,3.119,3.119,3.119,3.119,3.119,3.119,3.119,3.119,3.1461,3.1681,3.1309,3.1749,3.2171,3.1393,3.1478,3.1749,3.1749,3.1749,3.1749,3.1715,3.2019,3.207,3.1326,3.1478,3.1596,3.1258,3.119,3.119,3.119,3.119,3.119,3.119,3.119,3.119,3.119,3.119,3.119,3.119,3.119,3.119,3.119,3.119,3.119,3.119,3.119,3.119,3.119,3.119,3.119,3.119,3.119,3.119,3.119,3.119,3.119,0.0,0.0,0.0,0.0,0.0,0.0,0.0,0.0,0.0,0.0,0.0,0.0,0.0,0.0,0.0,0.0,0.0,0.0,0.0,0.0,0.0,0.0,0.0,0.0,0.0,0.0,0.0,0.0,0.0,0.0,1.8727,1.8855,1.9169,1.969,1.969,1.969,1.969,1.969,1.969,1.969,1.969,1.9989,2.0557,2.1491,2.3016,2.4888,2.5497,2.6526,2.784,2.8518,2.9228,2.9871,2.9364,2.9922,3.0954,3.048,3.0683,3.119,3.119,3.119,3.119,3.119,3.119,3.119,3.119,3.1275,3.136,3.1241,3.1275,3.136,3.1224,3.119,3.119,3.119,3.119,3.136,3.1968,3.2188,3.207,3.1326,3.1681,3.1901,3.1309,3.119,3.119,3.119,3.119,3.119,3.119,3.119,3.119,3.119,3.119,3.119,3.119,3.119,3.119,3.119,3.119,3.119,3.119,3.119,3.119,3.119,3.119,3.119,3.119,3.119,3.119,3.119,3.119,3.119,0.0,0.0,0.0,0.0,0.0,0.0,0.0,0.0,0.0,0.0,0.0,0.0,0.0,0.0,0.0,0.0,0.0,0.0,0.0,0.0,0.0,0.0,0.0,0.0,0.0,0.0,0.0,0.0,0.0,0.0,1.8185,1.865,1.9169,1.969,1.969,1.969,1.969,1.969,1.969,1.969,1.969,1.9735,1.9824,1.9972,2.1631,2.4325,2.4422,2.5743,2.7789,2.7943,2.8433,2.9194,2.9736,3.0074,3.0311,3.0852,3.1106,3.119,3.119,3.119,3.119,3.119,3.119,3.119,3.119,3.163,3.2002,3.1376,3.1647,3.1985,3.136,3.119,3.119,3.119,3.119,3.1224,3.1326,3.1833,3.207,3.1326,3.1275,3.1309,3.1207,3.119,3.119,3.119,3.119,3.119,3.119,3.119,3.119,3.119,3.119,3.119,3.119,3.119,3.119,3.119,3.119,3.119,3.119,3.119,3.119,3.119,3.119,3.119,3.119,3.119,3.119,3.119,3.119,3.119,0.0,0.0,0.0,0.0,0.0,0.0,0.0,0.0,0.0,0.0,0.0,0.0,0.0,0.0,0.0,0.0,0.0,0.0,0.0,0.0,0.0,0.0,0.0,0.0,0.0,0.0,0.0,0.0,0.0,1.7229,1.8066,1.8341,1.8855,1.969,1.969,1.969,1.969,1.969,1.969,1.969,1.969,1.969,1.969,1.969,2.0971,2.3191,2.2828,2.4252,2.6747,2.6382,2.7041,2.8332,2.823,2.8541,2.902,2.8937,2.8982,2.9057,2.9057,2.9057,2.9123,2.951,2.9642,2.9708,3.0077,3.0422,3.0603,3.029,3.0438,3.0688,3.0684,3.0699,3.0797,3.1112,3.119,3.119,3.119,3.1444,3.1579,3.1258,3.119,3.119,3.119,3.119,3.119,3.119,3.119,3.119,3.119,3.119,3.119,3.119,3.119,3.119,3.119,3.119,3.119,3.119,3.119,3.119,3.119,3.119,3.119,3.119,3.119,3.119,3.119,3.119,3.119,3.119,3.119,3.119,0.0,0.0,0.0,0.0,0.0,0.0,0.0,0.0,0.0,0.0,0.0,0.0,0.0,0.0,0.0,0.0,0.0,0.0,0.0,0.0,0.0,0.0,0.0,0.0,0.0,0.0,0.0,0.0,0.0,1.6909,1.7867,1.8027,1.8535,1.9479,1.9639,1.969,1.969,1.969,1.969,1.969,1.969,1.969,1.969,1.969,2.0524,2.1947,2.1652,2.3131,2.57,2.5225,2.5929,2.7311,2.6942,2.7175,2.7673,2.7289,2.729,2.7387,2.7387,2.7387,2.7483,2.7987,2.8276,2.8501,2.9002,2.9262,2.9406,2.9406,2.9406,2.9496,2.9935,3.0166,3.0435,3.0878,3.1095,3.119,3.119,3.119,3.119,3.119,3.119,3.119,3.119,3.119,3.119,3.119,3.119,3.119,3.119,3.119,3.119,3.119,3.119,3.119,3.119,3.119,3.119,3.119,3.119,3.119,3.119,3.119,3.119,3.119,3.119,3.119,3.119,3.119,3.119,3.119,3.119,3.119,0.0,0.0,0.0,0.0,0.0,0.0,0.0,0.0,0.0,0.0,0.0,0.0,0.0,0.0,0.0,0.0,0.0,0.0,0.0,0.0,0.0,0.0,0.0,0.0,0.0,0.0,0.0,0.0,0.0,1.6752,1.7312,1.7827,1.838,1.893,1.9442,1.969,1.969,1.969,1.969,1.969,1.969,1.969,1.969,1.969,2.0115,2.0828,2.1285,2.286,2.5059,2.501,2.5421,2.6165,2.6825,2.6804,2.6503,2.7154,2.7396,2.7387,2.7387,2.7387,2.7403,2.7435,2.7901,2.8405,2.8453,2.8906,2.9406,2.9406,2.9406,2.9406,2.9451,2.9848,3.0293,3.0335,3.0781,3.119,3.119,3.119,3.119,3.119,3.119,3.119,3.119,3.119,3.119,3.119,3.119,3.119,3.119,3.119,3.119,3.119,3.119,3.119,3.119,3.119,3.119,3.119,3.119,3.119,3.119,3.119,3.119,3.119,3.119,3.119,3.119,3.119,3.119,3.119,3.119,3.119,0.0,0.0,0.0,0.0,0.0,0.0,0.0,0.0,0.0,0.0,0.0,0.0,0.0,0.0,0.0,0.0,0.0,0.0,0.0,0.0,0.0,0.0,0.0,0.0,0.0,0.0,0.0,0.0,0.0,0.0,1.7271,1.7827,1.8341,1.8893,1.9406,1.969,1.969,1.969,1.969,1.969,1.969,1.969,1.969,1.969,1.9824,2.0049,2.0252,2.1476,2.3347,2.3347,2.3907,2.4924,2.56,2.5566,2.5105,2.5397,2.5269,2.4948,2.4948,2.5241,2.5582,2.5582,2.6335,2.7241,2.7241,2.7718,2.8255,2.8255,2.8255,2.8304,2.8732,2.8996,2.9316,3.0123,3.0477,3.074,3.1112,3.119,3.119,3.119,3.119,3.119,3.119,3.119,3.119,3.119,3.119,3.119,3.119,3.119,3.119,3.119,3.119,3.119,3.119,3.119,3.119,3.119,3.119,3.119,3.119,3.119,3.119,3.119,3.119,3.119,3.119,3.119,3.119,3.119,3.119,3.119,0.0,0.0,0.0,0.0,0.0,0.0,0.0,0.0,0.0,0.0,0.0,0.0,0.0,0.0,0.0,0.0,0.0,0.0,0.0,0.0,0.0,0.0,0.0,0.0,0.0,0.0,0.0,0.0,0.0,0.0,1.6993,1.7706,1.8419,1.9169,1.953,1.969,1.969,1.969,1.969,1.969,1.969,1.969,1.969,1.969,1.969,1.969,1.969,2.0618,2.2108,2.2108,2.2823,2.3988,2.4411,2.4429,2.4116,2.4116,2.3921,2.3625,2.3864,2.4088,2.4313,2.4507,2.536,2.6258,2.6258,2.6871,2.7565,2.7355,2.7445,2.7615,2.7817,2.815,2.8779,3.0021,3.0293,3.0477,3.1055,3.119,3.119,3.119,3.119,3.119,3.119,3.119,3.1106,3.0869,3.0835,3.0835,3.0835,3.0835,3.092,3.1173,3.119,3.119,3.119,3.119,3.119,3.119,3.119,3.119,3.119,3.119,3.119,3.119,3.119,3.119,3.119,3.119,3.119,3.119,3.119,3.119,0.0,0.0,0.0,0.0,0.0,0.0,0.0,0.0,0.0,0.0,0.0,0.0,0.0,0.0,0.0,0.0,0.0,0.0,0.0,0.0,0.0,0.0,0.0,0.0,0.0,0.0,0.0,0.0,0.0,1.6522,1.6522,1.7544,1.8612,1.969,1.969,1.969,1.969,1.969,1.969,1.969,1.969,1.969,1.969,1.969,1.969,1.969,1.969,2.0375,2.1455,2.147,2.2195,2.332,2.3351,2.3478,2.358,2.3595,2.3595,2.3684,2.4313,2.4178,2.3729,2.4388,2.5061,2.5615,2.5585,2.6497,2.741,2.6767,2.7066,2.7475,2.6752,2.7524,2.8748,2.9946,3.0218,3.0402,3.1015,3.1151,3.119,3.119,3.119,3.119,3.119,3.119,3.0954,3.0226,3.0108,3.0108,3.0108,3.0108,3.0378,3.1123,3.119,3.119,3.119,3.119,3.119,3.119,3.119,3.119,3.119,3.119,3.119,3.119,3.119,3.119,3.119,3.119,3.119,3.119,3.119,3.119,1.0312,0.0,0.0,0.0,0.0,0.0,0.0,0.0,0.0,0.0,0.0,0.0,0.0,0.0,0.0,0.0,0.0,0.0,0.0,0.0,0.0,0.0,0.0,0.0,0.0,0.0,0.0,0.0,1.6522,1.668,1.7076,1.8106,1.9006,1.969,1.969,1.969,1.969,1.969,1.969,1.969,1.969,1.969,1.969,1.969,1.969,1.969,1.969,1.9903,2.0243,2.0721,2.1129,2.1553,2.2506,2.2923,2.2981,2.343,2.3595,2.3625,2.3819,2.4088,2.4298,2.3984,2.4672,2.5525,2.5046,2.5809,2.6826,2.6632,2.7066,2.7475,2.6752,2.6853,2.7311,2.8088,2.8268,2.8589,2.9648,3.0251,3.0699,3.1112,3.119,3.119,3.119,3.119,3.0954,3.0226,3.0108,3.0108,3.0108,3.0108,3.0378,3.1123,3.119,3.119,3.119,3.119,3.119,3.119,3.119,3.119,3.119,3.119,3.119,3.119,3.119,3.119,3.119,3.119,3.119,3.119,3.119,3.119,0.0,0.0,0.0,0.0,0.0,0.0,1.0625,1.1025,0.0,0.0,0.0,0.0,0.0,0.0,0.0,0.0,0.0,0.0,0.0,0.0,0.0,0.0,0.0,0.0,0.0,0.0,0.0,1.6522,1.6522,1.6837,1.7585,1.8458,1.9169,1.969,1.969,1.969,1.969,1.969,1.969,1.969,1.969,1.969,1.969,1.969,1.969,1.969,1.969,1.969,1.972,2.0124,2.0453,2.0797,2.156,2.2203,2.2727,2.3071,2.337,2.364,2.3924,2.4103,2.4178,2.4059,2.4567,2.5136,2.4701,2.5555,2.6482,2.5929,2.6243,2.6722,2.6617,2.6587,2.6766,2.7365,2.7286,2.7514,2.9048,2.942,2.9707,3.0623,3.0763,3.0734,3.0734,3.048,3.0006,2.9279,2.9431,2.9634,2.9634,2.9634,3.004,3.1089,3.092,3.0869,3.1173,3.119,3.119,3.119,3.119,3.119,3.119,3.119,3.119,3.119,3.119,3.1072,3.0838,3.1072,3.119,3.119,3.119,3.119,0.0,0.0,0.0,0.0,0.0,0.0,1.0547,1.0459,1.0878,0.0,0.0,0.0,0.0,0.0,0.0,0.0,0.0,0.0,0.0,0.0,0.0,0.0,0.0,0.0,0.0,1.6522,1.6522,1.6522,1.6595,1.7105,1.8145,1.8688,1.9207,1.969,1.969,1.969,1.969,1.969,1.969,1.969,1.969,1.969,1.969,1.969,1.969,1.969,1.969,1.969,1.969,1.969,2.0049,2.0617,2.0677,2.1425,2.2473,2.2547,2.2921,2.349,2.4178,2.4014,2.361,2.4298,2.4462,2.4462,2.4462,2.5375,2.6153,2.5136,2.527,2.5839,2.6348,2.6542,2.6702,2.718,2.6839,2.6896,2.8788,2.8585,2.8434,2.9814,3.0039,2.9989,2.9989,2.9431,2.8755,2.8061,2.8535,2.9008,2.9093,2.9025,2.9516,3.092,3.0497,3.0378,3.1021,3.114,3.119,3.119,3.119,3.119,3.119,3.119,3.119,3.119,3.119,3.0878,3.0293,3.0838,3.1095,3.1095,3.1095,3.1151,0.0,0.0,0.0,0.0,0.0,0.0,1.1371,1.1408,1.0909,0.0,0.0,0.0,0.0,0.0,0.0,0.0,0.0,0.0,0.0,0.0,0.0,0.0,0.0,0.0,0.0,1.6522,1.6522,1.6522,1.7312,1.8066,1.8688,1.9244,1.9603,1.969,1.969,1.969,1.969,1.969,1.969,1.969,1.969,1.969,1.969,1.969,1.969,1.969,1.969,1.969,1.969,1.969,1.9765,1.9944,2.0498,2.0872,2.1156,2.1695,2.1964,2.2158,2.2832,2.2966,2.2966,2.3595,2.3804,2.3804,2.3804,2.4358,2.5181,2.5974,2.6303,2.6303,2.5899,2.6198,2.6501,2.6056,2.5861,2.618,2.7655,2.7365,2.7194,2.8469,2.8963,2.9194,2.9194,2.9076,2.896,2.8772,2.889,2.9194,2.9803,2.9364,2.933,3.0226,3.0192,3.0176,3.0311,3.0852,3.119,3.119,3.119,3.119,3.119,3.119,3.119,3.119,3.119,3.0878,3.0293,3.0435,3.0477,3.0477,3.0477,3.074,0.0,0.0,0.0,1.2263,0.0,0.0,0.0,1.1591,1.0631,0.0,0.0,0.0,0.0,0.0,0.0,0.0,0.0,0.0,0.0,0.0,0.0,0.0,0.0,0.0,0.0,1.6522,1.6522,1.6522,1.7504,1.8224,1.8496,1.9244,1.969,1.969,1.969,1.969,1.969,1.969,1.969,1.969,1.969,1.969,1.969,1.969,1.969,1.969,1.969,1.969,1.969,1.969,1.969,1.972,2.0064,2.0423,2.0752,2.1081,2.141,2.1739,2.2069,2.2188,2.2293,2.2936,2.3131,2.3191,2.3505,2.3834,2.4388,2.5719,2.5869,2.554,2.5211,2.536,2.5525,2.5196,2.5121,2.548,2.6797,2.6489,2.6228,2.7177,2.7713,2.8129,2.8364,2.8399,2.8399,2.8399,2.9059,2.9685,3.0057,2.9448,2.9262,3.0023,2.9431,2.9279,3.004,3.0446,3.0818,3.1173,3.119,3.119,3.119,3.0918,3.0617,3.0293,3.0293,2.9995,2.9406,2.9406,2.954,2.9848,2.9848,3.0021,0.0,0.0,0.0,0.0,0.0,1.2422,0.0,0.0,0.0,0.0,0.0,0.0,0.0,0.0,0.0,0.0,0.0,0.0,0.0,0.0,0.0,0.0,0.0,0.0,0.0,1.6532,1.6637,1.6637,1.7666,1.8263,1.8263,1.9169,1.969,1.969,1.969,1.969,1.969,1.969,1.969,1.969,1.969,1.969,1.969,1.969,1.969,1.969,1.969,1.969,1.969,1.969,1.969,1.969,1.969,2.0034,2.0513,2.0513,2.0857,2.1321,2.1455,2.1515,2.162,2.2278,2.2577,2.2787,2.3415,2.3595,2.3849,2.5076,2.5031,2.4582,2.4582,2.4686,2.4746,2.4612,2.4686,2.5106,2.6168,2.5819,2.5456,2.6083,2.6404,2.6808,2.7526,2.7872,2.8095,2.8212,2.9313,3.0108,3.0108,2.9448,2.9211,2.982,2.8653,2.8397,2.9989,3.0108,3.0412,3.114,3.119,3.1151,3.1015,3.0435,2.9892,2.9406,2.9262,2.8946,2.8511,2.8372,2.8638,2.9225,2.9225,2.9271,0.0,0.0,0.0,0.0,1.2842,0.0,0.0,0.0,0.0,0.0,0.0,0.0,0.0,0.0,0.0,0.0,0.0,0.0,0.0,0.0,0.0,0.0,0.0,0.0,0.0,0.0,1.7188,1.7188,1.8224,1.8817,1.8817,1.9369,1.969,1.969,1.969,1.969,1.969,1.969,1.969,1.969,1.969,1.969,1.969,1.969,1.969,1.969,1.969,1.969,1.969,1.969,1.969,1.969,1.969,1.9735,1.9794,1.9794,1.9854,2.0004,2.0617,2.0827,2.0932,2.1605,2.2203,2.2787,2.3415,2.3595,2.3759,2.4522,2.4642,2.4582,2.4582,2.5061,2.536,2.4716,2.5076,2.554,2.5689,2.5182,2.4851,2.5395,2.5077,2.5211,2.6895,2.8129,2.9076,2.9753,3.0006,3.0108,3.0108,2.9448,2.9008,2.9146,2.8332,2.8397,2.9989,3.0108,3.0412,3.114,3.119,3.0975,3.0435,2.9805,2.9451,2.9406,2.881,2.85,2.8511,2.7922,2.7938,2.8606,2.8606,2.8873,0.0,0.0,0.0,0.0,0.0,0.0,1.2646,0.0,1.2083,0.0,0.0,0.0,0.0,0.0,0.0,0.0,0.0,0.0,0.0,0.0,0.0,0.0,0.0,0.0,0.0,0.0,0.0,0.0,1.8458,1.8855,1.8727,1.9369,1.969,1.969,1.969,1.969,1.969,1.969,1.969,1.969,1.969,1.969,1.969,1.969,1.969,1.969,1.969,1.969,1.969,1.969,1.969,1.969,1.969,1.969,1.969,1.969,1.969,1.9735,2.0019,2.0124,2.0288,2.135,2.2383,2.3266,2.352,2.3595,2.3655,2.3954,2.4029,2.4029,2.4029,2.4238,2.4373,2.4103,2.4552,2.5046,2.5046,2.4776,2.4672,2.4865,2.4998,2.5404,2.6554,2.747,2.7968,2.7909,2.8853,2.9449,2.907,2.8609,2.8298,2.8298,2.7358,2.7197,2.8265,2.8732,2.9137,2.9438,2.9454,2.9222,2.8722,2.8426,2.8107,2.7766,2.7859,2.7779,2.7415,2.7522,2.7704,2.8008,2.8008,2.8125,1.1972,0.0,0.0,0.0,0.0,0.0,0.0,0.0,0.0,0.0,0.0,0.0,0.0,0.0,0.0,0.0,0.0,0.0,0.0,0.0,0.0,0.0,0.0,0.0,0.0,0.0,0.0,1.7329,1.8233,1.8722,1.8598,1.9281,1.969,1.969,1.969,1.969,1.969,1.969,1.969,1.969,1.969,1.969,1.969,1.969,1.969,1.969,1.969,1.969,1.969,1.953,1.9566,1.969,1.953,1.9479,1.9479,1.9479,1.9566,1.969,1.953,1.9566,1.9869,2.1051,2.2173,2.3116,2.3295,2.346,2.3595,2.3595,2.3595,2.3595,2.3595,2.3595,2.3595,2.3595,2.4118,2.4522,2.4388,2.4448,2.4522,2.4343,2.4709,2.5133,2.5626,2.6603,2.7288,2.7176,2.8021,2.8534,2.8027,2.7773,2.7595,2.7595,2.6623,2.6376,2.7316,2.7564,2.7787,2.7968,2.7825,2.7586,2.7238,2.7226,2.7069,2.6587,2.7066,2.7156,2.6856,2.7156,2.7395,2.7625,2.7625,2.7625,0.0,0.0,0.0,1.2881,0.0,0.0,0.0,0.0,1.2744,0.0,0.0,0.0,0.0,0.0,0.0,0.0,0.0,0.0,0.0,0.0,0.0,0.0,0.0,0.0,0.0,0.0,0.0,1.5537,1.7311,1.8484,1.8608,1.9281,1.969,1.969,1.969,1.969,1.969,1.969,1.969,1.969,1.969,1.969,1.969,1.969,1.969,1.969,1.969,1.969,1.9639,1.9132,1.9244,1.9639,1.9132,1.893,1.893,1.893,1.9244,1.9639,1.9132,1.9281,1.9794,2.0513,2.1201,2.1874,2.2517,2.3131,2.3595,2.3595,2.3595,2.3595,2.3595,2.3595,2.3595,2.3595,2.4118,2.4403,2.3774,2.4163,2.4388,2.3759,2.364,2.3683,2.3698,2.5748,2.7811,2.9102,2.8244,2.7419,2.7336,2.7222,2.7102,2.7102,2.6442,2.659,2.8048,2.7071,2.668,2.7396,2.6898,2.6539,2.651,2.6593,2.6636,2.6587,2.6617,2.6916,2.7595,2.6916,2.6946,2.7625,2.7625,2.7625,0.0,0.0,1.2178,1.2178,0.0,0.0,0.0,0.0,0.0,0.0,0.0,0.0,0.0,0.0,0.0,0.0,0.0,0.0,0.0,0.0,0.0,0.0,0.0,0.0,0.0,0.0,0.0,1.5759,1.5184,1.4272,1.2921,1.7183,1.969,1.969,1.969,1.969,1.969,1.969,1.969,1.969,1.969,1.969,1.969,1.969,1.969,1.969,1.9332,1.9169,1.9132,1.8574,1.8496,1.865,1.8817,1.8893,1.8893,1.8893,1.8779,1.865,1.8855,1.9537,2.0408,2.0632,2.1156,2.1814,2.2488,2.2817,2.3071,2.349,2.3595,2.3595,2.3595,2.3595,2.3595,2.3595,2.3774,2.3879,2.3655,2.3789,2.3879,2.364,2.3595,2.3744,2.4208,2.4589,2.5029,2.549,2.587,2.5895,2.5425,2.5639,2.5859,2.5859,2.5288,2.5124,2.564,2.5305,2.5356,2.6089,2.5503,2.5133,2.5228,2.5258,2.5495,2.5929,2.6363,2.6692,2.6916,2.7141,2.74,2.7625,2.7625,2.7625,0.9961,1.0762,0.0,1.1814,1.2344,0.0,1.2881,0.0,0.0,0.0,0.0,0.0,0.0,0.0,0.0,0.0,0.0,0.0,0.0,1.3871,0.0,0.0,0.0,0.0,0.0,0.0,1.7076,1.6116,1.3923,1.2852,0.0,0.0,1.969,1.969,1.969,1.969,1.969,1.969,1.969,1.969,1.969,1.9603,1.9406,1.9406,1.9332,1.9132,1.8765,1.8612,1.8574,1.8027,1.7947,1.8145,1.8263,1.8458,1.8612,1.8612,1.8302,1.7907,1.8419,1.9257,2.0055,2.0055,2.0629,2.147,2.2128,2.2488,2.2862,2.3729,2.3789,2.3655,2.3894,2.3789,2.3595,2.3595,2.3595,2.3595,2.3595,2.3595,2.3595,2.3595,2.3595,2.3744,2.4178,2.3894,2.3759,2.4238,2.4576,2.467,2.4514,2.4748,2.491,2.491,2.4592,2.4307,2.4116,2.4116,2.43,2.4771,2.4403,2.4161,2.4238,2.4448,2.5046,2.5944,2.6378,2.6826,2.7305,2.7485,2.7625,2.7625,2.7625,2.7625]},{"header":{"parameterUnit":"m.s-1","parameterCategory":1,"la1":30.6,"la2":29.2853,"lo1":-89.7004,"lo2":-87.6739,"dy":0.0162,"dx":0.0183,"nx":112,"ny":82,"refTime":"2023-09-11T18:00:00:Z","depth":0,"parameterNumber":3,"parameterNumberName":"V-component_of_WINDS"},"data":[0.0,0.0,0.0,0.0,0.0,0.0,0.0,0.0,0.0,0.0,0.0,0.0,0.0,0.0,0.0,0.0,0.0,0.0,0.0,0.0,0.0,0.0,0.0,0.0,0.0,0.0,0.0,0.0,0.0,0.0,0.0,0.0,0.0,0.0,0.0,0.0,0.0,0.0,0.0,0.0,0.0,0.0,0.0,0.0,0.0,0.0,0.0,0.0,0.0,0.0,0.0,0.0,0.0,0.0,0.0,0.0,0.0,0.0,0.0,0.0,0.0,0.0,0.0,0.0,0.0,0.0,0.0,0.0,0.0,0.0,0.0,0.0,0.0,0.0,0.0,0.0,0.0,0.0,0.0,0.0,0.0,0.0,0.0,0.0,0.0,0.0,0.0,0.0,0.0,0.0,0.0,-0.3598,-0.4132,-0.3256,-0.0245,0.0,0.0788,0.259,0.0,0.0,0.0,0.0,0.0,0.0,0.0,0.0,0.0,0.0,0.0,0.0,0.0,0.0,0.0,0.0,0.0,0.0,0.0,0.0,0.0,0.0,0.0,0.0,0.0,0.0,0.0,0.0,0.0,0.0,0.0,0.0,0.0,0.0,0.0,0.0,0.0,0.0,0.0,0.0,0.0,0.0,0.0,0.0,0.0,0.0,0.0,0.0,0.0,0.0,0.0,0.0,0.0,0.0,0.0,0.0,0.0,0.0,0.0,0.0,0.0,0.0,0.0,0.0,0.0,0.0,0.0,0.0,0.0,0.0,0.0,0.0,0.0,0.0,0.0,0.0,0.0,0.0,0.0,0.0,0.0,0.0,0.0,0.0,0.0,0.0,0.0,0.0,0.0,0.0,0.0,0.0,0.0,0.0,0.0,0.0,0.0,0.0,0.0,0.0,0.0,0.0,0.0,0.0,-0.3023,-0.3522,-0.4158,-0.3271,-0.0237,0.0,0.0767,0.2585,0.0,0.0,0.0,0.0,0.0,0.0,0.0,0.0,0.0,0.0,0.0,0.0,0.0,0.0,0.0,0.0,0.0,0.0,0.0,0.0,0.0,0.0,0.0,0.0,0.0,0.0,0.0,0.0,0.0,0.0,0.0,0.0,0.0,0.0,0.0,0.0,0.0,0.0,0.0,0.0,0.0,0.0,0.0,0.0,0.0,0.0,0.0,0.0,0.0,0.0,0.0,0.0,0.0,0.0,0.0,0.0,0.0,0.0,0.0,0.0,0.0,0.0,0.0,0.0,0.0,0.0,0.0,0.0,0.0,0.0,0.0,0.0,0.0,0.0,0.0,0.0,0.0,0.0,0.0,0.0,0.0,0.0,0.0,0.0,0.0,0.0,0.0,0.0,0.0,0.0,0.0,0.0,0.0,0.0,0.0,0.0,0.0,0.0,0.0,0.0,0.0,0.0,0.0,-0.2623,-0.3034,-0.3999,-0.2863,-0.1473,-0.0118,0.0,0.0536,0.1849,0.2017,0.0,0.0,0.0,0.0,0.0,0.0,0.0,0.0,0.0,0.0,0.0,0.0,0.0,0.0,0.0,0.0,0.0,0.0,0.0,0.0,0.0,0.0,0.0,0.0,0.0,0.0,0.0,0.0,0.0,0.0,0.0,0.0,0.0,0.0,0.0,0.0,0.0,0.0,0.0,0.0,0.0,0.0,0.0,0.0,0.0,0.0,0.0,0.0,0.0,0.0,0.0,0.0,0.0,0.0,0.0,0.0,0.0,0.0,0.0,0.0,0.0,0.0,0.0,0.0,0.0,0.0,0.0,0.0,0.0,0.0,0.0,0.0,0.0,0.0,0.0,0.0,0.0,0.0,0.0,0.0,0.0,0.0,0.0,0.0,0.0,0.0,0.0,0.0,0.0,0.0,0.0,0.0,0.0,0.0,0.0,0.0,0.0,0.0,0.0,0.0,0.0,0.0,-0.2168,-0.3054,-0.3412,-0.1397,0.0,0.0,0.0,0.0381,0.1259,0.2254,0.0,0.0,0.0,0.0,0.0,0.0,0.0,0.0,0.0,0.0,0.0,0.0,0.0,0.0,0.0,0.0,0.0,0.0,0.0,0.0,0.0,0.0,0.0,0.0,0.0,0.0,0.0,0.0,0.0,0.0,0.0,0.0,0.0,0.0,0.0,0.0,0.0,0.0,0.0,0.0,0.0,0.0,0.0,0.0,0.0,0.0,0.0,0.0,0.0,0.0,0.0,0.0,0.0,0.0,0.0,0.0,0.0,0.0,0.0,0.0,0.0,0.0,0.0,0.0,0.0,0.0,0.0,0.0,0.0,0.0,0.0,0.0,0.0,0.0,0.0,0.0,0.0,0.0,0.0,0.0,0.0,0.0,0.0,0.0,0.0,0.0,0.0,0.0,0.0,0.0,0.0,0.0,0.0,0.0,0.0,0.0,0.0,0.0,0.0,0.0,0.0,0.0,-0.2121,-0.2711,-0.0559,-0.0112,0.0,0.0,0.0,0.035,0.1263,0.2408,0.0,0.0,0.0,0.0,0.0,0.0,0.0,0.0,0.0,0.0,0.0,0.0,0.0,0.0,0.0,0.0,0.0,0.0,0.0,0.0,0.0,0.0,0.0,0.0,0.0,0.0,0.0,0.0,0.0,0.0,0.0,0.0,0.0,0.0,0.0,0.0,0.0,0.0,0.0,0.0,0.0,0.0,0.0,0.0,0.0,0.0,0.0,0.0,0.0,0.0,0.0,0.0,0.0,0.0,0.0,0.0,0.0,0.0,0.0,0.0,0.0,0.0,0.0,0.0,0.0,0.0,0.0,0.0,0.0,0.0,0.0,0.0,0.0,0.0,0.0,0.0,0.0,0.0,0.0,0.0,0.0,0.0,0.0,0.0,0.0,0.0,0.0,0.0,0.0,0.0,0.0,0.0,0.0,0.0,0.0,0.0,0.0,0.0,0.0,0.0,0.0,0.0,0.0151,-0.0987,0.0,0.0,0.0,0.0,0.0,0.0371,0.1253,0.0,0.0,0.0,0.0,0.0,0.0,0.0,0.0,0.0,0.0,0.0,0.0,0.0,0.0,0.0,0.0,0.0,0.0,0.0,0.0,0.0,0.0,0.0,0.0,0.0,0.0,0.0,0.0,0.0,0.0,0.0,0.0,0.0,0.0,0.0,0.0,0.0,0.0,0.0,0.0,0.0,0.0,0.0,0.0,0.0,0.0,0.0,0.0,0.0,0.0,0.0,0.0,0.0,0.0,0.0,0.0,0.0,0.0,0.0,0.0,0.0,0.0,0.0,0.0,0.0,0.0,0.0,0.0,0.0,0.0,0.0,0.0,0.0,0.0,0.0,0.0,0.0,0.0,0.0,0.0,0.0,0.0,0.0,0.0,0.0,0.0,0.0,0.0,0.0,0.0,0.0,0.0,0.0,0.0,0.0,0.0,0.0,0.0,0.0,0.0,0.0,0.0,0.2459,0.101,0.0,0.0,0.0,0.0,0.0,0.0,0.0263,0.0865,0.0,0.0,0.0,0.0,0.0,0.0,0.0,0.0,0.0,0.0,0.0,0.0,0.0,0.0,0.0,0.0,0.0,0.0,0.0,0.0,0.0,0.0,0.0,0.0,0.0,0.0,0.0,0.0,0.0,0.0,0.0,0.0,0.0,0.0,0.0,0.0,0.0,0.0,0.0,0.0,0.0,0.0,0.0,0.0,0.0,0.0,0.0,0.0,0.0,0.0,0.0,0.0,0.0,0.0,0.0,0.0,0.0,0.0,0.0,0.0,0.0,0.0,0.0,0.0,0.0,0.0,0.0,0.0,0.0,0.0,0.0,0.0,0.0,0.0,0.0,0.0,0.0,0.0,0.0,0.0,0.0,0.0,0.0,0.0,0.0,0.0,0.0,0.0,0.0,0.0,0.0,0.0,0.0,0.0,0.0,0.0,0.0,0.0,0.0,0.0,0.0,0.0,0.0301,0.0,0.0,0.0,0.0,0.0,0.0,0.0,0.0,0.0,0.0,0.0,0.0,0.0,0.0,0.0,0.0,0.0,0.0,0.0,0.0,0.0,0.0,0.0,0.0,0.0,0.0,0.0,0.0,0.0,0.0,0.0,0.0,0.0,0.0,0.0,0.0,0.0,0.0,0.0,0.0,0.0,0.0,0.0,0.0,0.0,0.0,0.0,0.0,0.0,0.0,0.0,0.0,0.0,0.0,0.0,0.0,0.0,0.0,0.0,0.0,0.0,0.0,0.0,0.0,0.0,0.0,0.0,0.0,0.0,0.0,0.0,0.0,0.0,0.0,0.0,0.0,0.0,0.0,0.0,0.0,0.0,0.0,0.0,0.0,0.0,0.0,0.0,0.0,0.0,0.0,0.0,0.0,0.0,0.0,0.0,0.0,0.0,0.0,0.0,0.0,0.0,0.0,0.0,0.0,0.0,0.0,0.0,0.0,0.0,0.0,0.0,0.0301,0.0,0.0,0.0,0.0,0.0,0.0,0.0,0.0,0.0,0.0,0.0,0.0,0.0,0.0,0.0,0.0,0.0,0.0,0.0,0.0,0.0,0.0,0.0,0.0,0.0,0.0,0.0,0.0,0.0,0.0,0.0,0.0,0.0,0.0,0.0,0.0,0.0,0.0,0.0,0.0,0.0,0.0,0.0,0.0,0.0,0.0,0.0,0.0,0.0,0.0,0.0,0.0,0.0,0.0,0.0,0.0,0.0,0.0,0.0,0.0,0.0,0.0,0.0,0.0,0.0,0.0,0.0,0.0,0.0,0.0,0.0,0.0,0.0,0.0,0.0,0.0,0.0,0.0,0.0,0.0,0.0,0.0,0.0,0.0,0.0,0.0,0.0,0.0,0.0,0.0,0.0,0.0,0.0,0.0,0.0,0.0,0.0,0.0,0.0,0.0,0.0,0.0,0.0,0.0,0.0,0.0,0.0,0.0,0.0,0.0,0.0,0.0197,0.0,0.0,0.0,0.0,0.0,0.0,0.0,0.0,0.0,0.0,0.0,0.0,0.0,0.0,0.0,0.0,0.0,0.0,0.0,0.0,0.0,0.0,0.0,0.0,0.0,0.0,0.0,0.0,0.0,0.0,0.0,0.0,0.0,0.0,0.0,0.0,0.0,0.0,0.0,0.0,0.0,0.0,0.0,0.0,0.0,0.0,0.0,0.0,0.0,0.0,0.0,0.0,0.0,0.0,0.0,0.0,0.0,0.0,0.0,0.0,0.0,0.0,0.0,0.0,0.0,0.0,0.0,0.0,0.0,0.0,0.0,0.0,0.0,0.0,0.0,0.0,0.0,0.0,0.0,0.0,0.0,0.0,0.0,0.0,0.0,0.0,0.0,0.0,0.0,0.0,0.0,0.0,0.0,0.0,0.0,0.0,0.0,0.0,0.0,0.0,0.0,0.0,0.0,0.0,0.0,0.0,0.0,0.0,0.0,0.0,0.0,0.0,0.0,0.0,0.0,0.0,0.0,0.0,0.0,0.0,0.0,0.0,0.0,0.0,0.0,0.0,0.0,0.0,0.0,0.0,0.0,0.0,0.0,0.0,0.0,0.0,0.0,0.0,0.0,0.0,0.0,0.0,0.0,0.0,0.0,0.0,0.0,0.0,0.0,0.0,0.0,0.0,0.0,0.0,0.0,0.0,0.0,0.0,0.0,0.0,0.0,0.0,0.0,0.0,0.0,0.0,0.0,0.0,0.0,0.0,0.0,0.0,0.0,0.0,0.0,0.0,0.0,0.0,0.0,0.0,0.0,-0.0278,0.0,0.0,0.0,0.0,0.0,0.0,0.0,0.0,0.0,0.0,0.0,0.0,0.0,0.0,0.0,0.0,0.0,0.0,0.0,0.0,0.0,0.0,0.0,0.0,0.0,0.0,0.0,0.0,0.0,0.0,0.0,0.0,0.0,0.0,0.0,0.0,0.0,0.0,0.0,0.0,0.0,0.0,0.0,0.0,0.0,0.0,0.0,0.0,0.0,0.0,0.0,0.0,0.0,0.0,0.0,0.0,0.0,0.0,0.0,0.0,0.0,0.0,0.0,0.0,0.0,0.0,0.0,0.0,0.0,0.0,0.0,0.0,0.0,0.0,0.0,0.0,0.0,0.0,0.0,0.0,0.0,0.0,0.0,0.0,0.0,0.0,0.0,0.0,0.0,0.0,0.0,0.0,0.0,0.0,0.0,0.0,0.0,0.0,0.0,0.0,0.0,0.0,0.0,0.0,0.0,0.0,0.0,0.0,0.0,0.0,0.0,0.0,-0.2174,0.0,0.0,0.0,0.0,0.0,0.0,0.0,0.0,0.0,0.0,0.0,0.0,0.0,0.0,0.0,0.0,0.0,0.0,0.0,0.0,0.0,0.0,0.0,0.0,0.0,0.0,0.0,0.0,0.0,0.0,0.0,0.0,0.0,0.0,0.0,0.0,0.0,0.0,0.0,0.0,0.0,0.0,0.0,0.0,0.0,0.0,0.0,0.0,0.0,0.0,0.0,0.0,0.0,0.0,0.0,0.0,0.0,0.0,0.0,0.0,0.0,0.0,0.0,0.0,0.0,0.0,0.0,0.0,0.0,0.0,0.0,0.0,0.0,0.0,0.0,0.0,0.0,0.0,0.0,0.0,0.0,0.0,0.0,0.0,0.0,0.0,0.0,0.0,0.0,0.0,0.0,0.0,0.0,0.0,0.0,0.0,0.0,0.0,0.0,0.0,0.0,0.0,0.0,0.0,-0.3928,-0.5214,-0.4921,-0.4921,-0.4969,-0.5046,-0.4735,-0.4551,-0.4287,-0.1789,0.0,0.0,0.0,0.0,0.0,0.0,0.0,0.0,0.0,0.0,0.0,0.0,0.0,0.0,0.0,0.0,0.0,0.0,0.0,0.0,0.0,0.0,0.0,0.0,-0.4484,-0.4138,0.0,0.0,0.0,0.0,0.0,0.0,0.0,0.0,0.0,0.0,0.0,0.0,0.0,0.0,0.0,0.0,0.0,0.0,0.0,0.0,0.0,0.0,0.0,0.0,0.0,0.0,0.0,0.0,0.0,0.0,0.0,0.0,0.0,0.0,0.0,0.0,0.0,0.0,0.0,0.0,0.0,0.0,0.0,0.0,0.0,0.0,0.0,0.0,0.0,0.0,0.0,0.0,0.0,0.0,0.0,0.0,0.4787,0.4705,0.0,0.0,0.0,0.0,0.0,0.0,0.0,0.0,0.0,0.0,0.0,0.0,0.0,0.3145,0.4457,0.3184,0.0721,-0.2766,-0.4558,-0.5294,-0.5044,-0.5044,-0.504,-0.4921,-0.488,0.0,-0.4487,-0.4076,0.0,0.0,0.0,0.0,0.0,0.0,0.0,0.0,0.0,0.0,0.0,0.0,0.0,0.0,0.0,0.0,0.0,0.0,0.0,0.0,0.0,0.0,-0.4522,-0.4522,-0.4522,-0.4463,0.0,-0.4196,-0.4154,-0.3928,-0.285,0.0,0.0,0.0,0.0,0.0,0.0,0.0,0.0,0.0,0.0,0.0,0.0,0.0,0.0,0.0,0.0,0.0,0.0,0.0,0.0,-0.2024,0.0,0.0,0.0,0.0,0.0,0.0,0.0,0.0,0.0,0.0,0.0,0.0,0.0,0.0,0.0,0.0,0.0,0.0,0.0,0.0,0.0,0.0,0.0,0.0,0.0,0.0,0.0,0.0,0.0,0.464,0.4449,0.4494,0.3978,0.3874,0.0,0.0,0.0,0.0,0.0,0.0,0.0,0.0,0.0,0.4482,0.3839,0.3004,0.1985,0.1271,0.0203,-0.1371,-0.4472,-0.5755,-0.5466,-0.5393,-0.5308,-0.5162,-0.5077,-0.4937,-0.4803,-0.4581,-0.3696,-0.2454,0.0,0.0,0.0,0.0,-0.3863,-0.4629,-0.3915,-0.4086,0.0,-0.4555,0.0,0.0,0.0,0.0,0.0,0.0,0.0,0.0,0.0,0.0,-0.4525,-0.4519,-0.4519,-0.4519,-0.4519,-0.4525,-0.448,0.0,-0.3981,-0.3309,-0.2633,0.0,0.0,0.0,0.0,0.0,0.0,0.0,0.0,0.0,0.0,0.0,0.0,0.0,0.0,0.0,0.0,0.0,0.0,-0.2339,-0.3111,0.0,0.0,0.0,0.0,0.0,0.0,0.0,0.0,0.0,0.0,0.0,0.0,0.0,0.0,0.0,0.0,0.0,0.0,0.0,0.0,0.0,0.0,0.0,0.0,0.0,0.0,0.0,0.0,0.4001,0.4345,0.3934,0.3595,0.3682,0.0,0.0,0.0,0.0,0.0,0.0,0.4466,0.3439,0.2944,0.3306,0.3328,0.2279,0.0,0.0,0.0,-0.0072,-0.3173,-0.5114,-0.5867,-0.5782,-0.5603,-0.5413,-0.5298,-0.5203,-0.5048,-0.474,-0.4578,-0.4478,-0.3323,-0.2864,-0.2923,-0.2921,-0.379,-0.4959,-0.4828,-0.4797,-0.4762,-0.4584,0.0,-0.448,-0.449,0.0,0.0,0.0,0.0,-0.449,-0.4477,-0.4473,-0.4473,-0.4519,-0.4519,-0.4519,-0.4519,-0.4519,-0.4525,0.0,-0.449,-0.4389,-0.3993,0.0,0.0,0.0,0.0,0.0,0.0,0.0,0.0,0.0,0.0,0.0,0.0,0.0,0.0,0.0,0.0,-0.0261,-0.0897,-0.2337,-0.3286,-0.3609,0.0,0.0,0.0,0.0,0.0,0.0,0.0,0.0,0.0,0.0,0.0,0.0,0.0,0.0,0.0,0.0,0.0,0.0,0.0,0.0,0.0,0.0,0.0,0.0,0.0,0.0,0.0,0.0,0.0,0.2475,0.3561,0.0,0.0,0.0,0.0,0.2441,0.2328,0.2986,0.4428,0.4448,0.3135,0.028,0.0215,0.0147,0.0,0.0,0.0,-0.0,-0.0234,-0.2381,-0.6257,-0.6101,-0.5861,-0.5579,-0.5569,-0.5399,-0.5118,-0.4969,-0.4847,-0.4789,-0.4725,-0.4732,-0.4803,-0.4918,-0.4982,-0.505,-0.4914,-0.4813,-0.4694,-0.4691,-0.4596,-0.448,-0.448,-0.4432,0.0,0.0,-0.4425,-0.4477,-0.4522,-0.4519,-0.4519,-0.4519,-0.4519,-0.4519,-0.4519,-0.4525,-0.4477,0.0,-0.4473,-0.4027,-0.2567,0.0,-0.3314,-0.0447,0.0,0.0,0.0,0.0,0.0,0.0,0.0,0.0,0.0,0.0,0.0,0.0,0.0,-0.1031,-0.334,-0.242,-0.2415,-0.3598,-0.3462,0.0,0.0,0.0,0.0,0.0,0.0,0.0,0.0,0.0,0.0,0.0,0.0,0.0,0.0,0.0,0.0,0.0,0.0,0.0,0.0,0.0,0.0,0.0,0.0,0.0,0.0,0.0,0.0,0.2403,0.3572,0.0,0.3132,0.395,0.4277,0.3726,0.1877,0.1026,0.1591,0.1571,0.1095,0.0,0.0,0.0,0.0,0.0,0.0,0.0,0.0,-0.0772,-0.2335,-0.4987,-0.6025,-0.5665,-0.5498,-0.5386,-0.5274,-0.5226,-0.5094,-0.4864,-0.4864,-0.4867,-0.4931,-0.4928,-0.5047,-0.5123,-0.5057,-0.4958,-0.4806,-0.4609,-0.4567,-0.4525,-0.4525,-0.4538,-0.4602,-0.4497,-0.4538,-0.4592,-0.4543,-0.4519,-0.4519,-0.4519,-0.4519,-0.4519,-0.4519,-0.4522,-0.4522,-0.4519,-0.4484,-0.3987,-0.2456,-0.1846,-0.1233,-0.0168,0.0,0.0,0.0,0.0,0.0,0.0,0.0,0.0,0.0,0.0,0.0,0.0,-0.1437,-0.2702,-0.3567,-0.3185,-0.3176,-0.3588,-0.3588,-0.3404,0.0,0.0,0.0,0.0,0.0,0.0,0.0,0.0,0.0,0.0,0.0,0.0,0.0,0.0,0.0,0.0,0.0,0.0,0.0,0.0,0.0,0.0,0.0,0.0,0.0,0.0,0.4042,0.3395,0.3072,0.3015,0.2956,0.2993,0.298,0.298,0.1136,0.0,0.0,0.0,0.0,0.0,0.0,0.0,0.0,0.0,0.0,0.0,0.0,0.0,-0.0075,-0.287,-0.4525,-0.5105,-0.5362,-0.5487,-0.5428,-0.5428,-0.5247,-0.5067,-0.5067,-0.5067,-0.5067,-0.5067,-0.5128,-0.5196,-0.5094,-0.4962,-0.4799,-0.4545,-0.4519,-0.4519,-0.4519,-0.4587,-0.4592,-0.4546,-0.4535,-0.4589,-0.4543,-0.4556,-0.4538,-0.4538,-0.4538,-0.4538,-0.4538,-0.4556,-0.4519,-0.4519,-0.4484,-0.3987,-0.2456,-0.0949,0.0,0.0,0.0,0.0,0.0,0.0,0.0,0.0,0.0,0.0,0.0,0.0,-0.0359,-0.1168,-0.2702,-0.3612,-0.3602,-0.3588,-0.3602,-0.3649,-0.3983,-0.421,-0.4287,0.0,0.0,0.0,0.0,0.0,0.0,0.0,0.0,0.0,0.0,0.0,0.0,0.0,0.0,0.0,0.0,0.0,0.0,0.0,0.0,0.0,0.0,0.0,0.5159,0.4505,0.4375,0.5349,0.2288,0.1224,0.4067,0.1732,0.0,0.0,0.0,0.0,0.0,0.0,0.0,0.0,0.0,0.0,0.0,0.0,0.0,0.0,0.0,0.0,0.0,0.0,-0.1358,-0.3839,-0.5108,-0.5583,-0.5369,-0.5428,-0.5428,-0.5428,-0.5428,-0.5428,-0.5428,-0.5428,-0.5428,-0.5384,-0.5026,-0.4826,-0.4677,-0.4577,-0.4525,-0.4525,-0.4519,-0.4525,-0.4532,-0.4525,-0.4532,-0.4536,-0.4525,-0.4582,-0.4697,-0.4694,-0.4691,-0.4691,-0.4691,-0.4575,-0.4522,-0.4519,-0.4529,-0.403,-0.2512,-0.1004,0.0,0.0,0.0,0.0,0.0,0.0,0.0,0.0,0.0,0.0,0.0,-0.0046,-0.1124,-0.3433,-0.3615,-0.3605,-0.3581,-0.3581,-0.3646,-0.3788,-0.4781,-0.5374,-0.5599,0.0,0.0,0.0,0.0,0.0,0.0,0.0,0.0,0.0,0.0,0.0,0.0,0.0,0.0,0.0,0.0,0.0,0.0,0.0,0.0,0.0,0.0,0.5545,0.5545,0.595,0.6337,0.6641,0.4274,0.2246,0.1365,0.0475,0.0,0.0,0.0,0.0,0.0,0.0,0.0,0.0,0.0,0.0,0.0,0.0,0.0,0.0,0.0,0.0,0.0,0.0,-0.0427,-0.1217,-0.4216,-0.5484,-0.5388,-0.541,-0.5428,-0.5428,-0.5428,-0.5428,-0.5428,-0.5428,-0.5428,-0.5332,-0.5138,-0.5043,-0.4965,-0.4711,-0.4626,-0.4606,-0.4553,-0.4616,-0.4769,-0.466,-0.4782,-0.4897,-0.4684,-0.4741,-0.4826,-0.4718,-0.4691,-0.4691,-0.4691,-0.4657,-0.4596,-0.4539,-0.4555,-0.4485,-0.394,-0.1732,0.0,0.0,0.0,0.0,0.0,0.0,0.0,0.0,0.0,0.0,0.0,-0.1608,-0.2884,-0.3574,-0.3598,-0.3588,-0.3581,-0.3581,-0.3646,-0.3788,-0.4591,-0.5149,0.0,0.0,0.0,0.0,0.0,0.0,0.0,0.0,0.0,0.0,0.0,0.0,0.0,0.0,0.0,0.0,0.0,0.0,0.0,0.0,0.0,0.0,0.6071,0.6106,0.6384,0.6685,0.6971,0.7114,0.5897,0.4513,0.2943,0.1903,0.1296,0.1334,0.047,0.0,0.0,0.0,0.0,0.0,0.0,0.0,0.0,0.0,0.0,0.0,0.0,0.0,0.0,0.0,0.0,0.0,-0.3834,-0.5398,-0.5382,-0.5433,-0.5432,0.0,0.0,0.0,0.0,0.0,-0.5321,-0.525,-0.5162,-0.5091,-0.5013,-0.4843,-0.4785,-0.4769,-0.468,-0.4779,-0.4901,-0.4813,-0.4911,-0.5003,-0.483,-0.4897,-0.4986,-0.4897,-0.4874,-0.4874,-0.4874,-0.4779,-0.4663,-0.4575,-0.4579,0.0,-0.4501,-0.2512,-0.0726,-0.0112,0.0,0.0,0.0,0.0,0.0,0.0,-0.1127,-0.1886,-0.186,-0.2569,0.0,0.0,0.0,-0.3718,-0.367,-0.3731,0.0,0.0,0.0,-0.5636,-0.5737,0.0,0.0,0.0,-0.767,-0.745,0.0,0.0,0.0,0.0,0.0,0.0,0.0,0.0,0.0,0.0,0.0,0.0,0.0,0.0,0.0,0.0,0.6954,0.6895,0.7312,0.7027,0.6881,0.7074,0.7091,0.6977,0.68,0.4801,0.3465,0.3465,0.1727,0.0471,0.0,0.0,0.0,0.0,0.0,0.0,0.0,0.0,0.0,0.0,0.0,0.0,0.0,0.0,-0.0146,-0.051,-0.3777,-0.5151,-0.5123,-0.5329,-0.5386,-0.5428,-0.5428,-0.5428,-0.5428,-0.5428,-0.5274,-0.5155,-0.5155,0.0,0.0,-0.4948,-0.4945,-0.4942,-0.4925,-0.4928,-0.4945,-0.4945,-0.4955,-0.4965,-0.4948,-0.505,-0.5152,-0.5135,-0.5131,-0.5131,-0.5131,-0.4925,-0.4735,-0.4718,-0.4606,-0.4567,-0.4504,-0.3357,-0.1952,-0.0447,-0.0224,-0.0224,-0.0224,-0.0224,-0.0224,-0.0224,0.0,0.0,-0.4502,-0.3211,-0.2936,-0.4143,-0.4011,-0.3876,-0.3819,-0.3948,-0.4029,-0.4043,-0.5724,-0.6516,-0.6447,-0.8038,-0.8804,-0.8804,-0.8156,-0.783,0.0,0.0,0.0,0.0,0.0,0.0,0.0,0.0,0.0,0.0,0.0,0.0,0.0,0.0,0.0,0.6852,0.6946,0.7129,0.7343,0.7299,0.7265,0.7326,0.7224,0.7085,0.7015,0.6471,0.6011,0.5675,0.5331,0.3597,0.0157,0.0,0.0,0.0,0.0,0.0,0.0,0.0,0.0,0.0,0.0,0.0,0.0,0.0,-0.0884,-0.2555,-0.3216,-0.3391,-0.3309,-0.4905,-0.5474,-0.5428,-0.5428,-0.5428,-0.5428,-0.5428,-0.5342,-0.5318,-0.5318,-0.5301,-0.5254,-0.5131,-0.5091,-0.5067,-0.4955,-0.4999,0.0,-0.5091,-0.5179,-0.5247,-0.5121,-0.5203,-0.5284,-0.5162,-0.5131,-0.5131,-0.5131,-0.5087,-0.5009,-0.4897,-0.485,-0.4792,-0.467,-0.4323,-0.3519,-0.2007,-0.1785,-0.1786,-0.1786,-0.1786,-0.1786,-0.1786,-0.2277,-0.3123,-0.4389,-0.4079,-0.3907,-0.42,-0.4052,-0.3978,-0.3975,-0.4005,-0.4026,-0.415,-0.5657,-0.6487,-0.6577,-0.8072,-0.8804,-0.8804,-0.8646,-0.8593,0.0,0.0,0.0,0.0,0.0,0.0,0.0,0.0,0.0,0.0,0.0,0.9874,0.0,0.0,0.8447,0.808,0.7663,0.7397,0.7475,0.7421,0.7343,0.7265,0.7187,0.7058,0.6932,0.6824,0.6619,0.6331,0.6314,0.5401,0.3287,0.116,0.0,0.0,0.0,0.0,0.0,0.0,0.0,0.0,0.0,0.0,0.0,0.0,-0.1755,-0.4724,-0.4672,-0.4612,-0.4591,-0.5329,-0.5501,-0.5428,-0.5428,-0.5428,-0.5428,-0.5428,-0.5428,-0.5428,-0.5428,-0.5428,-0.5415,-0.527,-0.5247,-0.5233,-0.5162,-0.5189,-0.5247,-0.5247,-0.5301,-0.5411,-0.5267,-0.5304,-0.5342,-0.5264,-0.5247,-0.5247,-0.5247,-0.5186,-0.5087,-0.4948,-0.4918,-0.4847,-0.4616,-0.4582,-0.4329,-0.3471,-0.3355,-0.3357,-0.3357,-0.3357,-0.3357,-0.3357,-0.3352,-0.3663,-0.4436,-0.4422,-0.43,-0.4206,-0.4138,-0.4083,-0.4083,-0.4083,-0.4202,-0.4351,-0.5788,-0.6526,-0.6588,-0.8103,-0.8804,-0.8804,-0.8804,-0.8804,0.0,0.0,0.0,0.0,0.0,0.0,0.0,0.0,1.0361,1.0949,1.1352,1.1484,1.1379,1.0532,0.9765,0.9289,0.8321,0.758,0.7519,0.738,0.7217,0.7034,0.7061,0.6993,0.6725,0.6702,0.659,0.6322,0.6308,0.6305,0.6281,0.3056,0.0828,0.0,0.0,0.0,0.0,0.0,0.0,0.0,0.0,0.0,-0.0,-0.0864,-0.3069,-0.6335,-0.6242,-0.6221,-0.6159,-0.5782,-0.5501,-0.5428,-0.5428,-0.5428,-0.5428,-0.5428,-0.5428,-0.5428,-0.5428,-0.5428,-0.5428,-0.5428,-0.5428,-0.5428,-0.5428,-0.5428,-0.5428,-0.5428,-0.5428,-0.5428,-0.5428,-0.5428,-0.5428,-0.5428,-0.5428,-0.5428,-0.5428,-0.5264,-0.5142,-0.5026,-0.4982,-0.4874,-0.4599,-0.4653,-0.4677,-0.4504,-0.4484,-0.449,-0.449,-0.449,-0.449,-0.449,-0.448,-0.4477,-0.4477,-0.4522,-0.4412,-0.4244,-0.4237,-0.4237,-0.4237,-0.4237,-0.4395,-0.4677,-0.5932,-0.6696,-0.6804,-0.8156,-0.8804,-0.8804,-0.8804,-0.8804,1.0432,0.9774,0.0,1.0167,1.0214,1.0474,0.0,0.0,1.2184,1.2786,1.2441,1.2014,1.1846,1.0484,0.9293,0.9148,0.8225,0.7506,0.7231,0.7068,0.6871,0.658,0.6787,0.6888,0.6715,0.6702,0.663,0.6461,0.6451,0.64,0.6285,0.5667,0.3655,0.0146,0.0,0.0,0.0,0.0,0.0,0.0,0.0,0.0,-0.0157,-0.3864,-0.5858,-0.6322,-0.6135,-0.5969,-0.582,-0.5657,-0.5501,-0.5428,-0.5428,-0.5428,-0.5428,-0.5428,-0.5428,-0.5428,-0.5428,-0.5428,-0.5428,-0.5428,-0.5428,-0.5428,-0.5428,-0.5428,-0.5428,-0.5428,-0.5428,-0.5428,-0.5428,-0.5428,-0.5428,-0.5428,-0.5428,-0.5428,-0.5428,-0.5415,-0.5332,-0.5315,-0.5203,-0.5057,-0.4897,-0.488,-0.4796,-0.4563,-0.4522,-0.4522,-0.4522,-0.4522,-0.4522,-0.4522,-0.4522,-0.4519,-0.4519,-0.4519,-0.4512,-0.4494,-0.444,-0.444,-0.444,-0.444,-0.4769,-0.5378,-0.6204,-0.6912,-0.7563,-0.8374,-0.8804,-0.8804,-0.8804,-0.8804,1.0394,0.0,0.0,0.0,1.1229,1.1837,1.2654,1.2792,1.2953,1.3373,1.3489,1.3278,1.257,1.1368,1.0194,0.0,0.8238,0.7363,0.7058,0.6814,0.6549,0.6251,0.6176,0.6193,0.6298,0.623,0.6149,0.6088,0.6166,0.6152,0.6006,0.6022,0.5183,0.3339,0.1135,0.0,0.0,0.0,0.0,0.0,0.0,0.0,-0.0154,-0.4392,-0.6332,-0.6305,-0.622,-0.6088,-0.5922,-0.5776,-0.5627,-0.5488,-0.5396,-0.5428,-0.5428,-0.5428,-0.5428,-0.5428,-0.5428,-0.5428,-0.5428,-0.5428,-0.5428,-0.5428,-0.5428,-0.5428,-0.5428,-0.5428,-0.5428,-0.5428,-0.5428,-0.5428,-0.5428,-0.5428,-0.5428,-0.5428,-0.5428,-0.5428,-0.5335,-0.5243,-0.5247,-0.5192,-0.4958,-0.4989,-0.4969,-0.4758,-0.4653,-0.4596,-0.4596,-0.4573,-0.4519,-0.4519,-0.4519,-0.4519,-0.4519,-0.4519,-0.4519,-0.4519,-0.4519,-0.4519,-0.4519,-0.4897,-0.5218,-0.5487,-0.6632,-0.7396,-0.7723,-0.8427,-0.8804,-0.8804,-0.8804,-0.8804,1.0287,0.0,0.0,1.1396,1.2238,1.3039,1.32,1.3474,1.3734,1.3861,1.4162,1.3972,1.276,1.1581,1.0402,0.9152,0.796,0.7034,0.678,0.6481,0.6176,0.5881,0.5549,0.544,0.5698,0.5698,0.5698,0.5739,0.5844,0.5878,0.5803,0.5847,0.5856,0.5755,0.2982,0.1036,0.0,0.0,0.0,0.0,0.0,0.0,-0.0153,-0.3746,-0.5755,-0.6295,-0.6281,-0.6179,-0.602,-0.5911,-0.5755,-0.5579,-0.5467,-0.5423,-0.542,-0.5446,-0.5428,-0.5428,-0.5428,-0.5428,-0.5428,-0.5428,-0.5428,-0.5428,-0.5428,-0.5428,-0.5428,-0.5428,-0.5459,-0.5413,-0.5439,-0.5459,-0.5413,-0.5439,-0.5428,-0.5428,-0.5428,-0.5428,-0.5328,-0.5216,-0.5284,-0.5281,-0.5023,-0.5098,-0.5145,-0.4999,-0.4884,-0.4782,-0.4701,-0.4558,-0.4519,-0.4519,-0.4519,-0.4519,-0.4519,-0.4519,-0.4519,-0.4519,-0.4519,-0.457,-0.4787,-0.5218,-0.5706,-0.6086,-0.7176,-0.7777,-0.7996,-0.8533,-0.8804,-0.8804,-0.8804,-0.8804,0.0,0.0,1.1269,1.2479,1.316,1.3768,1.4335,1.4696,1.483,1.4549,1.4282,1.3662,1.2004,1.0684,0.9365,0.8227,0.7186,0.6447,0.6302,0.6017,0.5711,0.5483,0.4989,0.4779,0.0,0.5209,0.5437,0.5586,0.5599,0.5661,0.5793,0.5671,0.5676,0.5766,0.541,0.3569,0.0067,0.0,0.0,0.0,0.0,0.0,-0.0078,-0.2189,-0.4307,-0.6295,-0.6271,-0.6173,-0.603,-0.6023,-0.585,-0.5589,-0.5586,-0.5583,-0.5566,-0.5416,-0.5428,-0.5428,-0.5428,-0.5428,-0.5428,-0.5428,-0.5428,-0.5428,-0.5428,-0.5428,-0.5428,-0.5428,-0.5467,-0.5549,-0.5466,-0.5471,-0.5545,-0.5463,-0.5428,-0.5428,-0.5428,-0.5428,-0.5425,-0.5422,-0.5425,-0.5311,-0.5152,-0.525,-0.5304,-0.5145,-0.5121,-0.5013,-0.4728,-0.4558,-0.4519,-0.4519,-0.4519,-0.4519,-0.4519,-0.4519,-0.4519,-0.4519,-0.4519,-0.4787,-0.5433,-0.5483,-0.6195,-0.761,-0.767,-0.8049,-0.8752,-0.8804,-0.8804,-0.8804,-0.8804,-0.8804,1.1356,0.0,1.2939,1.3728,1.4369,1.4856,1.5057,1.503,1.4716,1.3834,1.3253,1.2381,1.0676,0.9487,0.8433,0.7647,0.6913,0.6315,0.6268,0.6084,0.5766,0.5267,0.4992,0.0,0.0,0.0,0.0,0.5267,0.5379,0.546,0.5508,0.5559,0.5552,0.5535,0.4259,0.3591,0.3604,0.1196,0.0,0.0,0.0,-0.1446,-0.4173,-0.3444,-0.4302,-0.6285,-0.6268,-0.623,-0.6176,-0.6071,-0.5973,-0.5871,-0.5769,-0.5674,-0.5596,-0.5637,-0.5593,-0.5498,-0.5463,-0.543,-0.5498,-0.5463,-0.543,-0.5494,-0.5459,-0.5428,-0.5428,-0.5428,-0.5466,-0.5426,-0.5442,-0.5399,-0.5423,-0.5439,-0.5428,-0.5428,-0.5428,-0.5428,-0.5428,-0.5428,-0.5428,-0.5411,-0.5291,-0.5328,-0.5411,-0.5291,-0.5118,-0.4918,-0.4718,-0.4558,-0.4519,-0.4519,-0.4519,-0.4519,-0.4519,-0.4893,-0.5164,-0.5164,-0.5605,-0.5987,-0.6204,-0.6686,-0.7176,-0.767,-0.8156,-0.854,-0.8804,-0.8804,-0.8804,-0.8804,-0.8804,-0.8804,1.2338,1.32,1.3968,1.4663,1.5117,1.5344,1.513,1.4696,1.4001,1.2819,1.186,1.071,0.9105,0.805,0.7213,0.6557,0.6316,0.6182,0.6077,0.6103,0.594,0.5332,0.5165,0.4979,0.0,0.0,0.0,0.5043,0.5243,0.5386,0.5376,0.5523,0.5567,0.5415,0.4294,0.3624,0.3486,0.1156,0.0,-0.0,-0.1516,-0.3643,-0.6247,-0.4865,-0.501,-0.6278,-0.6268,-0.6338,-0.6254,-0.6156,-0.6078,-0.602,-0.5922,-0.5827,-0.5752,-0.5786,-0.5779,-0.5718,-0.5515,-0.5508,-0.5566,-0.541,-0.5464,-0.5562,-0.5473,-0.5399,-0.5443,-0.5443,-0.5481,-0.5508,-0.5457,-0.5481,-0.5491,-0.5452,-0.5428,-0.5428,-0.5428,-0.5428,-0.5428,-0.5428,-0.5428,-0.5428,-0.5428,-0.5428,-0.5428,-0.5428,-0.5108,-0.4884,-0.4785,-0.4592,-0.4519,-0.4519,-0.4736,-0.4838,-0.4838,-0.5492,-0.5873,-0.5873,-0.6312,-0.6696,-0.6966,-0.7456,-0.783,-0.8103,-0.854,-0.8804,-0.8804,-0.8804,-0.8804,-0.8804,-0.8804,-0.8804,1.3039,1.3721,1.4376,1.5211,1.5404,1.5237,1.4616,1.3808,1.2832,1.152,1.02,0.8795,0.0,0.0,0.5764,0.5079,0.5662,0.6016,0.5693,0.6086,0.6179,0.0,0.0,0.0,0.0,0.0,0.0,0.4894,0.0,0.5366,0.5398,0.5467,0.5479,0.5422,0.5428,0.3657,0.0,0.0,-0.0074,-0.0379,-0.4363,-0.6329,-0.6325,-0.6295,-0.6278,-0.6278,-0.6268,-0.6338,-0.6338,-0.6338,-0.6249,-0.6115,-0.6115,-0.6112,-0.6084,-0.5947,-0.5911,-0.5989,-0.5779,-0.5682,-0.5586,-0.5433,-0.5488,-0.5586,-0.543,-0.5488,-0.5599,-0.5599,-0.5698,-0.5769,-0.5696,-0.5765,-0.5796,-0.5575,-0.5512,-0.5516,-0.5505,-0.5439,-0.5435,-0.5428,-0.5428,-0.5428,-0.5428,-0.5428,-0.5428,-0.5491,-0.5171,-0.4918,-0.4918,-0.4653,-0.4519,-0.4574,-0.5109,-0.5542,-0.5542,-0.6253,-0.6642,-0.6642,-0.6696,-0.702,-0.7723,-0.7777,-0.8103,-0.8804,-0.8804,-0.8804,-0.8804,-0.8804,-0.8804,-0.8804,-0.8804,-0.8804,1.4001,1.477,1.5438,1.5665,1.5558,1.5124,1.4102,1.3347,1.2264,0.9914,0.893,0.809,0.0,0.0,0.0,0.5785,0.5709,0.0,0.5705,0.6054,0.0,0.5623,0.0,0.5545,0.5115,0.5216,0.0,0.0,0.5067,0.5355,0.5701,0.4277,0.4077,0.5349,0.5374,0.368,0.0,0.0,-0.1546,-0.4688,-0.5752,-0.6315,-0.6291,-0.6281,-0.6274,-0.6264,-0.6264,-0.6338,-0.6338,-0.6338,-0.6692,-0.7331,-0.7331,-0.7246,-0.7138,-0.723,-0.6765,-0.6091,-0.681,-0.6492,-0.5891,-0.5739,-0.5793,-0.5888,-0.5735,-0.5718,-0.5745,-0.5745,-0.5772,-0.5908,-0.6441,-0.6728,-0.7012,-0.7527,-0.7245,-0.6761,-0.6703,-0.6071,-0.5498,-0.5452,-0.5428,-0.5428,-0.5428,-0.5428,-0.562,-0.6268,-0.5974,-0.5517,-0.4979,-0.4653,-0.4677,-0.5218,-0.5378,-0.5706,-0.6258,-0.7015,-0.7402,-0.7402,-0.7943,-0.8321,-0.8533,-0.8533,-0.8593,-0.8804,-0.8804,-0.8804,-0.8804,-0.8804,-0.8804,-0.8804,-0.8804,-0.8804,1.4743,1.5357,1.5609,1.4999,1.4571,1.3824,1.2325,1.1332,1.0262,0.8323,0.7356,0.0,0.0,0.0,0.0,0.0,0.0,0.0,0.549,0.6104,0.639,0.0,0.5969,0.0,0.5662,0.4844,0.4613,0.0,0.4469,0.4525,0.5574,0.4803,0.3922,0.3092,0.3059,0.2078,0.0,-0.1873,-0.3936,-0.6329,-0.6315,-0.6298,-0.6278,-0.6274,-0.6268,-0.6338,0.0,-0.6338,-0.6338,-0.6338,-0.6872,-0.7783,-0.7783,-0.7715,-0.771,-0.8273,-0.7711,-0.6953,-0.7917,-0.7917,-0.7352,-0.6656,-0.6836,-0.7241,-0.663,-0.6845,-0.7266,-0.7266,-0.7266,-0.7313,-0.7774,-0.7966,-0.8141,-0.8482,-0.7901,-0.7232,-0.7121,-0.6607,-0.6215,-0.6506,-0.6535,-0.6535,-0.6535,-0.6535,-0.6633,-0.6994,-0.678,-0.6373,-0.5821,-0.5563,-0.555,-0.5928,-0.6249,-0.6632,-0.7074,-0.7777,-0.8156,-0.8156,-0.8586,-0.8804,-0.8804,-0.8804,-0.8804,-0.8804,-0.8804,-0.8804,-0.8804,-0.8804,-0.8804,-0.8804,-0.8804,-0.8804,1.4739,1.5155,1.4988,1.3761,1.2981,1.198,1.0199,0.8925,0.785,0.6742,0.0,0.5076,0.4812,0.44,0.4172,0.4505,0.0,0.5588,0.518,0.5784,0.6204,0.5896,0.5883,0.6002,0.6256,0.4634,0.4027,0.5327,0.3951,0.3497,0.4654,0.5148,0.3777,0.0079,-0.055,-0.0864,-0.0864,-0.4171,-0.6002,-0.6322,-0.6291,-0.6278,-0.6274,-0.6268,-0.6338,-0.6338,-0.6338,0.0,-0.649,-0.649,-0.7173,-0.8237,-0.8237,-0.8237,-0.8309,-0.9145,-0.8841,-0.8161,-0.9145,-0.9523,-0.9306,-0.797,-0.8264,-0.8968,-0.7911,-0.8269,-0.915,-0.915,-0.915,-0.9144,-0.9259,-0.9275,-0.9306,-0.9211,-0.8467,-0.773,-0.761,-0.7318,-0.7292,-0.7912,-0.8047,-0.8027,-0.8027,-0.8027,-0.796,-0.7767,-0.7578,-0.7395,-0.726,-0.6905,-0.6642,-0.675,-0.7343,-0.7723,-0.783,-0.8427,-0.8804,-0.8804,-0.8804,-0.8804,-0.8804,-0.8804,-0.8804,-0.8804,-0.8804,-0.8804,-0.8804,-0.8804,-0.8804,-0.8804,-0.8804,-0.8804,1.239,1.2496,1.2475,1.2141,1.1504,1.0642,0.9317,0.8336,0.0,0.0,0.525,0.503,0.4289,0.4271,0.0,0.4694,0.0,0.0,0.0,0.0,0.3726,0.0,0.0,0.0,0.0,0.0,0.0,0.0,0.0,0.3756,0.1093,0.1019,0.0785,0.0,-0.3383,-0.5207,-0.5207,-0.4157,-0.4543,-0.6288,-0.6281,-0.6274,-0.6264,-0.6264,-0.6338,-0.6338,-0.6338,0.0,-0.7557,-0.7557,-0.8609,-1.026,-1.026,-1.026,-1.0335,-1.0484,-0.989,-0.9221,-1.019,-1.0565,-1.0323,-0.9275,-0.913,-0.9231,-0.904,-0.913,-0.9241,-0.9241,-0.9241,-0.942,-1.0025,-1.034,-1.0654,-1.1203,-1.0791,-1.0138,-1.005,-0.904,-0.8208,-0.8307,-0.8149,-0.8027,-0.8027,-0.8027,-0.821,-0.8884,-0.8543,-0.8463,-0.9138,-0.7678,-0.6858,-0.745,-0.7616,-0.7937,-0.854,-0.8752,-0.8804,-0.8804,-0.8804,-0.8804,-0.8804,-0.8804,-0.8804,-0.8804,-0.8804,-0.8804,-0.8804,-0.8804,-0.8804,-0.8804,-0.8804,-0.8804,1.1854,1.1945,1.1646,1.0729,0.999,0.9044,0.7477,0.0,0.0,0.0,0.466,0.4595,0.4113,0.0,0.0,0.0,0.0,0.0,0.0,0.0,0.0,0.0,0.0,0.0,0.0,0.0,0.0,0.0,0.0,0.0705,0.0,-0.1785,-0.2836,-0.28,-0.3858,-0.5033,-0.628,-0.516,-0.5561,-0.7358,-0.6659,-0.657,-0.7099,-0.6567,-0.6567,-0.7099,-0.7099,0.0,-0.8618,-0.8618,-0.9437,-1.0783,-1.0783,-1.0783,-1.0858,-1.1391,-1.0938,-1.019,-1.1242,-1.162,-1.1471,-1.1025,-1.0875,-1.0726,-1.0271,-1.0421,-1.0875,-1.0875,-1.0875,-1.092,-1.1309,-1.1445,-1.1662,-1.2052,-1.1417,-1.0633,-1.0509,-0.9725,-0.9237,-0.9638,-0.9563,-0.9326,-0.9326,-0.9326,-0.9406,-0.9656,-0.9467,-0.9309,-0.9435,-0.8583,-0.8033,-0.8228,-0.8262,-0.8427,-0.8752,-0.8804,-0.8804,-0.8804,-0.8804,-0.8878,-0.9025,-0.9031,-0.9031,-0.9031,-0.9031,-0.8958,-0.8804,-0.8804,-0.8804,-0.8804,-0.8804,-0.8804,1.0986,1.1002,1.0665,0.915,0.8346,0.7507,0.5908,0.5033,0.0,0.0,0.3924,0.3676,0.3523,0.0,0.0,0.0,0.0,0.0,0.0,0.0,0.0,0.0,0.0,0.0,0.0,0.0,0.0,0.0,0.0,0.0,-0.0701,-0.3291,-0.5032,-0.5425,-0.4077,-0.4262,-0.6183,-0.6261,-0.6926,-0.8138,-0.7092,-0.7176,-0.8084,-0.7099,-0.7176,-0.8084,-0.8084,0.0,0.0,-0.9593,-1.019,-1.1087,-1.1087,-1.1087,-1.1242,-1.1996,-1.1768,-1.1236,-1.1996,-1.2305,-1.2305,-1.2305,-1.2305,-1.215,-1.1391,-1.1694,-1.2305,-1.2305,-1.2305,-1.2305,-1.2305,-1.2305,-1.2305,-1.2305,-1.1608,-1.0936,-1.0858,-1.0487,-1.0343,-1.0962,-1.0855,-1.0698,-1.0631,-1.0624,-1.0481,-1.0247,-1.016,-0.9927,-0.9399,-0.9223,-0.907,-0.8838,-0.8804,-0.8804,-0.8804,-0.8804,-0.8831,-0.8898,-0.8898,-0.9031,-0.9319,-0.9283,-0.925,-0.9183,-0.9183,-0.9044,-0.8804,-0.8804,-0.8804,-0.8804,-0.8871,-0.8898,0.8129,0.8215,0.8006,0.7451,0.677,0.6061,0.5529,0.0,0.0,0.4053,0.2968,0.2018,0.2018,0.2179,0.2841,0.0,0.0,0.245,0.0,0.0,0.0,0.0,0.0,0.0,0.0,0.0,0.0,0.0,0.0,0.0,-0.2578,-0.2795,-0.3736,-0.534,-0.5397,-0.5548,-0.5785,-0.6842,-0.743,-0.7599,-0.7626,-0.8161,-0.915,-0.8084,-0.8237,-0.915,-0.915,0.0,0.0,-1.064,-1.1242,-1.215,-1.215,-1.215,-1.215,-1.2305,-1.2224,-1.215,-1.2305,-1.2305,-1.2305,-1.2305,-1.2305,-1.2298,-1.2224,-1.2224,-1.2305,-1.2305,-1.2305,-1.2305,-1.2305,-1.2305,-1.2305,-1.2305,-1.2204,-1.2111,-1.2111,-1.1867,-1.1633,-1.1436,-1.1149,-1.0868,-1.0672,-1.0624,-1.0611,-1.0584,-1.0287,-1.0,-0.9686,-0.9406,-0.907,-0.8838,-0.8804,-0.8804,-0.8804,-0.8804,-0.8918,-0.913,-0.9143,-0.9332,-0.9633,-0.9646,-0.9519,-0.919,-0.9183,-0.9044,-0.8804,-0.8804,-0.8804,-0.8811,-0.9024,-0.9143,0.7774,0.7912,0.783,0.7521,0.6917,0.6231,0.5541,0.0,0.325,0.4104,0.2389,0.0164,-0.1644,-0.116,-0.0223,0.0,0.0,0.0,0.0,0.0,0.0,0.0,0.0,0.0,0.0,0.0,0.0,0.0,0.0,0.0,-0.6295,-0.5798,-0.6136,-0.7419,-0.7179,-0.7155,-0.7203,-0.7687,-0.8272,-0.8964,-0.8607,-0.8936,-0.9906,-0.9085,-0.9216,-1.019,-1.019,0.0,0.0,-1.1694,-1.1922,-1.2305,-1.2305,-1.2305,-1.2305,-1.2305,-1.2305,-1.2305,-1.2305,-1.2305,-1.2305,-1.2305,-1.2305,-1.2305,-1.2305,-1.2305,-1.2305,-1.2305,-1.2305,-1.2305,-1.2305,-1.2305,-1.2305,-1.2305,-1.2305,-1.2305,-1.2305,-1.2078,-1.1784,-1.1483,-1.1189,-1.0902,-1.0672,-1.0624,-1.0624,-1.0624,-1.0461,-1.0274,-0.998,-0.984,-0.9659,-0.9365,-0.9018,-0.8804,-0.8804,-0.8965,-0.9064,-0.9176,-0.9406,-0.9639,-0.9933,-0.9947,-0.9886,-0.9766,-0.9766,-0.9626,-0.9332,-0.9332,-0.9332,-0.9339,-0.9452,-0.9506,0.6468,0.6736,0.681,0.6551,0.6168,0.5452,0.0,0.0,0.1732,0.2393,0.0836,-0.1448,-0.4048,-0.3588,-0.2905,-0.2905,0.0,-0.2873,0.0,0.0,0.0,0.0,0.0,0.0,0.0,0.0,0.0,0.0,0.0,0.0,0.0,-0.8339,-0.8186,-0.8549,-0.8172,-0.8038,-0.8133,-0.8467,-0.9056,-0.9845,-0.9449,-0.9818,-1.0851,-1.0085,-1.0265,-1.1236,-1.1236,0.0,0.0,-1.2305,-1.2305,-1.2305,-1.2305,-1.2305,-1.2305,-1.2305,-1.2305,-1.2305,-1.2305,-1.2305,-1.2305,-1.2305,-1.2305,-1.2305,-1.2305,-1.2305,-1.2305,-1.2305,-1.2305,-1.2305,-1.2305,-1.2305,-1.2305,-1.2305,-1.2305,-1.2305,-1.2305,-1.2078,-1.1784,-1.1483,-1.1189,-1.0902,-1.0672,-1.0624,-1.0624,-1.0624,-1.0624,-1.0454,-1.0154,-1.0114,-1.0007,-0.9713,-0.9312,-0.9065,-0.9065,-0.9252,-0.9406,-0.9435,-0.9693,-0.9947,-1.0234,-1.0247,-1.0207,-1.0114,-1.0114,-0.9973,-0.9686,-0.9686,-0.9686,-0.9686,-0.9773,-0.986,0.3509,0.3852,0.4033,0.4048,0.3828,0.3101,0.0,0.0,-0.0389,-0.1839,-0.2174,-0.2681,-0.4209,-0.4497,-0.4497,-0.4497,-0.4497,0.0,0.0,0.0,0.0,0.0,0.0,0.0,0.0,0.0,0.0,0.0,0.0,0.0,0.0,-0.9504,-0.9058,-0.8032,-0.8027,-0.8027,-0.8027,-0.9124,-0.9722,-0.9728,-1.0166,-1.0916,-1.1877,-1.112,-1.1316,0.0,0.0,0.0,0.0,-1.2305,-1.2305,-1.2305,-1.2305,-1.2305,-1.2305,-1.2305,-1.2305,-1.2305,-1.2305,-1.2305,-1.2305,-1.2305,-1.2305,-1.2305,-1.2305,-1.2305,-1.2305,-1.2305,-1.2305,-1.2305,-1.2305,-1.2305,-1.2305,-1.2305,-1.2305,-1.2305,-1.2305,-1.2078,-1.1784,-1.1483,-1.1189,-1.0902,-1.0672,-1.0624,-1.0624,-1.0624,-1.0624,-1.0454,-1.0154,-1.0114,-1.0007,-0.9713,-0.9679,-0.9679,-0.9679,-0.9679,-0.98,-1.0087,-1.0107,-1.0247,-1.0604,-1.0618,-1.0414,-1.0127,-1.0114,-0.9973,-0.9686,-0.9686,-0.9686,-0.9693,-0.998,-1.0267,0.1068,-0.0,-0.1204,-0.1199,-0.0652,-0.0279,-0.0961,0.0,-0.3208,-0.3669,-0.375,-0.3913,-0.4425,-0.4857,-0.5175,-0.5175,-0.5618,0.0,0.0,0.0,0.0,0.0,0.0,0.0,0.0,0.0,0.0,0.0,0.0,0.0,0.0,-1.1963,-1.1241,-0.9843,-0.9779,-0.9779,-0.9779,-1.0129,-1.0309,-1.0316,-1.0869,-1.1279,-1.1583,-1.2418,-1.2572,0.0,0.0,0.0,0.0,-1.3025,-1.3237,-1.3237,-1.3237,-1.3237,-1.3164,-1.2519,-1.2305,-1.2305,-1.2305,-1.2305,-1.2305,-1.2305,-1.2305,-1.2305,-1.2305,-1.2305,-1.2305,-1.2305,-1.2305,-1.2305,-1.2305,-1.2305,-1.2305,-1.2305,-1.2305,-1.2305,-1.2305,-1.2231,-1.2078,-1.179,-1.149,-1.1196,-1.0909,-1.0688,-1.0624,-1.0624,-1.0624,-1.0591,-1.0434,-1.0421,-1.0381,-1.0294,-1.0342,-1.012,-0.9719,-0.9866,-1.002,-1.0107,-1.0307,-1.0461,-1.0618,-1.0624,-1.0577,-1.0421,-1.0421,-1.0374,-1.0342,-1.0342,-1.0342,-1.0349,-1.0374,-1.0474,0.0,-0.1761,-0.3051,-0.3498,-0.3023,0.0,0.0,0.0,-0.4374,-0.4362,-0.4646,-0.4853,-0.4853,-0.5445,-0.5923,-0.5923,-0.6312,0.0,0.0,0.0,0.0,0.0,0.0,0.0,0.0,0.0,0.0,0.0,0.0,0.0,0.0,-1.3063,-1.252,-1.1545,-1.1483,-1.1483,-1.1483,-1.1483,-1.1483,-1.1483,-1.1935,-1.2173,-1.2195,-1.3057,-1.3136,0.0,0.0,0.0,0.0,-1.3882,-1.4243,-1.4243,-1.3818,-1.3673,-1.36,-1.3025,-1.2806,-1.2806,-1.2806,-1.2806,-1.2732,-1.2445,-1.2305,-1.2305,-1.2305,-1.2305,-1.2305,-1.2305,-1.2305,-1.2305,-1.2305,-1.2305,-1.2305,-1.2305,-1.2305,-1.2305,-1.2305,-1.2218,-1.2084,-1.1904,-1.163,-1.1369,-1.1189,-1.1009,-1.0848,-1.0742,-1.0722,-1.0681,-1.0638,-1.0719,-1.0681,-1.0631,-1.0719,-1.0528,-1.0053,-1.018,-1.0281,-1.0281,-1.0454,-1.0624,-1.0624,-1.0624,-1.0624,-1.0624,-1.0624,-1.0624,-1.0624,-1.0624,-1.0624,-1.0624,-1.0624,-1.0624,0.0,-0.1941,0.0,0.0,0.0,0.0,0.0,0.0,0.0,-0.4285,-0.4988,-0.5597,-0.5597,-0.6199,-0.6696,-0.6696,0.0,0.0,0.0,0.0,0.0,0.0,0.0,0.0,0.0,0.0,0.0,0.0,0.0,0.0,0.0,-1.3199,-1.3183,-1.3183,-1.3183,-1.313,-1.3009,-1.3033,-1.3033,-1.3009,-1.3334,-1.3435,-1.3379,-1.3361,-1.3259,0.0,0.0,0.0,0.0,-1.4879,-1.5305,-1.5234,-1.4243,-1.3882,-1.3882,-1.3818,-1.3818,-1.381,-1.3745,-1.3745,-1.3673,-1.2806,-1.2445,-1.2372,-1.2372,-1.2378,-1.2305,-1.2305,-1.2305,-1.2305,-1.2305,-1.2305,-1.2305,-1.2305,-1.2305,-1.2305,-1.2305,-1.2091,-1.1904,-1.1904,-1.1663,-1.1456,-1.1456,-1.1443,-1.1336,-1.1062,-1.1022,-1.0929,-1.0719,-1.0855,-1.0922,-1.0648,-1.0842,-1.0882,-1.0678,-1.0631,-1.0624,-1.0624,-1.0624,-1.0624,-1.0624,-1.0624,-1.0624,-1.0624,-1.0624,-1.0624,-1.0624,-1.0624,-1.0624,-1.0624,-1.0624,-1.0624,-0.391,0.0,-0.3266,-0.355,-0.3595,-0.3595,0.0,0.0,0.0,0.0,0.0,0.0,0.0,0.0,0.0,0.0,0.0,0.0,0.0,0.0,0.0,0.0,0.0,0.0,0.0,0.0,0.0,0.0,0.0,0.0,0.0,-1.5043,-1.4815,-1.4815,-1.4815,-1.4273,-1.3009,-1.3343,-1.3273,-1.3017,-1.3653,-1.3745,-1.3435,-1.4679,-1.4883,0.0,0.0,0.0,-1.495,-1.586,-1.628,-1.6219,-1.6,-1.593,-1.586,-1.5084,-1.4879,-1.4736,-1.3962,-1.4171,-1.4807,-1.4593,-1.4027,-1.3382,-1.3382,-1.2879,-1.2305,-1.2305,-1.2305,-1.2305,-1.2305,-1.2305,-1.2305,-1.2305,-1.2305,-1.2305,-1.2305,-1.2245,-1.2204,-1.2204,-1.1964,-1.1764,-1.1764,-1.1577,-1.1403,-1.1336,-1.1323,-1.1296,-1.1229,-1.1283,-1.1296,-1.1229,-1.1082,-1.0962,-1.0895,-1.0752,-1.0624,-1.0624,-1.0624,-1.0624,-1.0624,-1.0624,-1.0624,-1.0624,-1.0624,-1.0624,-1.0624,-1.0624,-1.0624,-1.0624,-1.0624,-1.0624,-0.4831,-0.4613,-0.4316,-0.4052,-0.4184,-0.4316,-0.4008,0.0,0.0,0.0,0.0,0.0,0.0,0.0,0.0,0.0,0.0,0.0,0.0,0.0,0.0,0.0,0.0,0.0,0.0,0.0,0.0,0.0,0.0,0.0,0.0,-1.5537,-1.541,-1.541,-1.541,-1.4991,-1.4094,-1.43,-1.4441,-1.4423,-1.4604,-1.4702,-1.4693,-1.5292,-1.5362,0.0,0.0,0.0,-1.593,-1.6862,-1.7207,-1.7207,-1.6784,-1.6636,-1.6567,-1.6009,-1.586,-1.579,-1.5226,-1.5084,-1.5234,-1.5234,-1.4807,-1.4314,-1.381,-1.3382,-1.2879,-1.2445,-1.2305,-1.2305,-1.2305,-1.2305,-1.2305,-1.2305,-1.2305,-1.2305,-1.2305,-1.2305,-1.2305,-1.2305,-1.2178,-1.2064,-1.2064,-1.1937,-1.1784,-1.165,-1.163,-1.1583,-1.1443,-1.1543,-1.1577,-1.1443,-1.141,-1.1336,-1.1202,-1.1049,-1.0842,-1.0645,-1.0624,-1.0624,-1.0624,-1.0624,-1.0624,-1.0624,-1.0624,-1.0624,-1.0624,-1.0624,-1.0624,-1.0624,-1.0624,-1.0624,-0.5437,-0.555,-0.5479,-0.47,-0.4937,-0.5222,-0.4697,0.0,0.0,0.0,0.0,0.0,0.0,0.0,0.0,0.0,0.0,0.0,0.0,0.0,0.0,0.0,0.0,0.0,0.0,0.0,0.0,0.0,0.0,0.0,0.0,-1.5621,-1.5533,-1.5428,-1.5428,-1.5458,-1.541,-1.5478,-1.5664,-1.5957,-1.5654,-1.5674,-1.5977,-1.5566,-1.5433,-1.5469,0.0,0.0,-1.6771,-1.7619,-1.8008,-1.794,-1.7139,-1.6784,-1.6784,-1.6784,-1.6784,-1.6784,-1.6784,-1.6219,-1.5446,-1.5587,-1.5517,-1.5234,-1.4378,-1.4027,-1.3738,-1.2952,-1.2659,-1.2445,-1.2372,-1.2445,-1.2445,-1.2305,-1.2305,-1.2305,-1.2305,-1.2305,-1.2305,-1.2305,-1.2305,-1.2305,-1.2305,-1.2305,-1.2218,-1.1977,-1.1937,-1.1844,-1.159,-1.1777,-1.1837,-1.159,-1.1744,-1.1764,-1.1516,-1.145,-1.1196,-1.0661,-1.0668,-1.0675,-1.0628,-1.0651,-1.0624,-1.0624,-1.0624,-1.0624,-1.0624,-1.0624,-1.0624,-1.0624,-1.0672,-1.0755,-0.605,-0.6594,-0.6843,-0.5479,-0.54,-0.5626,-0.5535,0.0,0.0,0.0,0.0,0.0,0.0,0.0,0.0,0.0,0.0,0.0,0.0,0.0,0.0,0.0,0.0,0.0,0.0,0.0,0.0,0.0,0.0,0.0,0.0,-1.6809,-1.6321,-1.5698,-1.5632,-1.5594,-1.541,-1.5781,-1.5811,-1.5518,-1.582,-1.5801,-1.5527,-1.5836,-1.5969,-1.6017,0.0,-1.7272,-1.7292,-1.7794,-1.8008,-1.8008,-1.7862,-1.7794,-1.7794,-1.7794,-1.7794,-1.7794,-1.7794,-1.7148,-1.6498,-1.7295,-1.7001,-1.6349,-1.621,-1.5579,-1.495,-1.4807,-1.4171,-1.331,-1.2519,-1.2879,-1.331,-1.2519,-1.2305,-1.2305,-1.2305,-1.2305,-1.2305,-1.2305,-1.2305,-1.2305,-1.2305,-1.2305,-1.2285,-1.2238,-1.2238,-1.2218,-1.2171,-1.2204,-1.2218,-1.2171,-1.1984,-1.185,-1.1804,-1.157,-1.1283,-1.0949,-1.1156,-1.1182,-1.0935,-1.0688,-1.0624,-1.0624,-1.0624,-1.0624,-1.0624,-1.0624,-1.0624,-1.0631,-1.0815,-1.1372,-0.7112,-0.7501,-0.7783,-0.7187,-0.7231,-0.7308,-0.6742,0.0,0.0,0.0,0.0,0.0,0.0,0.0,0.0,0.0,0.0,0.0,0.0,0.0,0.0,0.0,0.0,0.0,0.0,0.0,0.0,0.0,0.0,0.0,0.0,0.0,-1.6192,-1.589,-1.5774,-1.5632,-1.5568,-1.5663,-1.5732,-1.5762,-1.5723,-1.5732,-1.5771,-1.5977,-1.6125,-1.6154,0.0,-1.7168,-1.7402,-1.7598,-1.7803,-1.8008,-1.8008,-1.8008,-1.8008,-1.8008,-1.8008,-1.8008,-1.8008,-1.7716,-1.7432,-1.7862,-1.7725,-1.7285,-1.6775,-1.628,-1.586,-1.5376,-1.4879,-1.4378,-1.3947,-1.4163,-1.4378,-1.3947,-1.3875,-1.3875,-1.3875,-1.3455,-1.3025,-1.3025,-1.2666,-1.2305,-1.2305,-1.2305,-1.2305,-1.2305,-1.2305,-1.2305,-1.2305,-1.2305,-1.2305,-1.2305,-1.2184,-1.2037,-1.1884,-1.1891,-1.1703,-1.1256,-1.1209,-1.1202,-1.1229,-1.0949,-1.0795,-1.0795,-1.0641,-1.0624,-1.0624,-1.0624,-1.0641,-1.0795,-1.0929,-1.1598,-0.8077,-0.8272,-0.8568,-0.883,0.0,-0.8782,-0.8218,0.0,0.0,0.0,0.0,0.0,0.0,0.0,0.0,0.0,0.0,0.0,0.0,0.0,0.0,0.0,0.0,0.0,0.0,0.0,0.0,0.0,0.0,0.0,0.0,0.0,-1.6246,-1.6097,-1.5916,-1.5797,-1.5693,-1.5542,-1.5654,-1.5908,-1.5566,-1.5586,-1.5908,-1.5908,-1.5908,-1.5937,-1.6494,-1.6924,-1.7246,-1.7451,-1.7715,-1.8008,-1.8008,-1.8008,-1.8008,-1.8008,-1.8008,-1.8008,-1.8008,-1.8008,-1.8008,-1.8008,-1.8008,-1.7872,-1.7139,-1.6922,-1.6784,-1.6079,-1.5877,-1.5728,-1.5305,-1.5376,-1.5438,-1.5234,-1.5234,-1.5234,-1.5234,-1.4386,-1.3673,-1.3673,-1.2952,-1.2305,-1.2305,-1.2305,-1.2305,-1.2305,-1.2305,-1.2305,-1.2305,-1.2305,-1.2372,-1.2592,-1.2666,-1.257,-1.2342,-1.2188,-1.1964,-1.165,-1.1169,-1.1181,-1.1751,-1.1407,-1.1242,-1.1317,-1.1083,-1.0876,-1.0624,-1.0628,-1.0904,-1.1317,-1.1386,-1.224,-0.8635,-0.8856,-0.9203,-0.9844,-0.9432,0.0,-0.9994,-1.0291,0.0,-1.0656,0.0,0.0,0.0,0.0,0.0,0.0,0.0,0.0,0.0,0.0,0.0,0.0,0.0,0.0,0.0,0.0,0.0,0.0,0.0,0.0,0.0,0.0,0.0,-1.6291,-1.6279,-1.6097,-1.5693,-1.568,-1.5583,-1.5459,-1.543,-1.543,-1.5459,-1.5459,-1.5459,-1.5508,-1.6357,-1.6748,-1.6782,-1.7637,-1.7978,-1.8008,-1.8008,-1.8008,-1.8008,-1.8008,-1.8008,-1.8008,-1.8008,-1.8008,-1.8008,-1.8008,-1.8008,-1.8008,-1.794,-1.7862,-1.7872,-1.7794,-1.7794,-1.7373,-1.5658,-1.5869,-1.628,-1.5376,-1.5234,-1.5234,-1.5234,-1.4386,-1.3673,-1.3673,-1.2952,-1.2305,-1.2305,-1.2305,-1.2305,-1.2305,-1.2305,-1.2305,-1.2305,-1.2305,-1.2666,-1.3528,-1.36,-1.3593,-1.3563,-1.2277,-1.1703,-1.2204,-1.1202,-1.1288,-1.2751,-1.2153,-1.1896,-1.2273,-1.2178,-1.1575,-1.0624,-1.0828,-1.1421,-1.2288,-1.2602,-1.3905,-0.9199,-0.9471,-0.9863,-1.0415,-1.0498,0.0,0.0,-1.1444,-1.1865,-1.149,0.0,0.0,0.0,0.0,0.0,0.0,0.0,0.0,0.0,0.0,0.0,0.0,0.0,0.0,0.0,0.0,0.0,0.0,0.0,0.0,0.0,0.0,0.0,-1.6426,-1.6346,-1.623,-1.6058,-1.6291,-1.6353,-1.6263,-1.5666,-1.541,-1.541,-1.541,-1.541,-1.5449,-1.6055,-1.6475,-1.6777,-1.7373,-1.7773,-1.8008,-1.8008,-1.8008,-1.8008,-1.8008,-1.8008,-1.8008,-1.8008,-1.8008,-1.8008,-1.8008,-1.8008,-1.8008,-1.8008,-1.8008,-1.8008,-1.8008,-1.8008,-1.7872,-1.7157,-1.7217,-1.7364,-1.701,-1.6941,-1.6941,-1.6941,-1.6149,-1.5296,-1.4736,-1.381,-1.3171,-1.3171,-1.2659,-1.2519,-1.3091,-1.2659,-1.2519,-1.3098,-1.3171,-1.3528,-1.4522,-1.4473,-1.4144,-1.3723,-1.3408,-1.315,-1.292,-1.239,-1.2431,-1.3349,-1.3271,-1.3134,-1.2953,-1.2467,-1.2108,-1.2021,-1.2137,-1.2751,-1.3814,-1.395,-1.4891,-1.0244,-1.0397,-1.0778,0.0,0.0,0.0,-1.2231,-1.2627,-1.2774,-1.2236,0.0,0.0,0.0,0.0,0.0,0.0,0.0,0.0,0.0,0.0,0.0,0.0,0.0,0.0,0.0,0.0,0.0,0.0,0.0,0.0,0.0,0.0,0.0,-1.6522,-1.6386,-1.6346,-1.6279,-1.652,-1.6706,-1.6788,-1.5959,-1.5649,-1.5748,-1.5526,-1.5488,-1.5644,-1.6084,-1.6523,-1.6973,-1.7402,-1.7744,-1.8008,-1.8008,-1.8008,-1.8008,-1.8008,-1.8008,-1.8008,-1.8008,-1.8008,-1.8008,-1.8008,-1.8008,-1.8008,-1.8008,-1.8105,-1.8213,-1.8213,-1.8311,-1.8379,-1.8242,-1.8105,-1.8008,-1.8008,-1.8008,-1.8047,-1.8184,-1.737,-1.6464,-1.5953,-1.496,-1.4171,-1.4171,-1.3665,-1.3448,-1.4099,-1.3665,-1.3448,-1.4099,-1.4171,-1.4522,-1.5517,-1.5419,-1.5022,-1.4219,-1.4328,-1.4134,-1.3464,-1.3713,-1.407,-1.4473,-1.4363,-1.414,-1.3723,-1.3357,-1.3118,-1.2916,-1.3276,-1.405,-1.5155,-1.5155,-1.5848,-1.1811,-1.1752,0.0,0.0,0.0,0.0,-1.4449,-1.3752,-1.2929,0.0,0.0,0.0,0.0,0.0,0.0,0.0,0.0,0.0,0.0,0.0,0.0,0.0,0.0,0.0,0.0,0.0,0.0,0.0,0.0,0.0,0.0,0.0,0.0,-1.6522,-1.6522,-1.6421,-1.6315,-1.6326,-1.6483,-1.683,-1.6247,-1.6168,-1.6492,-1.5748,-1.5644,-1.6145,-1.6543,-1.6973,-1.7412,-1.7832,-1.8008,-1.8008,-1.8008,-1.8008,-1.8008,-1.8008,-1.8008,-1.8008,-1.8008,-1.8008,-1.8008,-1.8008,-1.8008,-1.8008,-1.8008,-1.8301,-1.8562,-1.8562,-1.8945,-1.918,-1.874,-1.832,-1.8018,-1.8008,-1.8008,-1.8125,-1.8545,-1.7567,-1.6754,-1.7099,-1.6137,-1.5234,-1.5234,-1.5234,-1.5234,-1.5234,-1.5234,-1.5234,-1.5234,-1.5234,-1.5587,-1.6489,-1.6627,-1.621,-1.5305,-1.4902,-1.4429,-1.3795,-1.5223,-1.6105,-1.6105,-1.536,-1.4859,-1.4747,-1.5134,-1.455,-1.2923,-1.4114,-1.5222,-1.6105,-1.6105,-1.6814,-1.1811,0.0,0.0,0.0,0.0,0.0,0.0,-1.4107,0.0,0.0,0.0,0.0,0.0,0.0,0.0,0.0,0.0,0.0,0.0,0.0,0.0,0.0,0.0,0.0,0.0,0.0,0.0,0.0,0.0,0.0,0.0,0.0,0.0,-1.6522,-1.6522,-1.6467,-1.6453,-1.6848,-1.7113,-1.7218,-1.7293,-1.7322,-1.7235,-1.6147,-1.5869,-1.6396,-1.6582,-1.6807,-1.6982,-1.7705,-1.8008,-1.8008,-1.8008,-1.8008,-1.8008,-1.8008,-1.8008,-1.8008,-1.8008,-1.8008,-1.8008,-1.8008,-1.8008,-1.8008,-1.8008,-1.8096,-1.8193,-1.8193,-1.8506,-1.873,-1.8311,-1.832,-1.8379,-1.8076,-1.8008,-1.8047,-1.8164,-1.788,-1.7392,-1.6869,-1.6438,-1.621,-1.621,-1.5658,-1.5446,-1.6079,-1.5658,-1.5446,-1.607,-1.6793,-1.7295,-1.7579,-1.7579,-1.7217,-1.628,-1.6684,-1.6665,-1.5781,-1.6812,-1.7166,-1.6455,-1.659,-1.643,-1.6025,-1.5865,-1.5668,-1.5523,-1.5843,-1.6533,-1.7456,-1.7456,-1.7668,-1.2649,0.0,0.0,0.0,0.0,0.0,0.0,0.0,0.0,0.0,0.0,0.0,0.0,0.0,0.0,0.0,0.0,0.0,0.0,0.0,0.0,0.0,0.0,0.0,0.0,0.0,0.0,0.0,0.0,0.0,0.0,0.0,-1.6522,-1.6522,-1.6522,-1.6522,-1.6522,-1.6861,-1.7149,-1.7388,-1.7358,-1.7395,-1.7432,-1.646,-1.6279,-1.6759,-1.6914,-1.6992,-1.7041,-1.7725,-1.8008,-1.8008,-1.8008,-1.8008,-1.8008,-1.8008,-1.8008,-1.8008,-1.8008,-1.8008,-1.8008,-1.8008,-1.8008,-1.8008,-1.8008,-1.8125,-1.8262,-1.8262,-1.8564,-1.8799,-1.8369,-1.8447,-1.8574,-1.832,-1.8135,-1.8105,-1.8447,-1.8379,-1.8045,-1.752,-1.7381,-1.7325,-1.7166,-1.6724,-1.6507,-1.707,-1.6645,-1.6507,-1.707,-1.7647,-1.8008,-1.8008,-1.8008,-1.7647,-1.6706,-1.7432,-1.7579,-1.6636,-1.7501,-1.7725,-1.7207,-1.7321,-1.7159,-1.6627,-1.6526,-1.6517,-1.6636,-1.6991,-1.7432,-1.8008,-1.8008,-1.8008,-1.3909,0.0,0.0,0.0,0.0,0.0,0.0,0.0,0.0,0.0,0.0,0.0,0.0,0.0,0.0,0.0,0.0,0.0,0.0,0.0,0.0,0.0,0.0,0.0,0.0,0.0,0.0,0.0,0.0,0.0,0.0,0.0,-1.6522,-1.6522,-1.6522,-1.6522,-1.6522,-1.6522,-1.6785,-1.73,-1.6823,-1.6843,-1.7291,-1.6817,-1.6774,-1.7235,-1.7349,-1.737,-1.7412,-1.7793,-1.7978,-1.8008,-1.8008,-1.8008,-1.8008,-1.8008,-1.8008,-1.8008,-1.8008,-1.8008,-1.8008,-1.8008,-1.8008,-1.8008,-1.8008,-1.8301,-1.8562,-1.8594,-1.8926,-1.918,-1.8701,-1.8533,-1.8562,-1.8562,-1.835,-1.8271,-1.9014,-1.8896,-1.8623,-1.8584,-1.8584,-1.8457,-1.8076,-1.8008,-1.8008,-1.8008,-1.8008,-1.8008,-1.8008,-1.8008,-1.8008,-1.8008,-1.8008,-1.7647,-1.6775,-1.7501,-1.7647,-1.6775,-1.7501,-1.8008,-1.8008,-1.7646,-1.7197,-1.6775,-1.7207,-1.7197,-1.6706,-1.7579,-1.8008,-1.8008,-1.8008,-1.8008,0.0,-1.4325,0.0,0.0,0.0,0.0,0.0,0.0,0.0,0.0,0.0,0.0,0.0,0.0,0.0,0.0,0.0,0.0,0.0,0.0,0.0,0.0,0.0,0.0,0.0,0.0,0.0,0.0,0.0,0.0,0.0,0.0,-1.6522,-1.6522,-1.6522,-1.6522,-1.6522,-1.6522,-1.6584,0.0,-1.7036,-1.7267,-1.738,-1.7118,-1.7066,-1.7193,-1.7222,-1.7294,-1.7393,-1.748,-1.7715,-1.8008,-1.8008,-1.8008,-1.8008,-1.8008,-1.8008,-1.8008,-1.8008,-1.8008,-1.8008,-1.8008,-1.8008,-1.8008,-1.8008,-1.8301,-1.8494,-1.8242,-1.8691,-1.9111,-1.834,-1.8389,-1.8562,-1.8562,-1.8494,-1.8467,-1.832,-1.8467,-1.8545,-1.8213,-1.8144,-1.8115,-1.8027,-1.8008,-1.8008,-1.8008,-1.8008,-1.8008,-1.8008,-1.8008,-1.8008,-1.8008,-1.8008,-1.794,-1.7716,-1.7862,-1.794,-1.7716,-1.7872,-1.8008,-1.8008,-1.793,-1.7842,-1.7716,-1.7775,-1.7842,-1.7716,-1.7862,-1.8008,-1.8008,-1.8008,-1.8008,0.0,0.0,0.0,0.0,0.0,0.0,0.0,0.0,0.0,0.0,0.0,0.0,0.0,0.0,0.0,0.0,0.0,0.0,0.0,0.0,0.0,0.0,0.0,0.0,0.0,0.0,0.0,0.0,0.0,0.0,0.0,-1.7034,-1.6752,-1.6522,-1.6522,-1.6522,-1.6522,-1.6522,-1.6522,-1.6522,-1.6823,-1.7112,-1.74,-1.7183,-1.687,-1.6477,-1.6707,-1.6788,-1.6768,-1.6982,-1.7324,-1.7686,-1.748,-1.7646,-1.7988,-1.7783,-1.7842,-1.8008,-1.8008,-1.8008,-1.8008,-1.8008,-1.8008,-1.8008,-1.8008,-1.8164,-1.8291,-1.8076,-1.833,-1.8574,-1.8125,-1.8174,-1.833,-1.833,-1.833,-1.833,-1.8311,-1.8486,-1.8516,-1.8086,-1.8174,-1.8242,-1.8047,-1.8008,-1.8008,-1.8008,-1.8008,-1.8008,-1.8008,-1.8008,-1.8008,-1.8008,-1.8008,-1.8008,-1.8008,-1.8008,-1.8008,-1.8008,-1.8008,-1.8008,-1.8008,-1.8008,-1.8008,-1.8008,-1.8008,-1.8008,-1.8008,-1.8008,-1.8008,-1.8008,-1.8008,-1.8008,0.0,0.0,0.0,0.0,0.0,0.0,0.0,0.0,0.0,0.0,0.0,0.0,0.0,0.0,0.0,0.0,0.0,0.0,0.0,0.0,0.0,0.0,0.0,0.0,0.0,0.0,0.0,0.0,0.0,0.0,-1.7463,-1.7353,-1.7034,-1.6522,-1.6522,-1.6522,-1.6522,-1.6522,-1.6522,-1.6522,-1.6522,-1.6773,-1.725,-1.7095,-1.6569,-1.5932,-1.6322,-1.6335,-1.6154,-1.6465,-1.6875,-1.7246,-1.6953,-1.7275,-1.7871,-1.7598,-1.7715,-1.8008,-1.8008,-1.8008,-1.8008,-1.8008,-1.8008,-1.8008,-1.8008,-1.8057,-1.8105,-1.8037,-1.8057,-1.8105,-1.8027,-1.8008,-1.8008,-1.8008,-1.8008,-1.8105,-1.8457,-1.8584,-1.8516,-1.8086,-1.8291,-1.8418,-1.8076,-1.8008,-1.8008,-1.8008,-1.8008,-1.8008,-1.8008,-1.8008,-1.8008,-1.8008,-1.8008,-1.8008,-1.8008,-1.8008,-1.8008,-1.8008,-1.8008,-1.8008,-1.8008,-1.8008,-1.8008,-1.8008,-1.8008,-1.8008,-1.8008,-1.8008,-1.8008,-1.8008,-1.8008,-1.8008,0.0,0.0,0.0,0.0,0.0,0.0,0.0,0.0,0.0,0.0,0.0,0.0,0.0,0.0,0.0,0.0,0.0,0.0,0.0,0.0,0.0,0.0,0.0,0.0,0.0,0.0,0.0,0.0,0.0,0.0,-1.8027,-1.7544,-1.7034,-1.6522,-1.6522,-1.6522,-1.6522,-1.6522,-1.6522,-1.6522,-1.6522,-1.6559,-1.6635,-1.661,-1.6598,-1.664,-1.6707,-1.6479,-1.6125,-1.6133,-1.6416,-1.6855,-1.7168,-1.7363,-1.75,-1.7812,-1.7959,-1.8008,-1.8008,-1.8008,-1.8008,-1.8008,-1.8008,-1.8008,-1.8008,-1.8262,-1.8477,-1.8115,-1.8271,-1.8467,-1.8105,-1.8008,-1.8008,-1.8008,-1.8008,-1.8027,-1.8086,-1.8379,-1.8516,-1.8086,-1.8057,-1.8076,-1.8018,-1.8008,-1.8008,-1.8008,-1.8008,-1.8008,-1.8008,-1.8008,-1.8008,-1.8008,-1.8008,-1.8008,-1.8008,-1.8008,-1.8008,-1.8008,-1.8008,-1.8008,-1.8008,-1.8008,-1.8008,-1.8008,-1.8008,-1.8008,-1.8008,-1.8008,-1.8008,-1.8008,-1.8008,-1.8008,0.0,0.0,0.0,0.0,0.0,0.0,0.0,0.0,0.0,0.0,0.0,0.0,0.0,0.0,0.0,0.0,0.0,0.0,0.0,0.0,0.0,0.0,0.0,0.0,0.0,0.0,0.0,0.0,0.0,-1.8968,-1.8145,-1.7867,-1.7353,-1.6522,-1.6522,-1.6522,-1.6522,-1.6522,-1.6522,-1.6522,-1.6522,-1.6522,-1.6522,-1.6522,-1.6681,-1.6926,-1.6662,-1.6436,-1.6311,-1.6009,-1.6088,-1.6357,-1.6299,-1.6812,-1.761,-1.7559,-1.7934,-1.8512,-1.8512,-1.8512,-1.8554,-1.8891,-1.8975,-1.9017,-1.9346,-1.9568,-1.9684,-1.9483,-1.9579,-1.9551,-1.8895,-1.8721,-1.8596,-1.8144,-1.8008,-1.8008,-1.8008,-1.8154,-1.8232,-1.8047,-1.8008,-1.8008,-1.8008,-1.8008,-1.8008,-1.8008,-1.8008,-1.8008,-1.8008,-1.8008,-1.8008,-1.8008,-1.8008,-1.8008,-1.8008,-1.8008,-1.8008,-1.8008,-1.8008,-1.8008,-1.8008,-1.8008,-1.8008,-1.8008,-1.8008,-1.8008,-1.8008,-1.8008,-1.8008,-1.8008,-1.8008,-1.8008,0.0,0.0,0.0,0.0,0.0,0.0,0.0,0.0,0.0,0.0,0.0,0.0,0.0,0.0,0.0,0.0,0.0,0.0,0.0,0.0,0.0,0.0,0.0,0.0,0.0,0.0,0.0,0.0,0.0,-1.9281,-1.8341,-1.8185,-1.7666,-1.671,-1.6552,-1.6522,-1.6522,-1.6522,-1.6522,-1.6522,-1.6522,-1.6522,-1.6522,-1.6522,-1.6769,-1.7147,-1.6539,-1.6272,-1.6294,-1.5839,-1.5889,-1.6168,-1.5949,-1.6734,-1.7885,-1.7722,-1.8148,-1.891,-1.891,-1.891,-1.8977,-1.9415,-1.9616,-1.9772,-2.0214,-2.049,-2.059,-2.059,-2.059,-2.0462,-1.9814,-1.9497,-1.911,-1.8462,-1.8134,-1.8008,-1.8008,-1.8008,-1.8008,-1.8008,-1.8008,-1.8008,-1.8008,-1.8008,-1.8008,-1.8008,-1.8008,-1.8008,-1.8008,-1.8008,-1.8008,-1.8008,-1.8008,-1.8008,-1.8008,-1.8008,-1.8008,-1.8008,-1.8008,-1.8008,-1.8008,-1.8008,-1.8008,-1.8008,-1.8008,-1.8008,-1.8008,-1.8008,-1.8008,-1.8008,-1.8008,-1.8008,0.0,0.0,0.0,0.0,0.0,0.0,0.0,0.0,0.0,0.0,0.0,0.0,0.0,0.0,0.0,0.0,0.0,0.0,0.0,0.0,0.0,0.0,0.0,0.0,0.0,0.0,0.0,0.0,0.0,-1.9442,-1.8893,-1.838,-1.7827,-1.7271,-1.6752,-1.6522,-1.6522,-1.6522,-1.6522,-1.6522,-1.6522,-1.6522,-1.6522,-1.6522,-1.6804,-1.7322,-1.663,-1.6081,-1.5735,-1.5704,-1.604,-1.6509,-1.6926,-1.7573,-1.83,-1.8663,-1.8829,-1.891,-1.891,-1.891,-1.8922,-1.8944,-1.9266,-1.9705,-1.9738,-2.0147,-2.059,-2.059,-2.059,-2.059,-2.0526,-1.9944,-1.9299,-1.9233,-1.8586,-1.8008,-1.8008,-1.8008,-1.8008,-1.8008,-1.8008,-1.8008,-1.8008,-1.8008,-1.8008,-1.8008,-1.8008,-1.8008,-1.8008,-1.8008,-1.8008,-1.8008,-1.8008,-1.8008,-1.8008,-1.8008,-1.8008,-1.8008,-1.8008,-1.8008,-1.8008,-1.8008,-1.8008,-1.8008,-1.8008,-1.8008,-1.8008,-1.8008,-1.8008,-1.8008,-1.8008,-1.8008,0.0,0.0,0.0,0.0,0.0,0.0,0.0,0.0,0.0,0.0,0.0,0.0,0.0,0.0,0.0,0.0,0.0,0.0,0.0,0.0,0.0,0.0,0.0,0.0,0.0,0.0,0.0,0.0,0.0,0.0,-1.893,-1.838,-1.7867,-1.7312,-1.6795,-1.6522,-1.6522,-1.6522,-1.6522,-1.6522,-1.6522,-1.6522,-1.6522,-1.6522,-1.6635,-1.6823,-1.6547,-1.6479,-1.6576,-1.6576,-1.6662,-1.6732,-1.7267,-1.7902,-1.8577,-1.8707,-1.9042,-1.9492,-1.9492,-1.972,-2.0077,-2.0077,-2.0668,-2.1379,-2.1379,-2.1753,-2.2175,-2.2175,-2.2175,-2.2113,-2.1553,-2.1164,-2.0719,-1.9562,-1.9044,-1.8654,-1.8144,-1.8008,-1.8008,-1.8008,-1.8008,-1.8008,-1.8008,-1.8008,-1.8008,-1.8008,-1.8008,-1.8008,-1.8008,-1.8008,-1.8008,-1.8008,-1.8008,-1.8008,-1.8008,-1.8008,-1.8008,-1.8008,-1.8008,-1.8008,-1.8008,-1.8008,-1.8008,-1.8008,-1.8008,-1.8008,-1.8008,-1.8008,-1.8008,-1.8008,-1.8008,-1.8008,0.0,0.0,0.0,0.0,0.0,0.0,0.0,0.0,0.0,0.0,0.0,0.0,0.0,0.0,0.0,0.0,0.0,0.0,0.0,0.0,0.0,0.0,0.0,0.0,0.0,0.0,0.0,0.0,0.0,0.0,-1.9207,-1.8496,-1.7787,-1.7034,-1.668,-1.6522,-1.6522,-1.6522,-1.6522,-1.6522,-1.6522,-1.6522,-1.6522,-1.6522,-1.6522,-1.6522,-1.6522,-1.6622,-1.6811,-1.6811,-1.6965,-1.719,-1.7573,-1.8242,-1.9097,-1.9097,-1.9371,-1.9823,-2.0024,-2.0213,-2.0401,-2.0655,-2.128,-2.2033,-2.2033,-2.2548,-2.3027,-2.2852,-2.2927,-2.2967,-2.2226,-2.1993,-2.1491,-1.9683,-1.9299,-1.9044,-1.8202,-1.8008,-1.8008,-1.8008,-1.8008,-1.8008,-1.8008,-1.8008,-1.7959,-1.7822,-1.7803,-1.7803,-1.7803,-1.7803,-1.7852,-1.7998,-1.8008,-1.8008,-1.8008,-1.8008,-1.8008,-1.8008,-1.8008,-1.8008,-1.8008,-1.8008,-1.8008,-1.8008,-1.8008,-1.8008,-1.8008,-1.8008,-1.8008,-1.8008,-1.8008,-1.8008,0.0,0.0,0.0,0.0,0.0,0.0,0.0,0.0,0.0,0.0,0.0,0.0,0.0,0.0,0.0,0.0,0.0,0.0,0.0,0.0,0.0,0.0,0.0,0.0,0.0,0.0,0.0,0.0,0.0,-1.969,-1.969,-1.865,-1.7585,-1.6522,-1.6522,-1.6522,-1.6522,-1.6522,-1.6522,-1.6522,-1.6522,-1.6522,-1.6522,-1.6522,-1.6522,-1.6522,-1.6522,-1.6426,-1.6315,-1.6326,-1.6954,-1.7894,-1.7918,-1.8675,-1.9786,-1.9798,-1.9798,-1.9874,-2.0492,-2.0288,-1.9911,-2.0464,-2.1029,-2.1493,-2.1468,-2.2234,-2.3,-2.246,-2.2711,-2.2952,-2.2447,-2.2091,-2.1467,-1.9727,-1.9344,-1.909,-1.8269,-1.8076,-1.8008,-1.8008,-1.8008,-1.8008,-1.8008,-1.8008,-1.7871,-1.7451,-1.7383,-1.7383,-1.7383,-1.7383,-1.7539,-1.7969,-1.8008,-1.8008,-1.8008,-1.8008,-1.8008,-1.8008,-1.8008,-1.8008,-1.8008,-1.8008,-1.8008,-1.8008,-1.8008,-1.8008,-1.8008,-1.8008,-1.8008,-1.8008,-1.8008,-1.8008,-1.7862,0.0,0.0,0.0,0.0,0.0,0.0,0.0,0.0,0.0,0.0,0.0,0.0,0.0,0.0,0.0,0.0,0.0,0.0,0.0,0.0,0.0,0.0,0.0,0.0,0.0,0.0,0.0,-1.969,-1.953,-1.9132,-1.8106,-1.7188,-1.6522,-1.6522,-1.6522,-1.6522,-1.6522,-1.6522,-1.6522,-1.6522,-1.6522,-1.6522,-1.6522,-1.6522,-1.6522,-1.6522,-1.648,-1.6465,-1.693,-1.7263,-1.7609,-1.8388,-1.8896,-1.9284,-1.966,-1.9798,-1.9823,-1.9987,-2.0213,-2.0388,-2.0125,-2.0702,-2.1418,-2.1016,-2.1656,-2.251,-2.2347,-2.2711,-2.2952,-2.2447,-2.2234,-2.1919,-2.0784,-2.0538,-2.0393,-1.9998,-1.9365,-1.8721,-1.8144,-1.8008,-1.8008,-1.8008,-1.8008,-1.7871,-1.7451,-1.7383,-1.7383,-1.7383,-1.7383,-1.7539,-1.7969,-1.8008,-1.8008,-1.8008,-1.8008,-1.8008,-1.8008,-1.8008,-1.8008,-1.8008,-1.8008,-1.8008,-1.8008,-1.8008,-1.8008,-1.8008,-1.8008,-1.8008,-1.8008,-1.8008,-1.8008,0.0,0.0,0.0,0.0,0.0,0.0,-1.8403,-1.8349,0.0,0.0,0.0,0.0,0.0,0.0,0.0,0.0,0.0,0.0,0.0,0.0,0.0,0.0,0.0,0.0,0.0,0.0,0.0,-1.969,-1.969,-1.9369,-1.8612,-1.7747,-1.7034,-1.6522,-1.6522,-1.6522,-1.6522,-1.6522,-1.6522,-1.6522,-1.6522,-1.6522,-1.6522,-1.6522,-1.6522,-1.6522,-1.6522,-1.6522,-1.6547,-1.6886,-1.7162,-1.7451,-1.8091,-1.8631,-1.907,-1.9359,-1.961,-1.9836,-2.0075,-2.0225,-2.0288,-2.0188,-2.0614,-2.1091,-2.0819,-2.1443,-2.2221,-2.1757,-2.202,-2.2422,-2.2334,-2.2309,-2.2064,-2.1188,-2.0843,-2.0639,-2.0624,-1.9565,-1.8653,-1.8583,-1.8121,-1.7744,-1.7744,-1.7598,-1.7324,-1.6904,-1.6992,-1.7109,-1.7109,-1.7109,-1.7344,-1.7949,-1.7852,-1.7822,-1.7998,-1.8008,-1.8008,-1.8008,-1.8008,-1.8008,-1.8008,-1.8008,-1.8008,-1.8008,-1.8008,-1.8212,-1.8529,-1.8212,-1.8008,-1.8008,-1.8008,-1.8008,0.0,0.0,0.0,0.0,0.0,0.0,-1.8177,-1.7935,-1.7408,0.0,0.0,0.0,0.0,0.0,0.0,0.0,0.0,0.0,0.0,0.0,0.0,0.0,0.0,0.0,0.0,-1.969,-1.969,-1.969,-1.9603,-1.908,-1.8066,-1.7504,-1.6993,-1.6522,-1.6522,-1.6522,-1.6522,-1.6522,-1.6522,-1.6522,-1.6522,-1.6522,-1.6522,-1.6522,-1.6522,-1.6522,-1.6522,-1.6522,-1.6522,-1.6522,-1.6823,-1.73,-1.735,-1.7978,-1.8857,-1.892,-1.9233,-1.971,-2.0288,-2.015,-1.9811,-2.0388,-2.0618,-2.0618,-2.0618,-2.1292,-2.1945,-2.1091,-2.1204,-2.1681,-2.2108,-2.2272,-2.211,-2.1235,-2.0687,-2.0452,-2.082,-1.9372,-1.829,-1.9177,-1.8228,-1.7314,-1.7314,-1.6992,-1.6602,-1.6201,-1.6475,-1.6748,-1.6797,-1.6758,-1.7041,-1.7852,-1.7607,-1.7539,-1.791,-1.7978,-1.8008,-1.8008,-1.8008,-1.8008,-1.8008,-1.8008,-1.8008,-1.8008,-1.8008,-1.8462,-1.9299,-1.8529,-1.8134,-1.8134,-1.8134,-1.8076,0.0,0.0,0.0,0.0,0.0,0.0,-1.9596,-1.8893,-1.7458,0.0,0.0,0.0,0.0,0.0,0.0,0.0,0.0,0.0,0.0,0.0,0.0,0.0,0.0,0.0,0.0,-1.969,-1.969,-1.969,-1.8893,-1.8145,-1.7504,-1.6951,-1.6595,-1.6522,-1.6522,-1.6522,-1.6522,-1.6522,-1.6522,-1.6522,-1.6522,-1.6522,-1.6522,-1.6522,-1.6522,-1.6522,-1.6522,-1.6522,-1.6522,-1.6522,-1.6584,-1.6735,-1.72,-1.7513,-1.7752,-1.8204,-1.843,-1.8593,-1.9158,-1.9271,-1.9271,-1.9798,-1.9974,-1.9974,-1.9974,-2.0439,-2.1129,-2.1794,-2.2071,-2.2071,-2.1732,-2.1983,-2.2138,-2.1574,-2.1319,-2.1485,-2.2395,-2.1093,-1.9757,-1.9749,-1.8186,-1.6855,-1.6855,-1.6787,-1.6636,-1.6611,-1.668,-1.6855,-1.7207,-1.6953,-1.6934,-1.7451,-1.7432,-1.7422,-1.75,-1.7812,-1.8008,-1.8008,-1.8008,-1.8008,-1.8008,-1.8008,-1.8008,-1.8008,-1.8008,-1.8462,-1.9299,-1.911,-1.9044,-1.9044,-1.9044,-1.8654,0.0,0.0,0.0,-2.1133,0.0,0.0,0.0,-1.958,-1.7606,0.0,0.0,0.0,0.0,0.0,0.0,0.0,0.0,0.0,0.0,0.0,0.0,0.0,0.0,0.0,0.0,-1.969,-1.969,-1.969,-1.8688,-1.7987,-1.7706,-1.6951,-1.6522,-1.6522,-1.6522,-1.6522,-1.6522,-1.6522,-1.6522,-1.6522,-1.6522,-1.6522,-1.6522,-1.6522,-1.6522,-1.6522,-1.6522,-1.6522,-1.6522,-1.6522,-1.6522,-1.6547,-1.6835,-1.7137,-1.7413,-1.7689,-1.7965,-1.8242,-1.8518,-1.8618,-1.8706,-1.9246,-1.9409,-1.9459,-1.9723,-1.9999,-2.0464,-2.1581,-2.1707,-2.143,-2.1154,-2.128,-2.1418,-2.1142,-2.1079,-2.138,-2.2485,-2.1259,-1.9944,-2.011,-1.843,-1.6818,-1.6458,-1.6396,-1.6396,-1.6396,-1.6777,-1.7139,-1.7353,-1.7002,-1.6894,-1.7334,-1.6992,-1.6904,-1.7344,-1.7578,-1.7793,-1.7998,-1.8008,-1.8008,-1.8008,-1.8395,-1.8854,-1.9299,-1.9299,-1.9759,-2.059,-2.059,-2.0398,-1.9944,-1.9944,-1.9683,0.0,0.0,0.0,0.0,0.0,-2.1515,0.0,0.0,0.0,0.0,0.0,0.0,0.0,0.0,0.0,0.0,0.0,0.0,0.0,0.0,0.0,0.0,0.0,0.0,0.0,-1.9528,-1.9566,-1.9566,-1.8535,-1.7947,-1.7947,-1.7034,-1.6522,-1.6522,-1.6522,-1.6522,-1.6522,-1.6522,-1.6522,-1.6522,-1.6522,-1.6522,-1.6522,-1.6522,-1.6522,-1.6522,-1.6522,-1.6522,-1.6522,-1.6522,-1.6522,-1.6522,-1.6522,-1.681,-1.7212,-1.7212,-1.7501,-1.789,-1.8003,-1.8053,-1.8141,-1.8694,-1.8945,-1.912,-1.9648,-1.9798,-2.0012,-2.1041,-2.1004,-2.0718,-2.0718,-2.0806,-2.0857,-2.0743,-2.0806,-2.1066,-2.1958,-2.0908,-1.9889,-2.0196,-1.8747,-1.7244,-1.6457,-1.6255,-1.6221,-1.637,-1.6924,-1.7383,-1.7383,-1.7002,-1.6865,-1.7217,-1.6543,-1.6478,-1.7314,-1.7383,-1.7559,-1.7978,-1.8008,-1.8076,-1.8269,-1.911,-1.9879,-2.059,-2.049,-2.0934,-2.1877,-2.177,-2.1385,-2.0846,-2.0846,-2.0782,0.0,0.0,0.0,0.0,-2.2243,0.0,0.0,0.0,0.0,0.0,0.0,0.0,0.0,0.0,0.0,0.0,0.0,0.0,0.0,0.0,0.0,0.0,0.0,0.0,0.0,0.0,-1.9006,-1.9006,-1.7987,-1.7394,-1.7394,-1.6837,-1.6522,-1.6522,-1.6522,-1.6522,-1.6522,-1.6522,-1.6522,-1.6522,-1.6522,-1.6522,-1.6522,-1.6522,-1.6522,-1.6522,-1.6522,-1.6522,-1.6522,-1.6522,-1.6522,-1.6522,-1.6522,-1.6559,-1.6609,-1.6609,-1.666,-1.6785,-1.73,-1.7476,-1.7564,-1.8129,-1.8631,-1.912,-1.9648,-1.9798,-1.9936,-2.0577,-2.0769,-2.0718,-2.0718,-2.1029,-2.128,-2.0832,-2.1041,-2.143,-2.1556,-2.1037,-2.0395,-1.9841,-1.9069,-1.8233,-1.7217,-1.6818,-1.6787,-1.7178,-1.7324,-1.7383,-1.7383,-1.7002,-1.6748,-1.6743,-1.6357,-1.6478,-1.7314,-1.7383,-1.7559,-1.7978,-1.8008,-1.8337,-1.911,-2.0009,-2.0526,-2.059,-2.008,-2.0517,-2.1877,-2.1329,-2.1341,-2.1753,-2.1753,-2.1365,0.0,0.0,0.0,0.0,0.0,0.0,-2.1904,0.0,-2.1034,0.0,0.0,0.0,0.0,0.0,0.0,0.0,0.0,0.0,0.0,0.0,0.0,0.0,0.0,0.0,0.0,0.0,0.0,0.0,-1.7747,-1.7353,-1.7463,-1.6837,-1.6522,-1.6522,-1.6522,-1.6522,-1.6522,-1.6522,-1.6522,-1.6522,-1.6522,-1.6522,-1.6522,-1.6522,-1.6522,-1.6522,-1.6522,-1.6522,-1.6522,-1.6522,-1.6522,-1.6522,-1.6522,-1.6522,-1.6522,-1.6522,-1.6522,-1.6559,-1.6798,-1.6886,-1.7024,-1.7915,-1.8781,-1.9522,-1.9736,-1.9798,-1.9849,-2.01,-2.0162,-2.0162,-2.0162,-2.0338,-2.0451,-2.0225,-2.0602,-2.1016,-2.1016,-2.0882,-2.0611,-2.0316,-1.9619,-1.9057,-1.8941,-1.8441,-1.8076,-1.7951,-1.803,-1.7958,-1.764,-1.6852,-1.6338,-1.6338,-1.6357,-1.6585,-1.7236,-1.7521,-1.7681,-1.7863,-1.7873,-1.8617,-2.0205,-2.0653,-2.1084,-2.1596,-2.1668,-2.1801,-2.2102,-2.2187,-2.2335,-2.258,-2.258,-2.2372,-2.2634,0.0,0.0,0.0,0.0,0.0,0.0,0.0,0.0,0.0,0.0,0.0,0.0,0.0,0.0,0.0,0.0,0.0,0.0,0.0,0.0,0.0,0.0,0.0,0.0,0.0,0.0,-1.8182,-1.7303,-1.7006,-1.7572,-1.6909,-1.6522,-1.6522,-1.6522,-1.6522,-1.6522,-1.6522,-1.6522,-1.6522,-1.6522,-1.6522,-1.6522,-1.6522,-1.6522,-1.6522,-1.6522,-1.6522,-1.6522,-1.668,-1.6637,-1.6522,-1.668,-1.671,-1.671,-1.671,-1.6637,-1.6522,-1.668,-1.6637,-1.6672,-1.7664,-1.8606,-1.9397,-1.9547,-1.9685,-1.9798,-1.9798,-1.9798,-1.9798,-1.9798,-1.9798,-1.9798,-1.9798,-2.0238,-2.0668,-2.0464,-2.0605,-2.0668,-2.0517,-1.992,-1.9636,-2.0021,-1.9506,-1.9019,-1.894,-1.8812,-1.853,-1.8201,-1.7103,-1.6417,-1.6417,-1.6475,-1.6723,-1.7319,-1.773,-1.7959,-1.8076,-1.833,-1.9137,-2.0712,-2.1176,-2.1628,-2.2309,-2.2711,-2.2786,-2.2535,-2.2786,-2.2987,-2.3078,-2.3078,-2.3078,0.0,0.0,0.0,-2.231,0.0,0.0,0.0,0.0,-2.2073,0.0,0.0,0.0,0.0,0.0,0.0,0.0,0.0,0.0,0.0,0.0,0.0,0.0,0.0,0.0,0.0,0.0,0.0,-1.8272,-1.6572,-1.6068,-1.7504,-1.6909,-1.6522,-1.6522,-1.6522,-1.6522,-1.6522,-1.6522,-1.6522,-1.6522,-1.6522,-1.6522,-1.6522,-1.6522,-1.6522,-1.6522,-1.6522,-1.6522,-1.6552,-1.7076,-1.6951,-1.6552,-1.7076,-1.7271,-1.7271,-1.7271,-1.6951,-1.6552,-1.7076,-1.6909,-1.6609,-1.7212,-1.779,-1.8355,-1.8894,-1.9409,-1.9798,-1.9798,-1.9798,-1.9798,-1.9798,-1.9798,-1.9798,-1.9798,-2.0238,-2.0567,-1.9949,-2.0275,-2.0555,-1.9936,-1.9836,-1.9784,-1.9797,-1.9315,-1.9293,-2.0378,-1.9594,-1.8933,-1.9052,-1.7932,-1.7183,-1.7183,-1.6764,-1.6859,-1.7697,-1.8089,-1.8422,-1.8829,-1.9632,-2.018,-2.025,-2.1535,-2.2251,-2.2309,-2.2334,-2.2585,-2.3053,-2.2585,-2.2611,-2.3078,-2.3078,-2.3078,0.0,0.0,-2.2546,-2.2546,0.0,0.0,0.0,0.0,0.0,0.0,0.0,0.0,0.0,0.0,0.0,0.0,0.0,0.0,0.0,0.0,0.0,0.0,0.0,0.0,0.0,0.0,0.0,-1.5086,-1.3434,-1.219,-1.1482,-1.4676,-1.6522,-1.6522,-1.6522,-1.6522,-1.6522,-1.6522,-1.6522,-1.6522,-1.6522,-1.6522,-1.6522,-1.6522,-1.6522,-1.6522,-1.6879,-1.7034,-1.7076,-1.7626,-1.7706,-1.7544,-1.7394,-1.7312,-1.7312,-1.7312,-1.7435,-1.7544,-1.7353,-1.7209,-1.7124,-1.7313,-1.7752,-1.8304,-1.8869,-1.9145,-1.9359,-1.971,-1.9798,-1.9798,-1.9798,-1.9798,-1.9798,-1.9798,-1.9949,-2.0037,-1.9849,-1.9962,-2.0037,-1.9836,-1.9798,-1.9924,-2.0313,-1.9912,-1.9643,-2.0004,-1.9672,-1.9249,-1.8899,-1.8036,-1.7442,-1.7442,-1.7789,-1.8087,-1.8373,-1.8469,-1.8762,-1.9217,-1.9218,-1.9636,-2.052,-2.1007,-2.1393,-2.1757,-2.2121,-2.2397,-2.2585,-2.2774,-2.289,-2.3078,-2.3078,-2.3078,-2.361,-2.3212,0.0,-2.2695,-2.25,0.0,-2.231,0.0,0.0,0.0,0.0,0.0,0.0,0.0,0.0,0.0,0.0,0.0,0.0,-1.9447,0.0,0.0,0.0,0.0,0.0,0.0,-1.6563,-1.4384,-1.1997,-1.0784,0.0,0.0,-1.6522,-1.6522,-1.6522,-1.6522,-1.6522,-1.6522,-1.6522,-1.6522,-1.6522,-1.6595,-1.6795,-1.6795,-1.6879,-1.7076,-1.7422,-1.7585,-1.7626,-1.8185,-1.8263,-1.8066,-1.7947,-1.7747,-1.7585,-1.7585,-1.7907,-1.8302,-1.7787,-1.7492,-1.7357,-1.7357,-1.7619,-1.8016,-1.8568,-1.8869,-1.9183,-1.9911,-1.9962,-1.9849,-2.0049,-1.9962,-1.9798,-1.9798,-1.9798,-1.9798,-1.9798,-1.9798,-1.9798,-1.9798,-1.9798,-1.9924,-2.0288,-2.0049,-1.9936,-2.0338,-1.999,-1.9624,-1.9412,-1.8565,-1.8015,-1.8015,-1.8447,-1.8821,-1.9097,-1.9097,-1.9243,-1.9528,-1.9238,-1.9478,-2.0338,-2.0605,-2.1016,-2.1769,-2.2133,-2.251,-2.2912,-2.3062,-2.3078,-2.3078,-2.3078,-2.3078]}]]